<?xml version="1.0" encoding="UTF-8" standalone="no" ?>
<gpx xmlns="http://www.topografix.com/GPX/1/1" xmlns:xsi="http://www.w3.org/2001/XMLSchema-instance" xsi:schemaLocation="http://www.topografix.com/GPX/1/1 http://www.topografix.com/GPX/1/1/gpx.xsd" version="1.1" creator="VisuGPX - https://www.visugpx.com">
  <metadata>
    <name>GRP Loue Et Lison</name>
    <desc><![CDATA[Route created on plotaroute.com]]></desc>
  </metadata>
  <trk>
    <name><![CDATA[GRP Loue Et Lison]]></name>
    <trkseg>
      <trkpt lat="47.10498" lon="6.14661">
        <ele>334</ele>
        <time>2022-06-05T00:00:00Z</time>
      </trkpt>
      <trkpt lat="47.10514" lon="6.1467">
        <ele>332</ele>
        <time>2022-06-05T00:00:14Z</time>
      </trkpt>
      <trkpt lat="47.10537" lon="6.14695">
        <ele>331</ele>
        <time>2022-06-05T00:00:37Z</time>
      </trkpt>
      <trkpt lat="47.10518" lon="6.14731">
        <ele>332</ele>
        <time>2022-06-05T00:01:02Z</time>
      </trkpt>
      <trkpt lat="47.10517" lon="6.14739">
        <ele>332</ele>
        <time>2022-06-05T00:01:06Z</time>
      </trkpt>
      <trkpt lat="47.10512" lon="6.14739">
        <ele>332</ele>
        <time>2022-06-05T00:01:10Z</time>
      </trkpt>
      <trkpt lat="47.10477" lon="6.14806">
        <ele>332</ele>
        <time>2022-06-05T00:01:56Z</time>
      </trkpt>
      <trkpt lat="47.10443" lon="6.14854">
        <ele>332</ele>
        <time>2022-06-05T00:02:34Z</time>
      </trkpt>
      <trkpt lat="47.10312" lon="6.14987">
        <ele>337</ele>
        <time>2022-06-05T00:04:41Z</time>
      </trkpt>
      <trkpt lat="47.10293" lon="6.15012">
        <ele>340</ele>
        <time>2022-06-05T00:05:02Z</time>
      </trkpt>
      <trkpt lat="47.10214" lon="6.15144">
        <ele>346</ele>
        <time>2022-06-05T00:06:38Z</time>
      </trkpt>
      <trkpt lat="47.10192" lon="6.15197">
        <ele>347</ele>
        <time>2022-06-05T00:07:12Z</time>
      </trkpt>
      <trkpt lat="47.10186" lon="6.15221">
        <ele>346</ele>
        <time>2022-06-05T00:07:26Z</time>
      </trkpt>
      <trkpt lat="47.10175" lon="6.15353">
        <ele>340</ele>
        <time>2022-06-05T00:08:38Z</time>
      </trkpt>
      <trkpt lat="47.10166" lon="6.15402">
        <ele>339</ele>
        <time>2022-06-05T00:09:06Z</time>
      </trkpt>
      <trkpt lat="47.10167" lon="6.15433">
        <ele>338</ele>
        <time>2022-06-05T00:09:23Z</time>
      </trkpt>
      <trkpt lat="47.10171" lon="6.15444">
        <ele>338</ele>
        <time>2022-06-05T00:09:30Z</time>
      </trkpt>
      <trkpt lat="47.10163" lon="6.15485">
        <ele>338</ele>
        <time>2022-06-05T00:09:53Z</time>
      </trkpt>
      <trkpt lat="47.10154" lon="6.15507">
        <ele>339</ele>
        <time>2022-06-05T00:10:07Z</time>
      </trkpt>
      <trkpt lat="47.10145" lon="6.15514">
        <ele>340</ele>
        <time>2022-06-05T00:10:15Z</time>
      </trkpt>
      <trkpt lat="47.10139" lon="6.15515">
        <ele>341</ele>
        <time>2022-06-05T00:10:20Z</time>
      </trkpt>
      <trkpt lat="47.10122" lon="6.15551">
        <ele>341</ele>
        <time>2022-06-05T00:10:44Z</time>
      </trkpt>
      <trkpt lat="47.09973" lon="6.15726">
        <ele>344</ele>
        <time>2022-06-05T00:13:17Z</time>
      </trkpt>
      <trkpt lat="47.09913" lon="6.15832">
        <ele>342</ele>
        <time>2022-06-05T00:14:32Z</time>
      </trkpt>
      <trkpt lat="47.09817" lon="6.16042">
        <ele>342</ele>
        <time>2022-06-05T00:16:50Z</time>
      </trkpt>
      <trkpt lat="47.09716" lon="6.1619">
        <ele>343</ele>
        <time>2022-06-05T00:18:44Z</time>
      </trkpt>
      <trkpt lat="47.09661" lon="6.16276">
        <ele>344</ele>
        <time>2022-06-05T00:19:49Z</time>
      </trkpt>
      <trkpt lat="47.09647" lon="6.16304">
        <ele>343</ele>
        <time>2022-06-05T00:20:08Z</time>
      </trkpt>
      <trkpt lat="47.09556" lon="6.16456">
        <ele>343</ele>
        <time>2022-06-05T00:21:58Z</time>
      </trkpt>
      <trkpt lat="47.09523" lon="6.16518">
        <ele>342</ele>
        <time>2022-06-05T00:22:41Z</time>
      </trkpt>
      <trkpt lat="47.09481" lon="6.16613">
        <ele>340</ele>
        <time>2022-06-05T00:23:43Z</time>
      </trkpt>
      <trkpt lat="47.09444" lon="6.16682">
        <ele>338</ele>
        <time>2022-06-05T00:24:31Z</time>
      </trkpt>
      <trkpt lat="47.09359" lon="6.16799">
        <ele>339</ele>
        <time>2022-06-05T00:26:04Z</time>
      </trkpt>
      <trkpt lat="47.09275" lon="6.16888">
        <ele>339</ele>
        <time>2022-06-05T00:27:27Z</time>
      </trkpt>
      <trkpt lat="47.09264" lon="6.16937">
        <ele>338</ele>
        <time>2022-06-05T00:27:55Z</time>
      </trkpt>
      <trkpt lat="47.09216" lon="6.17055">
        <ele>343</ele>
        <time>2022-06-05T00:29:10Z</time>
      </trkpt>
      <trkpt lat="47.09196" lon="6.1717">
        <ele>343</ele>
        <time>2022-06-05T00:30:15Z</time>
      </trkpt>
      <trkpt lat="47.09184" lon="6.17203">
        <ele>342</ele>
        <time>2022-06-05T00:30:35Z</time>
      </trkpt>
      <trkpt lat="47.09022" lon="6.17452">
        <ele>347</ele>
        <time>2022-06-05T00:33:43Z</time>
      </trkpt>
      <trkpt lat="47.08945" lon="6.17579">
        <ele>346</ele>
        <time>2022-06-05T00:35:16Z</time>
      </trkpt>
      <trkpt lat="47.08901" lon="6.17695">
        <ele>342</ele>
        <time>2022-06-05T00:36:29Z</time>
      </trkpt>
      <trkpt lat="47.08853" lon="6.17805">
        <ele>344</ele>
        <time>2022-06-05T00:37:40Z</time>
      </trkpt>
      <trkpt lat="47.08798" lon="6.17911">
        <ele>342</ele>
        <time>2022-06-05T00:38:53Z</time>
      </trkpt>
      <trkpt lat="47.0873" lon="6.18004">
        <ele>342</ele>
        <time>2022-06-05T00:40:07Z</time>
      </trkpt>
      <trkpt lat="47.08704" lon="6.18032">
        <ele>343</ele>
        <time>2022-06-05T00:40:33Z</time>
      </trkpt>
      <trkpt lat="47.08646" lon="6.18083">
        <ele>342</ele>
        <time>2022-06-05T00:41:27Z</time>
      </trkpt>
      <trkpt lat="47.08492" lon="6.18174">
        <ele>344</ele>
        <time>2022-06-05T00:43:40Z</time>
      </trkpt>
      <trkpt lat="47.08304" lon="6.18275">
        <ele>346</ele>
        <time>2022-06-05T00:46:21Z</time>
      </trkpt>
      <trkpt lat="47.08266" lon="6.18298">
        <ele>346</ele>
        <time>2022-06-05T00:46:54Z</time>
      </trkpt>
      <trkpt lat="47.08247" lon="6.18312">
        <ele>346</ele>
        <time>2022-06-05T00:47:11Z</time>
      </trkpt>
      <trkpt lat="47.08199" lon="6.18361">
        <ele>352</ele>
        <time>2022-06-05T00:47:57Z</time>
      </trkpt>
      <trkpt lat="47.08181" lon="6.18365">
        <ele>355</ele>
        <time>2022-06-05T00:48:12Z</time>
      </trkpt>
      <trkpt lat="47.08125" lon="6.18485">
        <ele>354</ele>
        <time>2022-06-05T00:49:31Z</time>
      </trkpt>
      <trkpt lat="47.08088" lon="6.1855">
        <ele>349</ele>
        <time>2022-06-05T00:50:18Z</time>
      </trkpt>
      <trkpt lat="47.08075" lon="6.18583">
        <ele>345</ele>
        <time>2022-06-05T00:50:39Z</time>
      </trkpt>
      <trkpt lat="47.08036" lon="6.18639">
        <ele>344</ele>
        <time>2022-06-05T00:51:22Z</time>
      </trkpt>
      <trkpt lat="47.07993" lon="6.18659">
        <ele>341</ele>
        <time>2022-06-05T00:51:58Z</time>
      </trkpt>
      <trkpt lat="47.07981" lon="6.18656">
        <ele>343</ele>
        <time>2022-06-05T00:52:08Z</time>
      </trkpt>
      <trkpt lat="47.07964" lon="6.18636">
        <ele>350</ele>
        <time>2022-06-05T00:52:26Z</time>
      </trkpt>
      <trkpt lat="47.07955" lon="6.1863">
        <ele>352</ele>
        <time>2022-06-05T00:52:34Z</time>
      </trkpt>
      <trkpt lat="47.07673" lon="6.18703">
        <ele>354</ele>
        <time>2022-06-05T00:56:23Z</time>
      </trkpt>
      <trkpt lat="47.07652" lon="6.1871">
        <ele>354</ele>
        <time>2022-06-05T00:56:40Z</time>
      </trkpt>
      <trkpt lat="47.07628" lon="6.18723">
        <ele>353</ele>
        <time>2022-06-05T00:57:01Z</time>
      </trkpt>
      <trkpt lat="47.07614" lon="6.18736">
        <ele>352</ele>
        <time>2022-06-05T00:57:14Z</time>
      </trkpt>
      <trkpt lat="47.07593" lon="6.18769">
        <ele>350</ele>
        <time>2022-06-05T00:57:39Z</time>
      </trkpt>
      <trkpt lat="47.0756" lon="6.18796">
        <ele>353</ele>
        <time>2022-06-05T00:58:09Z</time>
      </trkpt>
      <trkpt lat="47.07473" lon="6.18931">
        <ele>350</ele>
        <time>2022-06-05T00:59:50Z</time>
      </trkpt>
      <trkpt lat="47.0739" lon="6.19023">
        <ele>348</ele>
        <time>2022-06-05T01:01:14Z</time>
      </trkpt>
      <trkpt lat="47.07352" lon="6.19082">
        <ele>347</ele>
        <time>2022-06-05T01:01:58Z</time>
      </trkpt>
      <trkpt lat="47.0729" lon="6.19216">
        <ele>348</ele>
        <time>2022-06-05T01:03:27Z</time>
      </trkpt>
      <trkpt lat="47.07277" lon="6.19231">
        <ele>350</ele>
        <time>2022-06-05T01:03:40Z</time>
      </trkpt>
      <trkpt lat="47.07271" lon="6.19243">
        <ele>350</ele>
        <time>2022-06-05T01:03:48Z</time>
      </trkpt>
      <trkpt lat="47.07271" lon="6.19259">
        <ele>350</ele>
        <time>2022-06-05T01:03:57Z</time>
      </trkpt>
      <trkpt lat="47.07277" lon="6.1929">
        <ele>349</ele>
        <time>2022-06-05T01:04:14Z</time>
      </trkpt>
      <trkpt lat="47.07288" lon="6.19315">
        <ele>348</ele>
        <time>2022-06-05T01:04:31Z</time>
      </trkpt>
      <trkpt lat="47.07304" lon="6.19342">
        <ele>345</ele>
        <time>2022-06-05T01:04:50Z</time>
      </trkpt>
      <trkpt lat="47.07303" lon="6.19357">
        <ele>345</ele>
        <time>2022-06-05T01:04:58Z</time>
      </trkpt>
      <trkpt lat="47.07262" lon="6.19634">
        <ele>349</ele>
        <time>2022-06-05T01:07:33Z</time>
      </trkpt>
      <trkpt lat="47.07174" lon="6.2018">
        <ele>351</ele>
        <time>2022-06-05T01:12:39Z</time>
      </trkpt>
      <trkpt lat="47.07152" lon="6.20245">
        <ele>351</ele>
        <time>2022-06-05T01:13:19Z</time>
      </trkpt>
      <trkpt lat="47.07147" lon="6.20287">
        <ele>350</ele>
        <time>2022-06-05T01:13:42Z</time>
      </trkpt>
      <trkpt lat="47.07115" lon="6.20337">
        <ele>350</ele>
        <time>2022-06-05T01:14:20Z</time>
      </trkpt>
      <trkpt lat="47.07043" lon="6.20395">
        <ele>348</ele>
        <time>2022-06-05T01:15:25Z</time>
      </trkpt>
      <trkpt lat="47.06967" lon="6.20438">
        <ele>346</ele>
        <time>2022-06-05T01:16:31Z</time>
      </trkpt>
      <trkpt lat="47.0692" lon="6.20461">
        <ele>346</ele>
        <time>2022-06-05T01:17:10Z</time>
      </trkpt>
      <trkpt lat="47.06908" lon="6.20437">
        <ele>346</ele>
        <time>2022-06-05T01:17:27Z</time>
      </trkpt>
      <trkpt lat="47.06897" lon="6.20434">
        <ele>347</ele>
        <time>2022-06-05T01:17:36Z</time>
      </trkpt>
      <trkpt lat="47.06874" lon="6.20433">
        <ele>347</ele>
        <time>2022-06-05T01:17:54Z</time>
      </trkpt>
      <trkpt lat="47.06859" lon="6.20437">
        <ele>348</ele>
        <time>2022-06-05T01:18:06Z</time>
      </trkpt>
      <trkpt lat="47.06811" lon="6.20433">
        <ele>349</ele>
        <time>2022-06-05T01:18:45Z</time>
      </trkpt>
      <trkpt lat="47.06797" lon="6.20437">
        <ele>349</ele>
        <time>2022-06-05T01:18:56Z</time>
      </trkpt>
      <trkpt lat="47.06779" lon="6.20462">
        <ele>348</ele>
        <time>2022-06-05T01:19:16Z</time>
      </trkpt>
      <trkpt lat="47.06767" lon="6.20469">
        <ele>348</ele>
        <time>2022-06-05T01:19:27Z</time>
      </trkpt>
      <trkpt lat="47.06758" lon="6.20451">
        <ele>349</ele>
        <time>2022-06-05T01:19:39Z</time>
      </trkpt>
      <trkpt lat="47.06729" lon="6.20409">
        <ele>351</ele>
        <time>2022-06-05T01:20:11Z</time>
      </trkpt>
      <trkpt lat="47.06713" lon="6.20325">
        <ele>356</ele>
        <time>2022-06-05T01:20:59Z</time>
      </trkpt>
      <trkpt lat="47.06699" lon="6.20274">
        <ele>357</ele>
        <time>2022-06-05T01:21:29Z</time>
      </trkpt>
      <trkpt lat="47.06696" lon="6.20251">
        <ele>357</ele>
        <time>2022-06-05T01:21:42Z</time>
      </trkpt>
      <trkpt lat="47.06696" lon="6.20184">
        <ele>357</ele>
        <time>2022-06-05T01:22:18Z</time>
      </trkpt>
      <trkpt lat="47.06702" lon="6.20153">
        <ele>357</ele>
        <time>2022-06-05T01:22:36Z</time>
      </trkpt>
      <trkpt lat="47.06696" lon="6.20124">
        <ele>359</ele>
        <time>2022-06-05T01:22:53Z</time>
      </trkpt>
      <trkpt lat="47.06688" lon="6.20103">
        <ele>359</ele>
        <time>2022-06-05T01:23:06Z</time>
      </trkpt>
      <trkpt lat="47.06579" lon="6.19909">
        <ele>367</ele>
        <time>2022-06-05T01:25:23Z</time>
      </trkpt>
      <trkpt lat="47.06516" lon="6.19789">
        <ele>374</ele>
        <time>2022-06-05T01:26:46Z</time>
      </trkpt>
      <trkpt lat="47.06498" lon="6.19761">
        <ele>373</ele>
        <time>2022-06-05T01:27:07Z</time>
      </trkpt>
      <trkpt lat="47.06487" lon="6.19764">
        <ele>375</ele>
        <time>2022-06-05T01:27:16Z</time>
      </trkpt>
      <trkpt lat="47.06485" lon="6.19834">
        <ele>368</ele>
        <time>2022-06-05T01:27:54Z</time>
      </trkpt>
      <trkpt lat="47.06464" lon="6.19863">
        <ele>371</ele>
        <time>2022-06-05T01:28:17Z</time>
      </trkpt>
      <trkpt lat="47.0641" lon="6.19884">
        <ele>378</ele>
        <time>2022-06-05T01:29:02Z</time>
      </trkpt>
      <trkpt lat="47.06414" lon="6.19902">
        <ele>377</ele>
        <time>2022-06-05T01:29:12Z</time>
      </trkpt>
      <trkpt lat="47.06422" lon="6.19916">
        <ele>375</ele>
        <time>2022-06-05T01:29:22Z</time>
      </trkpt>
      <trkpt lat="47.06473" lon="6.19969">
        <ele>385</ele>
        <time>2022-06-05T01:30:12Z</time>
      </trkpt>
      <trkpt lat="47.06508" lon="6.19993">
        <ele>385</ele>
        <time>2022-06-05T01:30:43Z</time>
      </trkpt>
      <trkpt lat="47.06516" lon="6.20004">
        <ele>386</ele>
        <time>2022-06-05T01:30:52Z</time>
      </trkpt>
      <trkpt lat="47.06514" lon="6.20009">
        <ele>388</ele>
        <time>2022-06-05T01:30:55Z</time>
      </trkpt>
      <trkpt lat="47.06497" lon="6.20002">
        <ele>390</ele>
        <time>2022-06-05T01:31:09Z</time>
      </trkpt>
      <trkpt lat="47.06421" lon="6.19987">
        <ele>397</ele>
        <time>2022-06-05T01:32:11Z</time>
      </trkpt>
      <trkpt lat="47.06402" lon="6.1999">
        <ele>398</ele>
        <time>2022-06-05T01:32:26Z</time>
      </trkpt>
      <trkpt lat="47.06371" lon="6.20002">
        <ele>401</ele>
        <time>2022-06-05T01:32:52Z</time>
      </trkpt>
      <trkpt lat="47.06358" lon="6.19995">
        <ele>398</ele>
        <time>2022-06-05T01:33:03Z</time>
      </trkpt>
      <trkpt lat="47.06353" lon="6.19996">
        <ele>399</ele>
        <time>2022-06-05T01:33:07Z</time>
      </trkpt>
      <trkpt lat="47.06349" lon="6.19999">
        <ele>399</ele>
        <time>2022-06-05T01:33:10Z</time>
      </trkpt>
      <trkpt lat="47.06349" lon="6.20004">
        <ele>401</ele>
        <time>2022-06-05T01:33:13Z</time>
      </trkpt>
      <trkpt lat="47.06352" lon="6.20007">
        <ele>402</ele>
        <time>2022-06-05T01:33:16Z</time>
      </trkpt>
      <trkpt lat="47.06455" lon="6.20037">
        <ele>409</ele>
        <time>2022-06-05T01:34:40Z</time>
      </trkpt>
      <trkpt lat="47.06483" lon="6.20056">
        <ele>410</ele>
        <time>2022-06-05T01:35:05Z</time>
      </trkpt>
      <trkpt lat="47.06496" lon="6.2007">
        <ele>412</ele>
        <time>2022-06-05T01:35:18Z</time>
      </trkpt>
      <trkpt lat="47.0651" lon="6.20093">
        <ele>414</ele>
        <time>2022-06-05T01:35:35Z</time>
      </trkpt>
      <trkpt lat="47.06514" lon="6.20105">
        <ele>415</ele>
        <time>2022-06-05T01:35:42Z</time>
      </trkpt>
      <trkpt lat="47.06515" lon="6.20113">
        <ele>416</ele>
        <time>2022-06-05T01:35:46Z</time>
      </trkpt>
      <trkpt lat="47.06513" lon="6.20116">
        <ele>418</ele>
        <time>2022-06-05T01:35:49Z</time>
      </trkpt>
      <trkpt lat="47.06507" lon="6.20112">
        <ele>419</ele>
        <time>2022-06-05T01:35:54Z</time>
      </trkpt>
      <trkpt lat="47.06495" lon="6.20084">
        <ele>416</ele>
        <time>2022-06-05T01:36:12Z</time>
      </trkpt>
      <trkpt lat="47.06479" lon="6.20071">
        <ele>416</ele>
        <time>2022-06-05T01:36:27Z</time>
      </trkpt>
      <trkpt lat="47.06466" lon="6.20067">
        <ele>417</ele>
        <time>2022-06-05T01:36:37Z</time>
      </trkpt>
      <trkpt lat="47.06422" lon="6.20069">
        <ele>427</ele>
        <time>2022-06-05T01:37:13Z</time>
      </trkpt>
      <trkpt lat="47.06412" lon="6.20067">
        <ele>427</ele>
        <time>2022-06-05T01:37:21Z</time>
      </trkpt>
      <trkpt lat="47.06368" lon="6.20073">
        <ele>427</ele>
        <time>2022-06-05T01:37:56Z</time>
      </trkpt>
      <trkpt lat="47.06305" lon="6.20094">
        <ele>427</ele>
        <time>2022-06-05T01:38:48Z</time>
      </trkpt>
      <trkpt lat="47.06284" lon="6.20104">
        <ele>426</ele>
        <time>2022-06-05T01:39:06Z</time>
      </trkpt>
      <trkpt lat="47.06262" lon="6.20127">
        <ele>427</ele>
        <time>2022-06-05T01:39:27Z</time>
      </trkpt>
      <trkpt lat="47.06245" lon="6.20166">
        <ele>434</ele>
        <time>2022-06-05T01:39:53Z</time>
      </trkpt>
      <trkpt lat="47.06236" lon="6.20175">
        <ele>436</ele>
        <time>2022-06-05T01:40:01Z</time>
      </trkpt>
      <trkpt lat="47.06217" lon="6.20186">
        <ele>438</ele>
        <time>2022-06-05T01:40:18Z</time>
      </trkpt>
      <trkpt lat="47.062" lon="6.20192">
        <ele>439</ele>
        <time>2022-06-05T01:40:32Z</time>
      </trkpt>
      <trkpt lat="47.06172" lon="6.20191">
        <ele>437</ele>
        <time>2022-06-05T01:40:54Z</time>
      </trkpt>
      <trkpt lat="47.0617" lon="6.20193">
        <ele>438</ele>
        <time>2022-06-05T01:40:56Z</time>
      </trkpt>
      <trkpt lat="47.06169" lon="6.20197">
        <ele>440</ele>
        <time>2022-06-05T01:40:58Z</time>
      </trkpt>
      <trkpt lat="47.06173" lon="6.20201">
        <ele>442</ele>
        <time>2022-06-05T01:41:02Z</time>
      </trkpt>
      <trkpt lat="47.06185" lon="6.20204">
        <ele>443</ele>
        <time>2022-06-05T01:41:12Z</time>
      </trkpt>
      <trkpt lat="47.06238" lon="6.20207">
        <ele>444</ele>
        <time>2022-06-05T01:41:55Z</time>
      </trkpt>
      <trkpt lat="47.06274" lon="6.20191">
        <ele>443</ele>
        <time>2022-06-05T01:42:25Z</time>
      </trkpt>
      <trkpt lat="47.06282" lon="6.2019">
        <ele>444</ele>
        <time>2022-06-05T01:42:31Z</time>
      </trkpt>
      <trkpt lat="47.06371" lon="6.20239">
        <ele>451</ele>
        <time>2022-06-05T01:43:47Z</time>
      </trkpt>
      <trkpt lat="47.06379" lon="6.2027">
        <ele>450</ele>
        <time>2022-06-05T01:44:05Z</time>
      </trkpt>
      <trkpt lat="47.06392" lon="6.20276">
        <ele>449</ele>
        <time>2022-06-05T01:44:16Z</time>
      </trkpt>
      <trkpt lat="47.06406" lon="6.20297">
        <ele>446</ele>
        <time>2022-06-05T01:44:32Z</time>
      </trkpt>
      <trkpt lat="47.06406" lon="6.20341">
        <ele>442</ele>
        <time>2022-06-05T01:44:56Z</time>
      </trkpt>
      <trkpt lat="47.06427" lon="6.20392">
        <ele>435</ele>
        <time>2022-06-05T01:45:29Z</time>
      </trkpt>
      <trkpt lat="47.06433" lon="6.20415">
        <ele>431</ele>
        <time>2022-06-05T01:45:42Z</time>
      </trkpt>
      <trkpt lat="47.06436" lon="6.2047">
        <ele>425</ele>
        <time>2022-06-05T01:46:13Z</time>
      </trkpt>
      <trkpt lat="47.0642" lon="6.20553">
        <ele>420</ele>
        <time>2022-06-05T01:47:00Z</time>
      </trkpt>
      <trkpt lat="47.0642" lon="6.20575">
        <ele>416</ele>
        <time>2022-06-05T01:47:12Z</time>
      </trkpt>
      <trkpt lat="47.0638" lon="6.20753">
        <ele>398</ele>
        <time>2022-06-05T01:48:54Z</time>
      </trkpt>
      <trkpt lat="47.06358" lon="6.20896">
        <ele>387</ele>
        <time>2022-06-05T01:50:14Z</time>
      </trkpt>
      <trkpt lat="47.06347" lon="6.21123">
        <ele>365</ele>
        <time>2022-06-05T01:52:18Z</time>
      </trkpt>
      <trkpt lat="47.06348" lon="6.21172">
        <ele>362</ele>
        <time>2022-06-05T01:52:45Z</time>
      </trkpt>
      <trkpt lat="47.0635" lon="6.21249">
        <ele>359</ele>
        <time>2022-06-05T01:53:27Z</time>
      </trkpt>
      <trkpt lat="47.06352" lon="6.21279">
        <ele>358</ele>
        <time>2022-06-05T01:53:44Z</time>
      </trkpt>
      <trkpt lat="47.06356" lon="6.21288">
        <ele>357</ele>
        <time>2022-06-05T01:53:49Z</time>
      </trkpt>
      <trkpt lat="47.0636" lon="6.21329">
        <ele>355</ele>
        <time>2022-06-05T01:54:12Z</time>
      </trkpt>
      <trkpt lat="47.06359" lon="6.21348">
        <ele>354</ele>
        <time>2022-06-05T01:54:22Z</time>
      </trkpt>
      <trkpt lat="47.06368" lon="6.21351">
        <ele>354</ele>
        <time>2022-06-05T01:54:30Z</time>
      </trkpt>
      <trkpt lat="47.06354" lon="6.21386">
        <ele>355</ele>
        <time>2022-06-05T01:54:52Z</time>
      </trkpt>
      <trkpt lat="47.06299" lon="6.21606">
        <ele>360</ele>
        <time>2022-06-05T01:57:00Z</time>
      </trkpt>
      <trkpt lat="47.06294" lon="6.21655">
        <ele>357</ele>
        <time>2022-06-05T01:57:27Z</time>
      </trkpt>
      <trkpt lat="47.06295" lon="6.21731">
        <ele>357</ele>
        <time>2022-06-05T01:58:09Z</time>
      </trkpt>
      <trkpt lat="47.06302" lon="6.21854">
        <ele>357</ele>
        <time>2022-06-05T01:59:16Z</time>
      </trkpt>
      <trkpt lat="47.06302" lon="6.21937">
        <ele>356</ele>
        <time>2022-06-05T02:00:01Z</time>
      </trkpt>
      <trkpt lat="47.06292" lon="6.22017">
        <ele>355</ele>
        <time>2022-06-05T02:00:46Z</time>
      </trkpt>
      <trkpt lat="47.06289" lon="6.22023">
        <ele>355</ele>
        <time>2022-06-05T02:00:50Z</time>
      </trkpt>
      <trkpt lat="47.06284" lon="6.22024">
        <ele>355</ele>
        <time>2022-06-05T02:00:54Z</time>
      </trkpt>
      <trkpt lat="47.06263" lon="6.22014">
        <ele>357</ele>
        <time>2022-06-05T02:01:11Z</time>
      </trkpt>
      <trkpt lat="47.06253" lon="6.21984">
        <ele>359</ele>
        <time>2022-06-05T02:01:30Z</time>
      </trkpt>
      <trkpt lat="47.06249" lon="6.21959">
        <ele>361</ele>
        <time>2022-06-05T02:01:44Z</time>
      </trkpt>
      <trkpt lat="47.06257" lon="6.21925">
        <ele>362</ele>
        <time>2022-06-05T02:02:03Z</time>
      </trkpt>
      <trkpt lat="47.06278" lon="6.21869">
        <ele>361</ele>
        <time>2022-06-05T02:02:38Z</time>
      </trkpt>
      <trkpt lat="47.06278" lon="6.21859">
        <ele>361</ele>
        <time>2022-06-05T02:02:44Z</time>
      </trkpt>
      <trkpt lat="47.06274" lon="6.21854">
        <ele>362</ele>
        <time>2022-06-05T02:02:48Z</time>
      </trkpt>
      <trkpt lat="47.06266" lon="6.21854">
        <ele>364</ele>
        <time>2022-06-05T02:02:54Z</time>
      </trkpt>
      <trkpt lat="47.06248" lon="6.2187">
        <ele>366</ele>
        <time>2022-06-05T02:03:11Z</time>
      </trkpt>
      <trkpt lat="47.06235" lon="6.21875">
        <ele>369</ele>
        <time>2022-06-05T02:03:22Z</time>
      </trkpt>
      <trkpt lat="47.06219" lon="6.21892">
        <ele>372</ele>
        <time>2022-06-05T02:03:38Z</time>
      </trkpt>
      <trkpt lat="47.06184" lon="6.21952">
        <ele>373</ele>
        <time>2022-06-05T02:04:21Z</time>
      </trkpt>
      <trkpt lat="47.06172" lon="6.21984">
        <ele>371</ele>
        <time>2022-06-05T02:04:41Z</time>
      </trkpt>
      <trkpt lat="47.06164" lon="6.21996">
        <ele>371</ele>
        <time>2022-06-05T02:04:50Z</time>
      </trkpt>
      <trkpt lat="47.06145" lon="6.22">
        <ele>377</ele>
        <time>2022-06-05T02:05:05Z</time>
      </trkpt>
      <trkpt lat="47.06139" lon="6.21995">
        <ele>380</ele>
        <time>2022-06-05T02:05:11Z</time>
      </trkpt>
      <trkpt lat="47.06101" lon="6.22014">
        <ele>389</ele>
        <time>2022-06-05T02:05:43Z</time>
      </trkpt>
      <trkpt lat="47.06074" lon="6.22031">
        <ele>392</ele>
        <time>2022-06-05T02:06:07Z</time>
      </trkpt>
      <trkpt lat="47.06026" lon="6.22075">
        <ele>393</ele>
        <time>2022-06-05T02:06:52Z</time>
      </trkpt>
      <trkpt lat="47.05978" lon="6.2211">
        <ele>398</ele>
        <time>2022-06-05T02:07:35Z</time>
      </trkpt>
      <trkpt lat="47.05943" lon="6.22164">
        <ele>395</ele>
        <time>2022-06-05T02:08:16Z</time>
      </trkpt>
      <trkpt lat="47.059" lon="6.22202">
        <ele>393</ele>
        <time>2022-06-05T02:08:56Z</time>
      </trkpt>
      <trkpt lat="47.05874" lon="6.2222">
        <ele>393</ele>
        <time>2022-06-05T02:09:19Z</time>
      </trkpt>
      <trkpt lat="47.05814" lon="6.2224">
        <ele>399</ele>
        <time>2022-06-05T02:10:08Z</time>
      </trkpt>
      <trkpt lat="47.05768" lon="6.22266">
        <ele>402</ele>
        <time>2022-06-05T02:10:48Z</time>
      </trkpt>
      <trkpt lat="47.05686" lon="6.22333">
        <ele>417</ele>
        <time>2022-06-05T02:12:03Z</time>
      </trkpt>
      <trkpt lat="47.0563" lon="6.22388">
        <ele>424</ele>
        <time>2022-06-05T02:12:57Z</time>
      </trkpt>
      <trkpt lat="47.0558" lon="6.22443">
        <ele>428</ele>
        <time>2022-06-05T02:13:47Z</time>
      </trkpt>
      <trkpt lat="47.05544" lon="6.22471">
        <ele>430</ele>
        <time>2022-06-05T02:14:20Z</time>
      </trkpt>
      <trkpt lat="47.05486" lon="6.22504">
        <ele>438</ele>
        <time>2022-06-05T02:15:10Z</time>
      </trkpt>
      <trkpt lat="47.05473" lon="6.22518">
        <ele>440</ele>
        <time>2022-06-05T02:15:22Z</time>
      </trkpt>
      <trkpt lat="47.05378" lon="6.22683">
        <ele>430</ele>
        <time>2022-06-05T02:17:20Z</time>
      </trkpt>
      <trkpt lat="47.05355" lon="6.22706">
        <ele>430</ele>
        <time>2022-06-05T02:17:43Z</time>
      </trkpt>
      <trkpt lat="47.05304" lon="6.22741">
        <ele>437</ele>
        <time>2022-06-05T02:18:28Z</time>
      </trkpt>
      <trkpt lat="47.05287" lon="6.22757">
        <ele>441</ele>
        <time>2022-06-05T02:18:44Z</time>
      </trkpt>
      <trkpt lat="47.05276" lon="6.22772">
        <ele>442</ele>
        <time>2022-06-05T02:18:56Z</time>
      </trkpt>
      <trkpt lat="47.05266" lon="6.22793">
        <ele>440</ele>
        <time>2022-06-05T02:19:10Z</time>
      </trkpt>
      <trkpt lat="47.05262" lon="6.22809">
        <ele>437</ele>
        <time>2022-06-05T02:19:19Z</time>
      </trkpt>
      <trkpt lat="47.0526" lon="6.2288">
        <ele>425</ele>
        <time>2022-06-05T02:19:58Z</time>
      </trkpt>
      <trkpt lat="47.05255" lon="6.22914">
        <ele>422</ele>
        <time>2022-06-05T02:20:17Z</time>
      </trkpt>
      <trkpt lat="47.05247" lon="6.22935">
        <ele>421</ele>
        <time>2022-06-05T02:20:30Z</time>
      </trkpt>
      <trkpt lat="47.05232" lon="6.22957">
        <ele>419</ele>
        <time>2022-06-05T02:20:47Z</time>
      </trkpt>
      <trkpt lat="47.05208" lon="6.22973">
        <ele>417</ele>
        <time>2022-06-05T02:21:08Z</time>
      </trkpt>
      <trkpt lat="47.05162" lon="6.22984">
        <ele>416</ele>
        <time>2022-06-05T02:21:46Z</time>
      </trkpt>
      <trkpt lat="47.0515" lon="6.2299">
        <ele>417</ele>
        <time>2022-06-05T02:21:56Z</time>
      </trkpt>
      <trkpt lat="47.05126" lon="6.23014">
        <ele>414</ele>
        <time>2022-06-05T02:22:19Z</time>
      </trkpt>
      <trkpt lat="47.05109" lon="6.23038">
        <ele>410</ele>
        <time>2022-06-05T02:22:38Z</time>
      </trkpt>
      <trkpt lat="47.05099" lon="6.2307">
        <ele>401</ele>
        <time>2022-06-05T02:22:57Z</time>
      </trkpt>
      <trkpt lat="47.05096" lon="6.2312">
        <ele>392</ele>
        <time>2022-06-05T02:23:25Z</time>
      </trkpt>
      <trkpt lat="47.05088" lon="6.23148">
        <ele>390</ele>
        <time>2022-06-05T02:23:41Z</time>
      </trkpt>
      <trkpt lat="47.05066" lon="6.23182">
        <ele>391</ele>
        <time>2022-06-05T02:24:07Z</time>
      </trkpt>
      <trkpt lat="47.05051" lon="6.23223">
        <ele>387</ele>
        <time>2022-06-05T02:24:32Z</time>
      </trkpt>
      <trkpt lat="47.05025" lon="6.2328">
        <ele>382</ele>
        <time>2022-06-05T02:25:10Z</time>
      </trkpt>
      <trkpt lat="47.04991" lon="6.23332">
        <ele>382</ele>
        <time>2022-06-05T02:25:49Z</time>
      </trkpt>
      <trkpt lat="47.04967" lon="6.23424">
        <ele>379</ele>
        <time>2022-06-05T02:26:43Z</time>
      </trkpt>
      <trkpt lat="47.04933" lon="6.23477">
        <ele>383</ele>
        <time>2022-06-05T02:27:23Z</time>
      </trkpt>
      <trkpt lat="47.04932" lon="6.23486">
        <ele>382</ele>
        <time>2022-06-05T02:27:28Z</time>
      </trkpt>
      <trkpt lat="47.0494" lon="6.23545">
        <ele>374</ele>
        <time>2022-06-05T02:28:01Z</time>
      </trkpt>
      <trkpt lat="47.04924" lon="6.23621">
        <ele>368</ele>
        <time>2022-06-05T02:28:44Z</time>
      </trkpt>
      <trkpt lat="47.04918" lon="6.23634">
        <ele>367</ele>
        <time>2022-06-05T02:28:53Z</time>
      </trkpt>
      <trkpt lat="47.04901" lon="6.23653">
        <ele>364</ele>
        <time>2022-06-05T02:29:10Z</time>
      </trkpt>
      <trkpt lat="47.04875" lon="6.23666">
        <ele>362</ele>
        <time>2022-06-05T02:29:32Z</time>
      </trkpt>
      <trkpt lat="47.04863" lon="6.23667">
        <ele>361</ele>
        <time>2022-06-05T02:29:41Z</time>
      </trkpt>
      <trkpt lat="47.04832" lon="6.23661">
        <ele>363</ele>
        <time>2022-06-05T02:30:06Z</time>
      </trkpt>
      <trkpt lat="47.0479" lon="6.23637">
        <ele>371</ele>
        <time>2022-06-05T02:30:43Z</time>
      </trkpt>
      <trkpt lat="47.04773" lon="6.23629">
        <ele>373</ele>
        <time>2022-06-05T02:30:57Z</time>
      </trkpt>
      <trkpt lat="47.04757" lon="6.23625">
        <ele>375</ele>
        <time>2022-06-05T02:31:10Z</time>
      </trkpt>
      <trkpt lat="47.04738" lon="6.23626">
        <ele>374</ele>
        <time>2022-06-05T02:31:25Z</time>
      </trkpt>
      <trkpt lat="47.04718" lon="6.23637">
        <ele>370</ele>
        <time>2022-06-05T02:31:42Z</time>
      </trkpt>
      <trkpt lat="47.04703" lon="6.23649">
        <ele>366</ele>
        <time>2022-06-05T02:31:56Z</time>
      </trkpt>
      <trkpt lat="47.04685" lon="6.23668">
        <ele>361</ele>
        <time>2022-06-05T02:32:14Z</time>
      </trkpt>
      <trkpt lat="47.04651" lon="6.23729">
        <ele>362</ele>
        <time>2022-06-05T02:32:57Z</time>
      </trkpt>
      <trkpt lat="47.04623" lon="6.23825">
        <ele>363</ele>
        <time>2022-06-05T02:33:54Z</time>
      </trkpt>
      <trkpt lat="47.04619" lon="6.23829">
        <ele>363</ele>
        <time>2022-06-05T02:33:58Z</time>
      </trkpt>
      <trkpt lat="47.04586" lon="6.23955">
        <ele>361</ele>
        <time>2022-06-05T02:35:11Z</time>
      </trkpt>
      <trkpt lat="47.04572" lon="6.2398">
        <ele>362</ele>
        <time>2022-06-05T02:35:29Z</time>
      </trkpt>
      <trkpt lat="47.04556" lon="6.23996">
        <ele>364</ele>
        <time>2022-06-05T02:35:45Z</time>
      </trkpt>
      <trkpt lat="47.04548" lon="6.23996">
        <ele>365</ele>
        <time>2022-06-05T02:35:51Z</time>
      </trkpt>
      <trkpt lat="47.04541" lon="6.2399">
        <ele>367</ele>
        <time>2022-06-05T02:35:57Z</time>
      </trkpt>
      <trkpt lat="47.04537" lon="6.24003">
        <ele>366</ele>
        <time>2022-06-05T02:36:05Z</time>
      </trkpt>
      <trkpt lat="47.04515" lon="6.24033">
        <ele>366</ele>
        <time>2022-06-05T02:36:29Z</time>
      </trkpt>
      <trkpt lat="47.04498" lon="6.24047">
        <ele>365</ele>
        <time>2022-06-05T02:36:45Z</time>
      </trkpt>
      <trkpt lat="47.04462" lon="6.24068">
        <ele>370</ele>
        <time>2022-06-05T02:37:16Z</time>
      </trkpt>
      <trkpt lat="47.04449" lon="6.2408">
        <ele>372</ele>
        <time>2022-06-05T02:37:28Z</time>
      </trkpt>
      <trkpt lat="47.04428" lon="6.24121">
        <ele>372</ele>
        <time>2022-06-05T02:37:56Z</time>
      </trkpt>
      <trkpt lat="47.04417" lon="6.24173">
        <ele>367</ele>
        <time>2022-06-05T02:38:26Z</time>
      </trkpt>
      <trkpt lat="47.04405" lon="6.2425">
        <ele>371</ele>
        <time>2022-06-05T02:39:09Z</time>
      </trkpt>
      <trkpt lat="47.04376" lon="6.24333">
        <ele>381</ele>
        <time>2022-06-05T02:40:00Z</time>
      </trkpt>
      <trkpt lat="47.04365" lon="6.24381">
        <ele>382</ele>
        <time>2022-06-05T02:40:28Z</time>
      </trkpt>
      <trkpt lat="47.04363" lon="6.24411">
        <ele>381</ele>
        <time>2022-06-05T02:40:44Z</time>
      </trkpt>
      <trkpt lat="47.04372" lon="6.2445">
        <ele>377</ele>
        <time>2022-06-05T02:41:07Z</time>
      </trkpt>
      <trkpt lat="47.04374" lon="6.24523">
        <ele>375</ele>
        <time>2022-06-05T02:41:47Z</time>
      </trkpt>
      <trkpt lat="47.04368" lon="6.24575">
        <ele>378</ele>
        <time>2022-06-05T02:42:15Z</time>
      </trkpt>
      <trkpt lat="47.0437" lon="6.24615">
        <ele>380</ele>
        <time>2022-06-05T02:42:37Z</time>
      </trkpt>
      <trkpt lat="47.04384" lon="6.24692">
        <ele>383</ele>
        <time>2022-06-05T02:43:21Z</time>
      </trkpt>
      <trkpt lat="47.04383" lon="6.24751">
        <ele>385</ele>
        <time>2022-06-05T02:43:53Z</time>
      </trkpt>
      <trkpt lat="47.04372" lon="6.24855">
        <ele>387</ele>
        <time>2022-06-05T02:44:51Z</time>
      </trkpt>
      <trkpt lat="47.04348" lon="6.24922">
        <ele>386</ele>
        <time>2022-06-05T02:45:32Z</time>
      </trkpt>
      <trkpt lat="47.04336" lon="6.24934">
        <ele>386</ele>
        <time>2022-06-05T02:45:44Z</time>
      </trkpt>
      <trkpt lat="47.04334" lon="6.24952">
        <ele>383</ele>
        <time>2022-06-05T02:45:54Z</time>
      </trkpt>
      <trkpt lat="47.04361" lon="6.25009">
        <ele>378</ele>
        <time>2022-06-05T02:46:31Z</time>
      </trkpt>
      <trkpt lat="47.0435" lon="6.25029">
        <ele>377</ele>
        <time>2022-06-05T02:46:46Z</time>
      </trkpt>
      <trkpt lat="47.04365" lon="6.25066">
        <ele>383</ele>
        <time>2022-06-05T02:47:09Z</time>
      </trkpt>
      <trkpt lat="47.04389" lon="6.25036">
        <ele>385</ele>
        <time>2022-06-05T02:47:34Z</time>
      </trkpt>
      <trkpt lat="47.04387" lon="6.25044">
        <ele>386</ele>
        <time>2022-06-05T02:47:39Z</time>
      </trkpt>
      <trkpt lat="47.04362" lon="6.25079">
        <ele>383</ele>
        <time>2022-06-05T02:48:07Z</time>
      </trkpt>
      <trkpt lat="47.04359" lon="6.25091">
        <ele>383</ele>
        <time>2022-06-05T02:48:14Z</time>
      </trkpt>
      <trkpt lat="47.04357" lon="6.25129">
        <ele>387</ele>
        <time>2022-06-05T02:48:34Z</time>
      </trkpt>
      <trkpt lat="47.04344" lon="6.25149">
        <ele>386</ele>
        <time>2022-06-05T02:48:50Z</time>
      </trkpt>
      <trkpt lat="47.04349" lon="6.25154">
        <ele>388</ele>
        <time>2022-06-05T02:48:54Z</time>
      </trkpt>
      <trkpt lat="47.04354" lon="6.25149">
        <ele>389</ele>
        <time>2022-06-05T02:48:59Z</time>
      </trkpt>
      <trkpt lat="47.04374" lon="6.25141">
        <ele>393</ele>
        <time>2022-06-05T02:49:16Z</time>
      </trkpt>
      <trkpt lat="47.0438" lon="6.25135">
        <ele>394</ele>
        <time>2022-06-05T02:49:22Z</time>
      </trkpt>
      <trkpt lat="47.04385" lon="6.25128">
        <ele>395</ele>
        <time>2022-06-05T02:49:27Z</time>
      </trkpt>
      <trkpt lat="47.04404" lon="6.25075">
        <ele>394</ele>
        <time>2022-06-05T02:50:00Z</time>
      </trkpt>
      <trkpt lat="47.04449" lon="6.25038">
        <ele>404</ele>
        <time>2022-06-05T02:50:41Z</time>
      </trkpt>
      <trkpt lat="47.04465" lon="6.24996">
        <ele>405</ele>
        <time>2022-06-05T02:51:08Z</time>
      </trkpt>
      <trkpt lat="47.04471" lon="6.24967">
        <ele>402</ele>
        <time>2022-06-05T02:51:24Z</time>
      </trkpt>
      <trkpt lat="47.04483" lon="6.24943">
        <ele>403</ele>
        <time>2022-06-05T02:51:40Z</time>
      </trkpt>
      <trkpt lat="47.04505" lon="6.24914">
        <ele>406</ele>
        <time>2022-06-05T02:52:04Z</time>
      </trkpt>
      <trkpt lat="47.04516" lon="6.24894">
        <ele>408</ele>
        <time>2022-06-05T02:52:18Z</time>
      </trkpt>
      <trkpt lat="47.04533" lon="6.24845">
        <ele>408</ele>
        <time>2022-06-05T02:52:48Z</time>
      </trkpt>
      <trkpt lat="47.04553" lon="6.24857">
        <ele>415</ele>
        <time>2022-06-05T02:53:05Z</time>
      </trkpt>
      <trkpt lat="47.04592" lon="6.24869">
        <ele>428</ele>
        <time>2022-06-05T02:53:37Z</time>
      </trkpt>
      <trkpt lat="47.04599" lon="6.24868">
        <ele>429</ele>
        <time>2022-06-05T02:53:43Z</time>
      </trkpt>
      <trkpt lat="47.04625" lon="6.24853">
        <ele>434</ele>
        <time>2022-06-05T02:54:05Z</time>
      </trkpt>
      <trkpt lat="47.04652" lon="6.24846">
        <ele>442</ele>
        <time>2022-06-05T02:54:27Z</time>
      </trkpt>
      <trkpt lat="47.04676" lon="6.24872">
        <ele>451</ele>
        <time>2022-06-05T02:54:51Z</time>
      </trkpt>
      <trkpt lat="47.04715" lon="6.24941">
        <ele>463</ele>
        <time>2022-06-05T02:55:40Z</time>
      </trkpt>
      <trkpt lat="47.04705" lon="6.24941">
        <ele>462</ele>
        <time>2022-06-05T02:55:48Z</time>
      </trkpt>
      <trkpt lat="47.0468" lon="6.24928">
        <ele>457</ele>
        <time>2022-06-05T02:56:10Z</time>
      </trkpt>
      <trkpt lat="47.04674" lon="6.24931">
        <ele>457</ele>
        <time>2022-06-05T02:56:15Z</time>
      </trkpt>
      <trkpt lat="47.04673" lon="6.24939">
        <ele>458</ele>
        <time>2022-06-05T02:56:19Z</time>
      </trkpt>
      <trkpt lat="47.0468" lon="6.2495">
        <ele>461</ele>
        <time>2022-06-05T02:56:27Z</time>
      </trkpt>
      <trkpt lat="47.04719" lon="6.2499">
        <ele>466</ele>
        <time>2022-06-05T02:57:05Z</time>
      </trkpt>
      <trkpt lat="47.04728" lon="6.2501">
        <ele>467</ele>
        <time>2022-06-05T02:57:19Z</time>
      </trkpt>
      <trkpt lat="47.04728" lon="6.25016">
        <ele>467</ele>
        <time>2022-06-05T02:57:22Z</time>
      </trkpt>
      <trkpt lat="47.04726" lon="6.2502">
        <ele>468</ele>
        <time>2022-06-05T02:57:24Z</time>
      </trkpt>
      <trkpt lat="47.04722" lon="6.25021">
        <ele>468</ele>
        <time>2022-06-05T02:57:28Z</time>
      </trkpt>
      <trkpt lat="47.04702" lon="6.25014">
        <ele>469</ele>
        <time>2022-06-05T02:57:44Z</time>
      </trkpt>
      <trkpt lat="47.04692" lon="6.25018">
        <ele>469</ele>
        <time>2022-06-05T02:57:53Z</time>
      </trkpt>
      <trkpt lat="47.04686" lon="6.25026">
        <ele>470</ele>
        <time>2022-06-05T02:57:59Z</time>
      </trkpt>
      <trkpt lat="47.04685" lon="6.25065">
        <ele>471</ele>
        <time>2022-06-05T02:58:20Z</time>
      </trkpt>
      <trkpt lat="47.0469" lon="6.25123">
        <ele>471</ele>
        <time>2022-06-05T02:58:52Z</time>
      </trkpt>
      <trkpt lat="47.04708" lon="6.25179">
        <ele>472</ele>
        <time>2022-06-05T02:59:26Z</time>
      </trkpt>
      <trkpt lat="47.04716" lon="6.25243">
        <ele>474</ele>
        <time>2022-06-05T03:00:02Z</time>
      </trkpt>
      <trkpt lat="47.04716" lon="6.25304">
        <ele>478</ele>
        <time>2022-06-05T03:00:35Z</time>
      </trkpt>
      <trkpt lat="47.04712" lon="6.25337">
        <ele>480</ele>
        <time>2022-06-05T03:00:53Z</time>
      </trkpt>
      <trkpt lat="47.04698" lon="6.25355">
        <ele>481</ele>
        <time>2022-06-05T03:01:08Z</time>
      </trkpt>
      <trkpt lat="47.0466" lon="6.25385">
        <ele>485</ele>
        <time>2022-06-05T03:01:43Z</time>
      </trkpt>
      <trkpt lat="47.04635" lon="6.25427">
        <ele>492</ele>
        <time>2022-06-05T03:02:13Z</time>
      </trkpt>
      <trkpt lat="47.04637" lon="6.25444">
        <ele>493</ele>
        <time>2022-06-05T03:02:23Z</time>
      </trkpt>
      <trkpt lat="47.04635" lon="6.25468">
        <ele>496</ele>
        <time>2022-06-05T03:02:36Z</time>
      </trkpt>
      <trkpt lat="47.04621" lon="6.25499">
        <ele>501</ele>
        <time>2022-06-05T03:02:56Z</time>
      </trkpt>
      <trkpt lat="47.04616" lon="6.25605">
        <ele>515</ele>
        <time>2022-06-05T03:03:54Z</time>
      </trkpt>
      <trkpt lat="47.0462" lon="6.25678">
        <ele>521</ele>
        <time>2022-06-05T03:04:34Z</time>
      </trkpt>
      <trkpt lat="47.04642" lon="6.25787">
        <ele>529</ele>
        <time>2022-06-05T03:05:36Z</time>
      </trkpt>
      <trkpt lat="47.04668" lon="6.25835">
        <ele>534</ele>
        <time>2022-06-05T03:06:10Z</time>
      </trkpt>
      <trkpt lat="47.04725" lon="6.25924">
        <ele>547</ele>
        <time>2022-06-05T03:07:16Z</time>
      </trkpt>
      <trkpt lat="47.04734" lon="6.25949">
        <ele>549</ele>
        <time>2022-06-05T03:07:32Z</time>
      </trkpt>
      <trkpt lat="47.04754" lon="6.25976">
        <ele>554</ele>
        <time>2022-06-05T03:07:54Z</time>
      </trkpt>
      <trkpt lat="47.04804" lon="6.26035">
        <ele>564</ele>
        <time>2022-06-05T03:08:45Z</time>
      </trkpt>
      <trkpt lat="47.04871" lon="6.26092">
        <ele>577</ele>
        <time>2022-06-05T03:09:47Z</time>
      </trkpt>
      <trkpt lat="47.04929" lon="6.26146">
        <ele>586</ele>
        <time>2022-06-05T03:10:42Z</time>
      </trkpt>
      <trkpt lat="47.0497" lon="6.26193">
        <ele>590</ele>
        <time>2022-06-05T03:11:24Z</time>
      </trkpt>
      <trkpt lat="47.05033" lon="6.26276">
        <ele>595</ele>
        <time>2022-06-05T03:12:32Z</time>
      </trkpt>
      <trkpt lat="47.05076" lon="6.26343">
        <ele>601</ele>
        <time>2022-06-05T03:13:22Z</time>
      </trkpt>
      <trkpt lat="47.05102" lon="6.26405">
        <ele>598</ele>
        <time>2022-06-05T03:14:02Z</time>
      </trkpt>
      <trkpt lat="47.05128" lon="6.2649">
        <ele>595</ele>
        <time>2022-06-05T03:14:53Z</time>
      </trkpt>
      <trkpt lat="47.05134" lon="6.26541">
        <ele>597</ele>
        <time>2022-06-05T03:15:21Z</time>
      </trkpt>
      <trkpt lat="47.05151" lon="6.26583">
        <ele>601</ele>
        <time>2022-06-05T03:15:48Z</time>
      </trkpt>
      <trkpt lat="47.05158" lon="6.26617">
        <ele>605</ele>
        <time>2022-06-05T03:16:07Z</time>
      </trkpt>
      <trkpt lat="47.05151" lon="6.26618">
        <ele>605</ele>
        <time>2022-06-05T03:16:13Z</time>
      </trkpt>
      <trkpt lat="47.05141" lon="6.26804">
        <ele>632</ele>
        <time>2022-06-05T03:17:55Z</time>
      </trkpt>
      <trkpt lat="47.05154" lon="6.26838">
        <ele>638</ele>
        <time>2022-06-05T03:18:16Z</time>
      </trkpt>
      <trkpt lat="47.05175" lon="6.26925">
        <ele>648</ele>
        <time>2022-06-05T03:19:06Z</time>
      </trkpt>
      <trkpt lat="47.05177" lon="6.26947">
        <ele>649</ele>
        <time>2022-06-05T03:19:18Z</time>
      </trkpt>
      <trkpt lat="47.05175" lon="6.26976">
        <ele>652</ele>
        <time>2022-06-05T03:19:34Z</time>
      </trkpt>
      <trkpt lat="47.05164" lon="6.27025">
        <ele>655</ele>
        <time>2022-06-05T03:20:02Z</time>
      </trkpt>
      <trkpt lat="47.05151" lon="6.2711">
        <ele>661</ele>
        <time>2022-06-05T03:20:50Z</time>
      </trkpt>
      <trkpt lat="47.05137" lon="6.27152">
        <ele>664</ele>
        <time>2022-06-05T03:21:16Z</time>
      </trkpt>
      <trkpt lat="47.05134" lon="6.27173">
        <ele>666</ele>
        <time>2022-06-05T03:21:27Z</time>
      </trkpt>
      <trkpt lat="47.05131" lon="6.27217">
        <ele>672</ele>
        <time>2022-06-05T03:21:51Z</time>
      </trkpt>
      <trkpt lat="47.05122" lon="6.27283">
        <ele>679</ele>
        <time>2022-06-05T03:22:28Z</time>
      </trkpt>
      <trkpt lat="47.05108" lon="6.27492">
        <ele>700</ele>
        <time>2022-06-05T03:24:23Z</time>
      </trkpt>
      <trkpt lat="47.05087" lon="6.27565">
        <ele>712</ele>
        <time>2022-06-05T03:25:06Z</time>
      </trkpt>
      <trkpt lat="47.05055" lon="6.27629">
        <ele>719</ele>
        <time>2022-06-05T03:25:49Z</time>
      </trkpt>
      <trkpt lat="47.05029" lon="6.27671">
        <ele>724</ele>
        <time>2022-06-05T03:26:20Z</time>
      </trkpt>
      <trkpt lat="47.04943" lon="6.2779">
        <ele>740</ele>
        <time>2022-06-05T03:27:55Z</time>
      </trkpt>
      <trkpt lat="47.04914" lon="6.27824">
        <ele>744</ele>
        <time>2022-06-05T03:28:25Z</time>
      </trkpt>
      <trkpt lat="47.04891" lon="6.27863">
        <ele>751</ele>
        <time>2022-06-05T03:28:53Z</time>
      </trkpt>
      <trkpt lat="47.04828" lon="6.27918">
        <ele>752</ele>
        <time>2022-06-05T03:29:52Z</time>
      </trkpt>
      <trkpt lat="47.04805" lon="6.27987">
        <ele>755</ele>
        <time>2022-06-05T03:30:34Z</time>
      </trkpt>
      <trkpt lat="47.04793" lon="6.28061">
        <ele>766</ele>
        <time>2022-06-05T03:31:15Z</time>
      </trkpt>
      <trkpt lat="47.04746" lon="6.28228">
        <ele>772</ele>
        <time>2022-06-05T03:32:54Z</time>
      </trkpt>
      <trkpt lat="47.04744" lon="6.28245">
        <ele>773</ele>
        <time>2022-06-05T03:33:03Z</time>
      </trkpt>
      <trkpt lat="47.04768" lon="6.28347">
        <ele>791</ele>
        <time>2022-06-05T03:34:02Z</time>
      </trkpt>
      <trkpt lat="47.04775" lon="6.28357">
        <ele>794</ele>
        <time>2022-06-05T03:34:10Z</time>
      </trkpt>
      <trkpt lat="47.04774" lon="6.28351">
        <ele>793</ele>
        <time>2022-06-05T03:34:14Z</time>
      </trkpt>
      <trkpt lat="47.04806" lon="6.28358">
        <ele>805</ele>
        <time>2022-06-05T03:34:40Z</time>
      </trkpt>
      <trkpt lat="47.04813" lon="6.28374">
        <ele>807</ele>
        <time>2022-06-05T03:34:50Z</time>
      </trkpt>
      <trkpt lat="47.04836" lon="6.2847">
        <ele>812</ele>
        <time>2022-06-05T03:35:46Z</time>
      </trkpt>
      <trkpt lat="47.04855" lon="6.28526">
        <ele>820</ele>
        <time>2022-06-05T03:36:20Z</time>
      </trkpt>
      <trkpt lat="47.04861" lon="6.2859">
        <ele>822</ele>
        <time>2022-06-05T03:36:55Z</time>
      </trkpt>
      <trkpt lat="47.04859" lon="6.28604">
        <ele>821</ele>
        <time>2022-06-05T03:37:03Z</time>
      </trkpt>
      <trkpt lat="47.04845" lon="6.28622">
        <ele>816</ele>
        <time>2022-06-05T03:37:18Z</time>
      </trkpt>
      <trkpt lat="47.04868" lon="6.28631">
        <ele>822</ele>
        <time>2022-06-05T03:37:37Z</time>
      </trkpt>
      <trkpt lat="47.04883" lon="6.28648">
        <ele>824</ele>
        <time>2022-06-05T03:37:52Z</time>
      </trkpt>
      <trkpt lat="47.04889" lon="6.28645">
        <ele>826</ele>
        <time>2022-06-05T03:37:57Z</time>
      </trkpt>
      <trkpt lat="47.0491" lon="6.28663">
        <ele>830</ele>
        <time>2022-06-05T03:38:17Z</time>
      </trkpt>
      <trkpt lat="47.0492" lon="6.28665">
        <ele>832</ele>
        <time>2022-06-05T03:38:25Z</time>
      </trkpt>
      <trkpt lat="47.04929" lon="6.28662">
        <ele>835</ele>
        <time>2022-06-05T03:38:32Z</time>
      </trkpt>
      <trkpt lat="47.04932" lon="6.28558">
        <ele>844</ele>
        <time>2022-06-05T03:39:29Z</time>
      </trkpt>
      <trkpt lat="47.04944" lon="6.28531">
        <ele>847</ele>
        <time>2022-06-05T03:39:46Z</time>
      </trkpt>
      <trkpt lat="47.04944" lon="6.2851">
        <ele>848</ele>
        <time>2022-06-05T03:39:58Z</time>
      </trkpt>
      <trkpt lat="47.04948" lon="6.28499">
        <ele>849</ele>
        <time>2022-06-05T03:40:05Z</time>
      </trkpt>
      <trkpt lat="47.04934" lon="6.28407">
        <ele>851</ele>
        <time>2022-06-05T03:40:56Z</time>
      </trkpt>
      <trkpt lat="47.04933" lon="6.28382">
        <ele>853</ele>
        <time>2022-06-05T03:41:10Z</time>
      </trkpt>
      <trkpt lat="47.04925" lon="6.28354">
        <ele>854</ele>
        <time>2022-06-05T03:41:26Z</time>
      </trkpt>
      <trkpt lat="47.04919" lon="6.28308">
        <ele>857</ele>
        <time>2022-06-05T03:41:52Z</time>
      </trkpt>
      <trkpt lat="47.04931" lon="6.282">
        <ele>859</ele>
        <time>2022-06-05T03:42:52Z</time>
      </trkpt>
      <trkpt lat="47.04957" lon="6.28072">
        <ele>850</ele>
        <time>2022-06-05T03:44:05Z</time>
      </trkpt>
      <trkpt lat="47.04963" lon="6.28013">
        <ele>842</ele>
        <time>2022-06-05T03:44:37Z</time>
      </trkpt>
      <trkpt lat="47.04956" lon="6.27963">
        <ele>823</ele>
        <time>2022-06-05T03:45:05Z</time>
      </trkpt>
      <trkpt lat="47.04984" lon="6.27947">
        <ele>829</ele>
        <time>2022-06-05T03:45:29Z</time>
      </trkpt>
      <trkpt lat="47.0502" lon="6.27888">
        <ele>815</ele>
        <time>2022-06-05T03:46:13Z</time>
      </trkpt>
      <trkpt lat="47.05045" lon="6.27864">
        <ele>811</ele>
        <time>2022-06-05T03:46:36Z</time>
      </trkpt>
      <trkpt lat="47.05063" lon="6.27852">
        <ele>811</ele>
        <time>2022-06-05T03:46:52Z</time>
      </trkpt>
      <trkpt lat="47.05098" lon="6.27852">
        <ele>819</ele>
        <time>2022-06-05T03:47:20Z</time>
      </trkpt>
      <trkpt lat="47.05106" lon="6.27849">
        <ele>818</ele>
        <time>2022-06-05T03:47:27Z</time>
      </trkpt>
      <trkpt lat="47.05113" lon="6.2784">
        <ele>817</ele>
        <time>2022-06-05T03:47:34Z</time>
      </trkpt>
      <trkpt lat="47.05134" lon="6.2779">
        <ele>807</ele>
        <time>2022-06-05T03:48:07Z</time>
      </trkpt>
      <trkpt lat="47.05169" lon="6.27758">
        <ele>812</ele>
        <time>2022-06-05T03:48:40Z</time>
      </trkpt>
      <trkpt lat="47.05206" lon="6.27702">
        <ele>802</ele>
        <time>2022-06-05T03:49:22Z</time>
      </trkpt>
      <trkpt lat="47.05214" lon="6.27706">
        <ele>805</ele>
        <time>2022-06-05T03:49:29Z</time>
      </trkpt>
      <trkpt lat="47.05239" lon="6.27687">
        <ele>808</ele>
        <time>2022-06-05T03:49:52Z</time>
      </trkpt>
      <trkpt lat="47.05267" lon="6.27672">
        <ele>808</ele>
        <time>2022-06-05T03:50:15Z</time>
      </trkpt>
      <trkpt lat="47.05307" lon="6.27605">
        <ele>794</ele>
        <time>2022-06-05T03:51:04Z</time>
      </trkpt>
      <trkpt lat="47.05308" lon="6.27586">
        <ele>791</ele>
        <time>2022-06-05T03:51:14Z</time>
      </trkpt>
      <trkpt lat="47.0529" lon="6.27565">
        <ele>783</ele>
        <time>2022-06-05T03:51:33Z</time>
      </trkpt>
      <trkpt lat="47.05267" lon="6.27561">
        <ele>778</ele>
        <time>2022-06-05T03:51:51Z</time>
      </trkpt>
      <trkpt lat="47.05252" lon="6.27538">
        <ele>768</ele>
        <time>2022-06-05T03:52:09Z</time>
      </trkpt>
      <trkpt lat="47.05195" lon="6.275">
        <ele>734</ele>
        <time>2022-06-05T03:52:59Z</time>
      </trkpt>
      <trkpt lat="47.0515" lon="6.27478">
        <ele>712</ele>
        <time>2022-06-05T03:53:37Z</time>
      </trkpt>
      <trkpt lat="47.05123" lon="6.27477">
        <ele>703</ele>
        <time>2022-06-05T03:53:59Z</time>
      </trkpt>
      <trkpt lat="47.05109" lon="6.27484">
        <ele>699</ele>
        <time>2022-06-05T03:54:11Z</time>
      </trkpt>
      <trkpt lat="47.05122" lon="6.27283">
        <ele>679</ele>
        <time>2022-06-05T03:56:01Z</time>
      </trkpt>
      <trkpt lat="47.05131" lon="6.27217">
        <ele>672</ele>
        <time>2022-06-05T03:56:38Z</time>
      </trkpt>
      <trkpt lat="47.05134" lon="6.27173">
        <ele>666</ele>
        <time>2022-06-05T03:57:02Z</time>
      </trkpt>
      <trkpt lat="47.05137" lon="6.27152">
        <ele>664</ele>
        <time>2022-06-05T03:57:13Z</time>
      </trkpt>
      <trkpt lat="47.05151" lon="6.2711">
        <ele>661</ele>
        <time>2022-06-05T03:57:39Z</time>
      </trkpt>
      <trkpt lat="47.05164" lon="6.27025">
        <ele>655</ele>
        <time>2022-06-05T03:58:27Z</time>
      </trkpt>
      <trkpt lat="47.05175" lon="6.26976">
        <ele>652</ele>
        <time>2022-06-05T03:58:55Z</time>
      </trkpt>
      <trkpt lat="47.05177" lon="6.26947">
        <ele>649</ele>
        <time>2022-06-05T03:59:11Z</time>
      </trkpt>
      <trkpt lat="47.05175" lon="6.26925">
        <ele>648</ele>
        <time>2022-06-05T03:59:23Z</time>
      </trkpt>
      <trkpt lat="47.05154" lon="6.26838">
        <ele>638</ele>
        <time>2022-06-05T04:00:13Z</time>
      </trkpt>
      <trkpt lat="47.05141" lon="6.26804">
        <ele>632</ele>
        <time>2022-06-05T04:00:34Z</time>
      </trkpt>
      <trkpt lat="47.05151" lon="6.26618">
        <ele>605</ele>
        <time>2022-06-05T04:02:16Z</time>
      </trkpt>
      <trkpt lat="47.05114" lon="6.26616">
        <ele>602</ele>
        <time>2022-06-05T04:02:46Z</time>
      </trkpt>
      <trkpt lat="47.05089" lon="6.26621">
        <ele>601</ele>
        <time>2022-06-05T04:03:06Z</time>
      </trkpt>
      <trkpt lat="47.05065" lon="6.26632">
        <ele>599</ele>
        <time>2022-06-05T04:03:26Z</time>
      </trkpt>
      <trkpt lat="47.05041" lon="6.26659">
        <ele>598</ele>
        <time>2022-06-05T04:03:51Z</time>
      </trkpt>
      <trkpt lat="47.05023" lon="6.26696">
        <ele>603</ele>
        <time>2022-06-05T04:04:15Z</time>
      </trkpt>
      <trkpt lat="47.05008" lon="6.26705">
        <ele>603</ele>
        <time>2022-06-05T04:04:28Z</time>
      </trkpt>
      <trkpt lat="47.04989" lon="6.26705">
        <ele>601</ele>
        <time>2022-06-05T04:04:44Z</time>
      </trkpt>
      <trkpt lat="47.04925" lon="6.26681">
        <ele>587</ele>
        <time>2022-06-05T04:05:37Z</time>
      </trkpt>
      <trkpt lat="47.04884" lon="6.2668">
        <ele>584</ele>
        <time>2022-06-05T04:06:09Z</time>
      </trkpt>
      <trkpt lat="47.04835" lon="6.26662">
        <ele>576</ele>
        <time>2022-06-05T04:06:50Z</time>
      </trkpt>
      <trkpt lat="47.04808" lon="6.2666">
        <ele>575</ele>
        <time>2022-06-05T04:07:12Z</time>
      </trkpt>
      <trkpt lat="47.04733" lon="6.26644">
        <ele>567</ele>
        <time>2022-06-05T04:08:12Z</time>
      </trkpt>
      <trkpt lat="47.04704" lon="6.26629">
        <ele>559</ele>
        <time>2022-06-05T04:08:37Z</time>
      </trkpt>
      <trkpt lat="47.04681" lon="6.26621">
        <ele>555</ele>
        <time>2022-06-05T04:08:56Z</time>
      </trkpt>
      <trkpt lat="47.04635" lon="6.26597">
        <ele>546</ele>
        <time>2022-06-05T04:09:35Z</time>
      </trkpt>
      <trkpt lat="47.04598" lon="6.26598">
        <ele>545</ele>
        <time>2022-06-05T04:10:05Z</time>
      </trkpt>
      <trkpt lat="47.0458" lon="6.26606">
        <ele>545</ele>
        <time>2022-06-05T04:10:20Z</time>
      </trkpt>
      <trkpt lat="47.04567" lon="6.26616">
        <ele>544</ele>
        <time>2022-06-05T04:10:32Z</time>
      </trkpt>
      <trkpt lat="47.04499" lon="6.2663">
        <ele>535</ele>
        <time>2022-06-05T04:11:27Z</time>
      </trkpt>
      <trkpt lat="47.04486" lon="6.26645">
        <ele>534</ele>
        <time>2022-06-05T04:11:40Z</time>
      </trkpt>
      <trkpt lat="47.04466" lon="6.26688">
        <ele>536</ele>
        <time>2022-06-05T04:12:08Z</time>
      </trkpt>
      <trkpt lat="47.0445" lon="6.26702">
        <ele>534</ele>
        <time>2022-06-05T04:12:23Z</time>
      </trkpt>
      <trkpt lat="47.04435" lon="6.26703">
        <ele>531</ele>
        <time>2022-06-05T04:12:35Z</time>
      </trkpt>
      <trkpt lat="47.04419" lon="6.26709">
        <ele>529</ele>
        <time>2022-06-05T04:12:49Z</time>
      </trkpt>
      <trkpt lat="47.04404" lon="6.26716">
        <ele>526</ele>
        <time>2022-06-05T04:13:01Z</time>
      </trkpt>
      <trkpt lat="47.04385" lon="6.26734">
        <ele>524</ele>
        <time>2022-06-05T04:13:19Z</time>
      </trkpt>
      <trkpt lat="47.04371" lon="6.26742">
        <ele>521</ele>
        <time>2022-06-05T04:13:31Z</time>
      </trkpt>
      <trkpt lat="47.04354" lon="6.26746">
        <ele>517</ele>
        <time>2022-06-05T04:13:45Z</time>
      </trkpt>
      <trkpt lat="47.04317" lon="6.26764">
        <ele>511</ele>
        <time>2022-06-05T04:14:16Z</time>
      </trkpt>
      <trkpt lat="47.04302" lon="6.26791">
        <ele>509</ele>
        <time>2022-06-05T04:14:35Z</time>
      </trkpt>
      <trkpt lat="47.04297" lon="6.26811">
        <ele>509</ele>
        <time>2022-06-05T04:14:47Z</time>
      </trkpt>
      <trkpt lat="47.04281" lon="6.26849">
        <ele>505</ele>
        <time>2022-06-05T04:15:11Z</time>
      </trkpt>
      <trkpt lat="47.04271" lon="6.2692">
        <ele>496</ele>
        <time>2022-06-05T04:15:51Z</time>
      </trkpt>
      <trkpt lat="47.04255" lon="6.26958">
        <ele>485</ele>
        <time>2022-06-05T04:16:15Z</time>
      </trkpt>
      <trkpt lat="47.04248" lon="6.26986">
        <ele>478</ele>
        <time>2022-06-05T04:16:32Z</time>
      </trkpt>
      <trkpt lat="47.04244" lon="6.27064">
        <ele>467</ele>
        <time>2022-06-05T04:17:14Z</time>
      </trkpt>
      <trkpt lat="47.04241" lon="6.2707">
        <ele>465</ele>
        <time>2022-06-05T04:17:18Z</time>
      </trkpt>
      <trkpt lat="47.04202" lon="6.27099">
        <ele>459</ele>
        <time>2022-06-05T04:17:54Z</time>
      </trkpt>
      <trkpt lat="47.04167" lon="6.2714">
        <ele>453</ele>
        <time>2022-06-05T04:18:29Z</time>
      </trkpt>
      <trkpt lat="47.04147" lon="6.27155">
        <ele>449</ele>
        <time>2022-06-05T04:18:47Z</time>
      </trkpt>
      <trkpt lat="47.04121" lon="6.27191">
        <ele>446</ele>
        <time>2022-06-05T04:19:16Z</time>
      </trkpt>
      <trkpt lat="47.04114" lon="6.27289">
        <ele>447</ele>
        <time>2022-06-05T04:20:10Z</time>
      </trkpt>
      <trkpt lat="47.04101" lon="6.2736">
        <ele>444</ele>
        <time>2022-06-05T04:20:50Z</time>
      </trkpt>
      <trkpt lat="47.04089" lon="6.27375">
        <ele>440</ele>
        <time>2022-06-05T04:21:03Z</time>
      </trkpt>
      <trkpt lat="47.04051" lon="6.27406">
        <ele>435</ele>
        <time>2022-06-05T04:21:38Z</time>
      </trkpt>
      <trkpt lat="47.0405" lon="6.27425">
        <ele>435</ele>
        <time>2022-06-05T04:21:48Z</time>
      </trkpt>
      <trkpt lat="47.04027" lon="6.27499">
        <ele>433</ele>
        <time>2022-06-05T04:22:32Z</time>
      </trkpt>
      <trkpt lat="47.03981" lon="6.27514">
        <ele>429</ele>
        <time>2022-06-05T04:23:10Z</time>
      </trkpt>
      <trkpt lat="47.03957" lon="6.2752">
        <ele>427</ele>
        <time>2022-06-05T04:23:30Z</time>
      </trkpt>
      <trkpt lat="47.03946" lon="6.2752">
        <ele>426</ele>
        <time>2022-06-05T04:23:38Z</time>
      </trkpt>
      <trkpt lat="47.03939" lon="6.27539">
        <ele>425</ele>
        <time>2022-06-05T04:23:50Z</time>
      </trkpt>
      <trkpt lat="47.03921" lon="6.27556">
        <ele>423</ele>
        <time>2022-06-05T04:24:07Z</time>
      </trkpt>
      <trkpt lat="47.03911" lon="6.27556">
        <ele>422</ele>
        <time>2022-06-05T04:24:15Z</time>
      </trkpt>
      <trkpt lat="47.03884" lon="6.27549">
        <ele>417</ele>
        <time>2022-06-05T04:24:37Z</time>
      </trkpt>
      <trkpt lat="47.03898" lon="6.27605">
        <ele>418</ele>
        <time>2022-06-05T04:25:10Z</time>
      </trkpt>
      <trkpt lat="47.0388" lon="6.27679">
        <ele>413</ele>
        <time>2022-06-05T04:25:53Z</time>
      </trkpt>
      <trkpt lat="47.03864" lon="6.27699">
        <ele>411</ele>
        <time>2022-06-05T04:26:10Z</time>
      </trkpt>
      <trkpt lat="47.03849" lon="6.27733">
        <ele>409</ele>
        <time>2022-06-05T04:26:32Z</time>
      </trkpt>
      <trkpt lat="47.0384" lon="6.27732">
        <ele>408</ele>
        <time>2022-06-05T04:26:39Z</time>
      </trkpt>
      <trkpt lat="47.03833" lon="6.27716">
        <ele>406</ele>
        <time>2022-06-05T04:26:49Z</time>
      </trkpt>
      <trkpt lat="47.03826" lon="6.27713">
        <ele>404</ele>
        <time>2022-06-05T04:26:55Z</time>
      </trkpt>
      <trkpt lat="47.03815" lon="6.27721">
        <ele>402</ele>
        <time>2022-06-05T04:27:05Z</time>
      </trkpt>
      <trkpt lat="47.03804" lon="6.27745">
        <ele>399</ele>
        <time>2022-06-05T04:27:21Z</time>
      </trkpt>
      <trkpt lat="47.0379" lon="6.27793">
        <ele>395</ele>
        <time>2022-06-05T04:27:49Z</time>
      </trkpt>
      <trkpt lat="47.03767" lon="6.27844">
        <ele>389</ele>
        <time>2022-06-05T04:28:23Z</time>
      </trkpt>
      <trkpt lat="47.03763" lon="6.27878">
        <ele>390</ele>
        <time>2022-06-05T04:28:42Z</time>
      </trkpt>
      <trkpt lat="47.03754" lon="6.27903">
        <ele>388</ele>
        <time>2022-06-05T04:28:57Z</time>
      </trkpt>
      <trkpt lat="47.03737" lon="6.27937">
        <ele>391</ele>
        <time>2022-06-05T04:29:20Z</time>
      </trkpt>
      <trkpt lat="47.03731" lon="6.27972">
        <ele>393</ele>
        <time>2022-06-05T04:29:40Z</time>
      </trkpt>
      <trkpt lat="47.03712" lon="6.28046">
        <ele>393</ele>
        <time>2022-06-05T04:30:23Z</time>
      </trkpt>
      <trkpt lat="47.03692" lon="6.28095">
        <ele>390</ele>
        <time>2022-06-05T04:30:54Z</time>
      </trkpt>
      <trkpt lat="47.03672" lon="6.28135">
        <ele>386</ele>
        <time>2022-06-05T04:31:21Z</time>
      </trkpt>
      <trkpt lat="47.03657" lon="6.28158">
        <ele>385</ele>
        <time>2022-06-05T04:31:39Z</time>
      </trkpt>
      <trkpt lat="47.03644" lon="6.28216">
        <ele>392</ele>
        <time>2022-06-05T04:32:12Z</time>
      </trkpt>
      <trkpt lat="47.03636" lon="6.28236">
        <ele>394</ele>
        <time>2022-06-05T04:32:25Z</time>
      </trkpt>
      <trkpt lat="47.03614" lon="6.28261">
        <ele>395</ele>
        <time>2022-06-05T04:32:47Z</time>
      </trkpt>
      <trkpt lat="47.03592" lon="6.28279">
        <ele>396</ele>
        <time>2022-06-05T04:33:07Z</time>
      </trkpt>
      <trkpt lat="47.03569" lon="6.28309">
        <ele>400</ele>
        <time>2022-06-05T04:33:32Z</time>
      </trkpt>
      <trkpt lat="47.03529" lon="6.28347">
        <ele>399</ele>
        <time>2022-06-05T04:34:10Z</time>
      </trkpt>
      <trkpt lat="47.03498" lon="6.28395">
        <ele>399</ele>
        <time>2022-06-05T04:34:46Z</time>
      </trkpt>
      <trkpt lat="47.0349" lon="6.28396">
        <ele>399</ele>
        <time>2022-06-05T04:34:53Z</time>
      </trkpt>
      <trkpt lat="47.03473" lon="6.28412">
        <ele>403</ele>
        <time>2022-06-05T04:35:09Z</time>
      </trkpt>
      <trkpt lat="47.03468" lon="6.28411">
        <ele>403</ele>
        <time>2022-06-05T04:35:13Z</time>
      </trkpt>
      <trkpt lat="47.0346" lon="6.28407">
        <ele>403</ele>
        <time>2022-06-05T04:35:20Z</time>
      </trkpt>
      <trkpt lat="47.03444" lon="6.28384">
        <ele>399</ele>
        <time>2022-06-05T04:35:38Z</time>
      </trkpt>
      <trkpt lat="47.03427" lon="6.28373">
        <ele>397</ele>
        <time>2022-06-05T04:35:53Z</time>
      </trkpt>
      <trkpt lat="47.03415" lon="6.28371">
        <ele>397</ele>
        <time>2022-06-05T04:36:02Z</time>
      </trkpt>
      <trkpt lat="47.0337" lon="6.2838">
        <ele>404</ele>
        <time>2022-06-05T04:36:39Z</time>
      </trkpt>
      <trkpt lat="47.03266" lon="6.28385">
        <ele>411</ele>
        <time>2022-06-05T04:38:02Z</time>
      </trkpt>
      <trkpt lat="47.03252" lon="6.28446">
        <ele>422</ele>
        <time>2022-06-05T04:38:37Z</time>
      </trkpt>
      <trkpt lat="47.03217" lon="6.28459">
        <ele>424</ele>
        <time>2022-06-05T04:39:06Z</time>
      </trkpt>
      <trkpt lat="47.03178" lon="6.28491">
        <ele>427</ele>
        <time>2022-06-05T04:39:42Z</time>
      </trkpt>
      <trkpt lat="47.03132" lon="6.28541">
        <ele>437</ele>
        <time>2022-06-05T04:40:28Z</time>
      </trkpt>
      <trkpt lat="47.03122" lon="6.28547">
        <ele>438</ele>
        <time>2022-06-05T04:40:37Z</time>
      </trkpt>
      <trkpt lat="47.03111" lon="6.28542">
        <ele>434</ele>
        <time>2022-06-05T04:40:46Z</time>
      </trkpt>
      <trkpt lat="47.03106" lon="6.28545">
        <ele>434</ele>
        <time>2022-06-05T04:40:50Z</time>
      </trkpt>
      <trkpt lat="47.03098" lon="6.28535">
        <ele>429</ele>
        <time>2022-06-05T04:40:59Z</time>
      </trkpt>
      <trkpt lat="47.03084" lon="6.28524">
        <ele>422</ele>
        <time>2022-06-05T04:41:11Z</time>
      </trkpt>
      <trkpt lat="47.03066" lon="6.28527">
        <ele>420</ele>
        <time>2022-06-05T04:41:26Z</time>
      </trkpt>
      <trkpt lat="47.0306" lon="6.28534">
        <ele>422</ele>
        <time>2022-06-05T04:41:32Z</time>
      </trkpt>
      <trkpt lat="47.03051" lon="6.28572">
        <ele>432</ele>
        <time>2022-06-05T04:41:54Z</time>
      </trkpt>
      <trkpt lat="47.03032" lon="6.28599">
        <ele>435</ele>
        <time>2022-06-05T04:42:15Z</time>
      </trkpt>
      <trkpt lat="47.03002" lon="6.28622">
        <ele>435</ele>
        <time>2022-06-05T04:42:42Z</time>
      </trkpt>
      <trkpt lat="47.02978" lon="6.2863">
        <ele>436</ele>
        <time>2022-06-05T04:43:02Z</time>
      </trkpt>
      <trkpt lat="47.02955" lon="6.28625">
        <ele>432</ele>
        <time>2022-06-05T04:43:21Z</time>
      </trkpt>
      <trkpt lat="47.02922" lon="6.28599">
        <ele>422</ele>
        <time>2022-06-05T04:43:51Z</time>
      </trkpt>
      <trkpt lat="47.02912" lon="6.28584">
        <ele>417</ele>
        <time>2022-06-05T04:44:02Z</time>
      </trkpt>
      <trkpt lat="47.02899" lon="6.28552">
        <ele>411</ele>
        <time>2022-06-05T04:44:22Z</time>
      </trkpt>
      <trkpt lat="47.02893" lon="6.28546">
        <ele>410</ele>
        <time>2022-06-05T04:44:28Z</time>
      </trkpt>
      <trkpt lat="47.0285" lon="6.28545">
        <ele>409</ele>
        <time>2022-06-05T04:45:03Z</time>
      </trkpt>
      <trkpt lat="47.0282" lon="6.28523">
        <ele>410</ele>
        <time>2022-06-05T04:45:30Z</time>
      </trkpt>
      <trkpt lat="47.02809" lon="6.2852">
        <ele>412</ele>
        <time>2022-06-05T04:45:39Z</time>
      </trkpt>
      <trkpt lat="47.02794" lon="6.28538">
        <ele>412</ele>
        <time>2022-06-05T04:45:54Z</time>
      </trkpt>
      <trkpt lat="47.02784" lon="6.28542">
        <ele>413</ele>
        <time>2022-06-05T04:46:02Z</time>
      </trkpt>
      <trkpt lat="47.02764" lon="6.28543">
        <ele>414</ele>
        <time>2022-06-05T04:46:18Z</time>
      </trkpt>
      <trkpt lat="47.02746" lon="6.28558">
        <ele>412</ele>
        <time>2022-06-05T04:46:35Z</time>
      </trkpt>
      <trkpt lat="47.02732" lon="6.28563">
        <ele>414</ele>
        <time>2022-06-05T04:46:47Z</time>
      </trkpt>
      <trkpt lat="47.02721" lon="6.28581">
        <ele>412</ele>
        <time>2022-06-05T04:47:00Z</time>
      </trkpt>
      <trkpt lat="47.02713" lon="6.28585">
        <ele>413</ele>
        <time>2022-06-05T04:47:07Z</time>
      </trkpt>
      <trkpt lat="47.02641" lon="6.28603">
        <ele>425</ele>
        <time>2022-06-05T04:48:05Z</time>
      </trkpt>
      <trkpt lat="47.02616" lon="6.28583">
        <ele>425</ele>
        <time>2022-06-05T04:48:28Z</time>
      </trkpt>
      <trkpt lat="47.02561" lon="6.28571">
        <ele>433</ele>
        <time>2022-06-05T04:49:12Z</time>
      </trkpt>
      <trkpt lat="47.02526" lon="6.28573">
        <ele>434</ele>
        <time>2022-06-05T04:49:41Z</time>
      </trkpt>
      <trkpt lat="47.02509" lon="6.28578">
        <ele>433</ele>
        <time>2022-06-05T04:49:54Z</time>
      </trkpt>
      <trkpt lat="47.02502" lon="6.28584">
        <ele>431</ele>
        <time>2022-06-05T04:50:01Z</time>
      </trkpt>
      <trkpt lat="47.02494" lon="6.28577">
        <ele>435</ele>
        <time>2022-06-05T04:50:08Z</time>
      </trkpt>
      <trkpt lat="47.02461" lon="6.28591">
        <ele>434</ele>
        <time>2022-06-05T04:50:36Z</time>
      </trkpt>
      <trkpt lat="47.02402" lon="6.28608">
        <ele>436</ele>
        <time>2022-06-05T04:51:24Z</time>
      </trkpt>
      <trkpt lat="47.02393" lon="6.28617">
        <ele>435</ele>
        <time>2022-06-05T04:51:33Z</time>
      </trkpt>
      <trkpt lat="47.02365" lon="6.28618">
        <ele>435</ele>
        <time>2022-06-05T04:51:55Z</time>
      </trkpt>
      <trkpt lat="47.02345" lon="6.28628">
        <ele>434</ele>
        <time>2022-06-05T04:52:12Z</time>
      </trkpt>
      <trkpt lat="47.02327" lon="6.28621">
        <ele>435</ele>
        <time>2022-06-05T04:52:27Z</time>
      </trkpt>
      <trkpt lat="47.02289" lon="6.28634">
        <ele>434</ele>
        <time>2022-06-05T04:52:58Z</time>
      </trkpt>
      <trkpt lat="47.02246" lon="6.28642">
        <ele>434</ele>
        <time>2022-06-05T04:53:33Z</time>
      </trkpt>
      <trkpt lat="47.02207" lon="6.2864">
        <ele>437</ele>
        <time>2022-06-05T04:54:04Z</time>
      </trkpt>
      <trkpt lat="47.02192" lon="6.28636">
        <ele>440</ele>
        <time>2022-06-05T04:54:17Z</time>
      </trkpt>
      <trkpt lat="47.02185" lon="6.28642">
        <ele>439</ele>
        <time>2022-06-05T04:54:23Z</time>
      </trkpt>
      <trkpt lat="47.02156" lon="6.28647">
        <ele>442</ele>
        <time>2022-06-05T04:54:47Z</time>
      </trkpt>
      <trkpt lat="47.02128" lon="6.28636">
        <ele>452</ele>
        <time>2022-06-05T04:55:10Z</time>
      </trkpt>
      <trkpt lat="47.02115" lon="6.28637">
        <ele>455</ele>
        <time>2022-06-05T04:55:20Z</time>
      </trkpt>
      <trkpt lat="47.02097" lon="6.2864">
        <ele>459</ele>
        <time>2022-06-05T04:55:35Z</time>
      </trkpt>
      <trkpt lat="47.02075" lon="6.28652">
        <ele>467</ele>
        <time>2022-06-05T04:55:54Z</time>
      </trkpt>
      <trkpt lat="47.02071" lon="6.28668">
        <ele>465</ele>
        <time>2022-06-05T04:56:03Z</time>
      </trkpt>
      <trkpt lat="47.02059" lon="6.28692">
        <ele>472</ele>
        <time>2022-06-05T04:56:19Z</time>
      </trkpt>
      <trkpt lat="47.02044" lon="6.28766">
        <ele>468</ele>
        <time>2022-06-05T04:57:01Z</time>
      </trkpt>
      <trkpt lat="47.02044" lon="6.2878">
        <ele>469</ele>
        <time>2022-06-05T04:57:09Z</time>
      </trkpt>
      <trkpt lat="47.0205" lon="6.28795">
        <ele>465</ele>
        <time>2022-06-05T04:57:19Z</time>
      </trkpt>
      <trkpt lat="47.02058" lon="6.28808">
        <ele>460</ele>
        <time>2022-06-05T04:57:28Z</time>
      </trkpt>
      <trkpt lat="47.02069" lon="6.28817">
        <ele>453</ele>
        <time>2022-06-05T04:57:38Z</time>
      </trkpt>
      <trkpt lat="47.02091" lon="6.28824">
        <ele>444</ele>
        <time>2022-06-05T04:57:56Z</time>
      </trkpt>
      <trkpt lat="47.02127" lon="6.28854">
        <ele>448</ele>
        <time>2022-06-05T04:58:29Z</time>
      </trkpt>
      <trkpt lat="47.02152" lon="6.28885">
        <ele>451</ele>
        <time>2022-06-05T04:58:56Z</time>
      </trkpt>
      <trkpt lat="47.02167" lon="6.28893">
        <ele>449</ele>
        <time>2022-06-05T04:59:08Z</time>
      </trkpt>
      <trkpt lat="47.02181" lon="6.28907">
        <ele>451</ele>
        <time>2022-06-05T04:59:22Z</time>
      </trkpt>
      <trkpt lat="47.02226" lon="6.28967">
        <ele>455</ele>
        <time>2022-06-05T05:00:11Z</time>
      </trkpt>
      <trkpt lat="47.0223" lon="6.28976">
        <ele>454</ele>
        <time>2022-06-05T05:00:17Z</time>
      </trkpt>
      <trkpt lat="47.02233" lon="6.29006">
        <ele>455</ele>
        <time>2022-06-05T05:00:33Z</time>
      </trkpt>
      <trkpt lat="47.02243" lon="6.29023">
        <ele>454</ele>
        <time>2022-06-05T05:00:45Z</time>
      </trkpt>
      <trkpt lat="47.02244" lon="6.29052">
        <ele>457</ele>
        <time>2022-06-05T05:01:01Z</time>
      </trkpt>
      <trkpt lat="47.02254" lon="6.29076">
        <ele>457</ele>
        <time>2022-06-05T05:01:17Z</time>
      </trkpt>
      <trkpt lat="47.02259" lon="6.29102">
        <ele>460</ele>
        <time>2022-06-05T05:01:31Z</time>
      </trkpt>
      <trkpt lat="47.02268" lon="6.29127">
        <ele>464</ele>
        <time>2022-06-05T05:01:47Z</time>
      </trkpt>
      <trkpt lat="47.02284" lon="6.29154">
        <ele>464</ele>
        <time>2022-06-05T05:02:06Z</time>
      </trkpt>
      <trkpt lat="47.02304" lon="6.29176">
        <ele>461</ele>
        <time>2022-06-05T05:02:26Z</time>
      </trkpt>
      <trkpt lat="47.02312" lon="6.2919">
        <ele>461</ele>
        <time>2022-06-05T05:02:36Z</time>
      </trkpt>
      <trkpt lat="47.02307" lon="6.29243">
        <ele>470</ele>
        <time>2022-06-05T05:03:06Z</time>
      </trkpt>
      <trkpt lat="47.0231" lon="6.29258">
        <ele>471</ele>
        <time>2022-06-05T05:03:14Z</time>
      </trkpt>
      <trkpt lat="47.02333" lon="6.29305">
        <ele>461</ele>
        <time>2022-06-05T05:03:46Z</time>
      </trkpt>
      <trkpt lat="47.02348" lon="6.29373">
        <ele>469</ele>
        <time>2022-06-05T05:04:25Z</time>
      </trkpt>
      <trkpt lat="47.0236" lon="6.29413">
        <ele>470</ele>
        <time>2022-06-05T05:04:49Z</time>
      </trkpt>
      <trkpt lat="47.02355" lon="6.29458">
        <ele>469</ele>
        <time>2022-06-05T05:05:14Z</time>
      </trkpt>
      <trkpt lat="47.02329" lon="6.29539">
        <ele>467</ele>
        <time>2022-06-05T05:06:03Z</time>
      </trkpt>
      <trkpt lat="47.02318" lon="6.29558">
        <ele>471</ele>
        <time>2022-06-05T05:06:16Z</time>
      </trkpt>
      <trkpt lat="47.02329" lon="6.29574">
        <ele>465</ele>
        <time>2022-06-05T05:06:29Z</time>
      </trkpt>
      <trkpt lat="47.02299" lon="6.29601">
        <ele>469</ele>
        <time>2022-06-05T05:06:57Z</time>
      </trkpt>
      <trkpt lat="47.02293" lon="6.29624">
        <ele>469</ele>
        <time>2022-06-05T05:07:10Z</time>
      </trkpt>
      <trkpt lat="47.0227" lon="6.29639">
        <ele>466</ele>
        <time>2022-06-05T05:07:30Z</time>
      </trkpt>
      <trkpt lat="47.02241" lon="6.29646">
        <ele>466</ele>
        <time>2022-06-05T05:07:54Z</time>
      </trkpt>
      <trkpt lat="47.02215" lon="6.29692">
        <ele>464</ele>
        <time>2022-06-05T05:08:27Z</time>
      </trkpt>
      <trkpt lat="47.02177" lon="6.29711">
        <ele>468</ele>
        <time>2022-06-05T05:08:59Z</time>
      </trkpt>
      <trkpt lat="47.02152" lon="6.29729">
        <ele>470</ele>
        <time>2022-06-05T05:09:21Z</time>
      </trkpt>
      <trkpt lat="47.02115" lon="6.29725">
        <ele>473</ele>
        <time>2022-06-05T05:09:51Z</time>
      </trkpt>
      <trkpt lat="47.0204" lon="6.29691">
        <ele>478</ele>
        <time>2022-06-05T05:10:54Z</time>
      </trkpt>
      <trkpt lat="47.02008" lon="6.2968">
        <ele>476</ele>
        <time>2022-06-05T05:11:20Z</time>
      </trkpt>
      <trkpt lat="47.01969" lon="6.29658">
        <ele>481</ele>
        <time>2022-06-05T05:11:54Z</time>
      </trkpt>
      <trkpt lat="47.01931" lon="6.29599">
        <ele>479</ele>
        <time>2022-06-05T05:12:38Z</time>
      </trkpt>
      <trkpt lat="47.01922" lon="6.29581">
        <ele>475</ele>
        <time>2022-06-05T05:12:50Z</time>
      </trkpt>
      <trkpt lat="47.01918" lon="6.29563">
        <ele>481</ele>
        <time>2022-06-05T05:13:01Z</time>
      </trkpt>
      <trkpt lat="47.019" lon="6.29527">
        <ele>497</ele>
        <time>2022-06-05T05:13:25Z</time>
      </trkpt>
      <trkpt lat="47.01877" lon="6.29453">
        <ele>517</ele>
        <time>2022-06-05T05:14:09Z</time>
      </trkpt>
      <trkpt lat="47.01846" lon="6.29396">
        <ele>512</ele>
        <time>2022-06-05T05:14:49Z</time>
      </trkpt>
      <trkpt lat="47.0184" lon="6.29376">
        <ele>522</ele>
        <time>2022-06-05T05:15:01Z</time>
      </trkpt>
      <trkpt lat="47.01798" lon="6.29348">
        <ele>531</ele>
        <time>2022-06-05T05:15:38Z</time>
      </trkpt>
      <trkpt lat="47.01781" lon="6.29342">
        <ele>529</ele>
        <time>2022-06-05T05:15:52Z</time>
      </trkpt>
      <trkpt lat="47.01772" lon="6.29324">
        <ele>532</ele>
        <time>2022-06-05T05:16:04Z</time>
      </trkpt>
      <trkpt lat="47.01755" lon="6.29321">
        <ele>527</ele>
        <time>2022-06-05T05:16:18Z</time>
      </trkpt>
      <trkpt lat="47.01741" lon="6.29331">
        <ele>520</ele>
        <time>2022-06-05T05:16:31Z</time>
      </trkpt>
      <trkpt lat="47.01723" lon="6.29304">
        <ele>537</ele>
        <time>2022-06-05T05:16:51Z</time>
      </trkpt>
      <trkpt lat="47.017" lon="6.29299">
        <ele>540</ele>
        <time>2022-06-05T05:17:10Z</time>
      </trkpt>
      <trkpt lat="47.01678" lon="6.29289">
        <ele>545</ele>
        <time>2022-06-05T05:17:28Z</time>
      </trkpt>
      <trkpt lat="47.01651" lon="6.29299">
        <ele>546</ele>
        <time>2022-06-05T05:17:51Z</time>
      </trkpt>
      <trkpt lat="47.0162" lon="6.29321">
        <ele>545</ele>
        <time>2022-06-05T05:18:18Z</time>
      </trkpt>
      <trkpt lat="47.01604" lon="6.29344">
        <ele>542</ele>
        <time>2022-06-05T05:18:36Z</time>
      </trkpt>
      <trkpt lat="47.01591" lon="6.29357">
        <ele>541</ele>
        <time>2022-06-05T05:18:49Z</time>
      </trkpt>
      <trkpt lat="47.01577" lon="6.2938">
        <ele>538</ele>
        <time>2022-06-05T05:19:06Z</time>
      </trkpt>
      <trkpt lat="47.01577" lon="6.29406">
        <ele>530</ele>
        <time>2022-06-05T05:19:20Z</time>
      </trkpt>
      <trkpt lat="47.01557" lon="6.29414">
        <ele>538</ele>
        <time>2022-06-05T05:19:36Z</time>
      </trkpt>
      <trkpt lat="47.01554" lon="6.2943">
        <ele>540</ele>
        <time>2022-06-05T05:19:46Z</time>
      </trkpt>
      <trkpt lat="47.01533" lon="6.29453">
        <ele>548</ele>
        <time>2022-06-05T05:20:07Z</time>
      </trkpt>
      <trkpt lat="47.0152" lon="6.29484">
        <ele>547</ele>
        <time>2022-06-05T05:20:26Z</time>
      </trkpt>
      <trkpt lat="47.01509" lon="6.29477">
        <ele>549</ele>
        <time>2022-06-05T05:20:36Z</time>
      </trkpt>
      <trkpt lat="47.01504" lon="6.29496">
        <ele>544</ele>
        <time>2022-06-05T05:20:47Z</time>
      </trkpt>
      <trkpt lat="47.01485" lon="6.29533">
        <ele>546</ele>
        <time>2022-06-05T05:21:12Z</time>
      </trkpt>
      <trkpt lat="47.01444" lon="6.29598">
        <ele>558</ele>
        <time>2022-06-05T05:22:01Z</time>
      </trkpt>
      <trkpt lat="47.01436" lon="6.29616">
        <ele>556</ele>
        <time>2022-06-05T05:22:13Z</time>
      </trkpt>
      <trkpt lat="47.0143" lon="6.29641">
        <ele>548</ele>
        <time>2022-06-05T05:22:27Z</time>
      </trkpt>
      <trkpt lat="47.01424" lon="6.29649">
        <ele>545</ele>
        <time>2022-06-05T05:22:34Z</time>
      </trkpt>
      <trkpt lat="47.01404" lon="6.29699">
        <ele>544</ele>
        <time>2022-06-05T05:23:05Z</time>
      </trkpt>
      <trkpt lat="47.01387" lon="6.29753">
        <ele>546</ele>
        <time>2022-06-05T05:23:38Z</time>
      </trkpt>
      <trkpt lat="47.01352" lon="6.29806">
        <ele>553</ele>
        <time>2022-06-05T05:24:18Z</time>
      </trkpt>
      <trkpt lat="47.01319" lon="6.29825">
        <ele>550</ele>
        <time>2022-06-05T05:24:47Z</time>
      </trkpt>
      <trkpt lat="47.01291" lon="6.29845">
        <ele>551</ele>
        <time>2022-06-05T05:25:11Z</time>
      </trkpt>
      <trkpt lat="47.01275" lon="6.2984">
        <ele>551</ele>
        <time>2022-06-05T05:25:25Z</time>
      </trkpt>
      <trkpt lat="47.01261" lon="6.2983">
        <ele>551</ele>
        <time>2022-06-05T05:25:37Z</time>
      </trkpt>
      <trkpt lat="47.01249" lon="6.29814">
        <ele>558</ele>
        <time>2022-06-05T05:25:50Z</time>
      </trkpt>
      <trkpt lat="47.01231" lon="6.29805">
        <ele>561</ele>
        <time>2022-06-05T05:26:05Z</time>
      </trkpt>
      <trkpt lat="47.01215" lon="6.29802">
        <ele>562</ele>
        <time>2022-06-05T05:26:18Z</time>
      </trkpt>
      <trkpt lat="47.01195" lon="6.29812">
        <ele>557</ele>
        <time>2022-06-05T05:26:35Z</time>
      </trkpt>
      <trkpt lat="47.01179" lon="6.29827">
        <ele>549</ele>
        <time>2022-06-05T05:26:50Z</time>
      </trkpt>
      <trkpt lat="47.01157" lon="6.2984">
        <ele>551</ele>
        <time>2022-06-05T05:27:09Z</time>
      </trkpt>
      <trkpt lat="47.01135" lon="6.29842">
        <ele>561</ele>
        <time>2022-06-05T05:27:27Z</time>
      </trkpt>
      <trkpt lat="47.01127" lon="6.29835">
        <ele>562</ele>
        <time>2022-06-05T05:27:35Z</time>
      </trkpt>
      <trkpt lat="47.01129" lon="6.29815">
        <ele>566</ele>
        <time>2022-06-05T05:27:46Z</time>
      </trkpt>
      <trkpt lat="47.01127" lon="6.29806">
        <ele>568</ele>
        <time>2022-06-05T05:27:51Z</time>
      </trkpt>
      <trkpt lat="47.0112" lon="6.29799">
        <ele>572</ele>
        <time>2022-06-05T05:27:58Z</time>
      </trkpt>
      <trkpt lat="47.01087" lon="6.2978">
        <ele>578</ele>
        <time>2022-06-05T05:28:26Z</time>
      </trkpt>
      <trkpt lat="47.01076" lon="6.29769">
        <ele>578</ele>
        <time>2022-06-05T05:28:37Z</time>
      </trkpt>
      <trkpt lat="47.01068" lon="6.29764">
        <ele>578</ele>
        <time>2022-06-05T05:28:44Z</time>
      </trkpt>
      <trkpt lat="47.01026" lon="6.29757">
        <ele>577</ele>
        <time>2022-06-05T05:29:17Z</time>
      </trkpt>
      <trkpt lat="47.0101" lon="6.29761">
        <ele>577</ele>
        <time>2022-06-05T05:29:31Z</time>
      </trkpt>
      <trkpt lat="47.00994" lon="6.29779">
        <ele>580</ele>
        <time>2022-06-05T05:29:47Z</time>
      </trkpt>
      <trkpt lat="47.00986" lon="6.2982">
        <ele>585</ele>
        <time>2022-06-05T05:30:10Z</time>
      </trkpt>
      <trkpt lat="47.00962" lon="6.29901">
        <ele>598</ele>
        <time>2022-06-05T05:30:58Z</time>
      </trkpt>
      <trkpt lat="47.00912" lon="6.29969">
        <ele>599</ele>
        <time>2022-06-05T05:31:53Z</time>
      </trkpt>
      <trkpt lat="47.00879" lon="6.30001">
        <ele>599</ele>
        <time>2022-06-05T05:32:25Z</time>
      </trkpt>
      <trkpt lat="47.0087" lon="6.30007">
        <ele>599</ele>
        <time>2022-06-05T05:32:33Z</time>
      </trkpt>
      <trkpt lat="47.00857" lon="6.30011">
        <ele>599</ele>
        <time>2022-06-05T05:32:43Z</time>
      </trkpt>
      <trkpt lat="47.00827" lon="6.30015">
        <ele>598</ele>
        <time>2022-06-05T05:33:07Z</time>
      </trkpt>
      <trkpt lat="47.00812" lon="6.3002">
        <ele>599</ele>
        <time>2022-06-05T05:33:20Z</time>
      </trkpt>
      <trkpt lat="47.00762" lon="6.30013">
        <ele>598</ele>
        <time>2022-06-05T05:34:00Z</time>
      </trkpt>
      <trkpt lat="47.00737" lon="6.30004">
        <ele>599</ele>
        <time>2022-06-05T05:34:21Z</time>
      </trkpt>
      <trkpt lat="47.00735" lon="6.29999">
        <ele>598</ele>
        <time>2022-06-05T05:34:24Z</time>
      </trkpt>
      <trkpt lat="47.0071" lon="6.29976">
        <ele>603</ele>
        <time>2022-06-05T05:34:47Z</time>
      </trkpt>
      <trkpt lat="47.00689" lon="6.29945">
        <ele>602</ele>
        <time>2022-06-05T05:35:11Z</time>
      </trkpt>
      <trkpt lat="47.00677" lon="6.29921">
        <ele>598</ele>
        <time>2022-06-05T05:35:28Z</time>
      </trkpt>
      <trkpt lat="47.00659" lon="6.29898">
        <ele>601</ele>
        <time>2022-06-05T05:35:47Z</time>
      </trkpt>
      <trkpt lat="47.00662" lon="6.29887">
        <ele>602</ele>
        <time>2022-06-05T05:35:53Z</time>
      </trkpt>
      <trkpt lat="47.00659" lon="6.29873">
        <ele>604</ele>
        <time>2022-06-05T05:36:01Z</time>
      </trkpt>
      <trkpt lat="47.00665" lon="6.29863">
        <ele>605</ele>
        <time>2022-06-05T05:36:08Z</time>
      </trkpt>
      <trkpt lat="47.00659" lon="6.29848">
        <ele>607</ele>
        <time>2022-06-05T05:36:18Z</time>
      </trkpt>
      <trkpt lat="47.00662" lon="6.29845">
        <ele>608</ele>
        <time>2022-06-05T05:36:21Z</time>
      </trkpt>
      <trkpt lat="47.00669" lon="6.29847">
        <ele>608</ele>
        <time>2022-06-05T05:36:27Z</time>
      </trkpt>
      <trkpt lat="47.00662" lon="6.29834">
        <ele>609</ele>
        <time>2022-06-05T05:36:36Z</time>
      </trkpt>
      <trkpt lat="47.00646" lon="6.29816">
        <ele>610</ele>
        <time>2022-06-05T05:36:52Z</time>
      </trkpt>
      <trkpt lat="47.00641" lon="6.29799">
        <ele>611</ele>
        <time>2022-06-05T05:37:02Z</time>
      </trkpt>
      <trkpt lat="47.00645" lon="6.2979">
        <ele>613</ele>
        <time>2022-06-05T05:37:08Z</time>
      </trkpt>
      <trkpt lat="47.00633" lon="6.29773">
        <ele>611</ele>
        <time>2022-06-05T05:37:21Z</time>
      </trkpt>
      <trkpt lat="47.00625" lon="6.29744">
        <ele>611</ele>
        <time>2022-06-05T05:37:38Z</time>
      </trkpt>
      <trkpt lat="47.00585" lon="6.29639">
        <ele>609</ele>
        <time>2022-06-05T05:38:44Z</time>
      </trkpt>
      <trkpt lat="47.00583" lon="6.29621">
        <ele>611</ele>
        <time>2022-06-05T05:38:54Z</time>
      </trkpt>
      <trkpt lat="47.00586" lon="6.29604">
        <ele>614</ele>
        <time>2022-06-05T05:39:04Z</time>
      </trkpt>
      <trkpt lat="47.00595" lon="6.296">
        <ele>618</ele>
        <time>2022-06-05T05:39:11Z</time>
      </trkpt>
      <trkpt lat="47.00598" lon="6.29572">
        <ele>623</ele>
        <time>2022-06-05T05:39:27Z</time>
      </trkpt>
      <trkpt lat="47.00608" lon="6.29561">
        <ele>627</ele>
        <time>2022-06-05T05:39:37Z</time>
      </trkpt>
      <trkpt lat="47.00605" lon="6.29544">
        <ele>629</ele>
        <time>2022-06-05T05:39:46Z</time>
      </trkpt>
      <trkpt lat="47.00609" lon="6.29539">
        <ele>631</ele>
        <time>2022-06-05T05:39:50Z</time>
      </trkpt>
      <trkpt lat="47.0058" lon="6.29448">
        <ele>635</ele>
        <time>2022-06-05T05:40:45Z</time>
      </trkpt>
      <trkpt lat="47.00585" lon="6.29447">
        <ele>637</ele>
        <time>2022-06-05T05:40:49Z</time>
      </trkpt>
      <trkpt lat="47.00604" lon="6.29474">
        <ele>638</ele>
        <time>2022-06-05T05:41:11Z</time>
      </trkpt>
      <trkpt lat="47.00671" lon="6.29514">
        <ele>651</ele>
        <time>2022-06-05T05:42:09Z</time>
      </trkpt>
      <trkpt lat="47.00717" lon="6.29546">
        <ele>659</ele>
        <time>2022-06-05T05:42:49Z</time>
      </trkpt>
      <trkpt lat="47.00743" lon="6.29604">
        <ele>660</ele>
        <time>2022-06-05T05:43:27Z</time>
      </trkpt>
      <trkpt lat="47.00756" lon="6.29621">
        <ele>661</ele>
        <time>2022-06-05T05:43:41Z</time>
      </trkpt>
      <trkpt lat="47.00818" lon="6.29472">
        <ele>683</ele>
        <time>2022-06-05T05:45:17Z</time>
      </trkpt>
      <trkpt lat="47.00852" lon="6.29378">
        <ele>695</ele>
        <time>2022-06-05T05:46:15Z</time>
      </trkpt>
      <trkpt lat="47.00865" lon="6.29328">
        <ele>698</ele>
        <time>2022-06-05T05:46:44Z</time>
      </trkpt>
      <trkpt lat="47.00883" lon="6.2929">
        <ele>697</ele>
        <time>2022-06-05T05:47:09Z</time>
      </trkpt>
      <trkpt lat="47.00893" lon="6.29276">
        <ele>695</ele>
        <time>2022-06-05T05:47:20Z</time>
      </trkpt>
      <trkpt lat="47.00902" lon="6.29267">
        <ele>694</ele>
        <time>2022-06-05T05:47:29Z</time>
      </trkpt>
      <trkpt lat="47.00911" lon="6.29264">
        <ele>693</ele>
        <time>2022-06-05T05:47:37Z</time>
      </trkpt>
      <trkpt lat="47.00918" lon="6.29265">
        <ele>692</ele>
        <time>2022-06-05T05:47:42Z</time>
      </trkpt>
      <trkpt lat="47.00923" lon="6.29269">
        <ele>692</ele>
        <time>2022-06-05T05:47:47Z</time>
      </trkpt>
      <trkpt lat="47.01029" lon="6.29424">
        <ele>682</ele>
        <time>2022-06-05T05:49:47Z</time>
      </trkpt>
      <trkpt lat="47.01129" lon="6.29509">
        <ele>668</ele>
        <time>2022-06-05T05:51:19Z</time>
      </trkpt>
      <trkpt lat="47.0116" lon="6.2953">
        <ele>667</ele>
        <time>2022-06-05T05:51:47Z</time>
      </trkpt>
      <trkpt lat="47.01195" lon="6.29573">
        <ele>660</ele>
        <time>2022-06-05T05:52:23Z</time>
      </trkpt>
      <trkpt lat="47.01204" lon="6.29576">
        <ele>660</ele>
        <time>2022-06-05T05:52:31Z</time>
      </trkpt>
      <trkpt lat="47.01228" lon="6.29575">
        <ele>661</ele>
        <time>2022-06-05T05:52:50Z</time>
      </trkpt>
      <trkpt lat="47.01252" lon="6.29567">
        <ele>662</ele>
        <time>2022-06-05T05:53:10Z</time>
      </trkpt>
      <trkpt lat="47.0127" lon="6.29549">
        <ele>658</ele>
        <time>2022-06-05T05:53:27Z</time>
      </trkpt>
      <trkpt lat="47.0129" lon="6.29506">
        <ele>658</ele>
        <time>2022-06-05T05:53:56Z</time>
      </trkpt>
      <trkpt lat="47.01298" lon="6.29482">
        <ele>660</ele>
        <time>2022-06-05T05:54:10Z</time>
      </trkpt>
      <trkpt lat="47.01319" lon="6.29387">
        <ele>672</ele>
        <time>2022-06-05T05:55:05Z</time>
      </trkpt>
      <trkpt lat="47.01353" lon="6.29293">
        <ele>676</ele>
        <time>2022-06-05T05:56:03Z</time>
      </trkpt>
      <trkpt lat="47.01381" lon="6.29236">
        <ele>677</ele>
        <time>2022-06-05T05:56:41Z</time>
      </trkpt>
      <trkpt lat="47.0139" lon="6.29198">
        <ele>680</ele>
        <time>2022-06-05T05:57:03Z</time>
      </trkpt>
      <trkpt lat="47.01405" lon="6.29164">
        <ele>684</ele>
        <time>2022-06-05T05:57:25Z</time>
      </trkpt>
      <trkpt lat="47.01439" lon="6.29064">
        <ele>692</ele>
        <time>2022-06-05T05:58:26Z</time>
      </trkpt>
      <trkpt lat="47.01446" lon="6.29054">
        <ele>691</ele>
        <time>2022-06-05T05:58:34Z</time>
      </trkpt>
      <trkpt lat="47.01475" lon="6.29031">
        <ele>689</ele>
        <time>2022-06-05T05:59:01Z</time>
      </trkpt>
      <trkpt lat="47.01513" lon="6.29009">
        <ele>689</ele>
        <time>2022-06-05T05:59:33Z</time>
      </trkpt>
      <trkpt lat="47.01608" lon="6.28936">
        <ele>696</ele>
        <time>2022-06-05T06:00:59Z</time>
      </trkpt>
      <trkpt lat="47.01628" lon="6.28925">
        <ele>698</ele>
        <time>2022-06-05T06:01:17Z</time>
      </trkpt>
      <trkpt lat="47.0164" lon="6.28922">
        <ele>699</ele>
        <time>2022-06-05T06:01:26Z</time>
      </trkpt>
      <trkpt lat="47.01677" lon="6.28922">
        <ele>701</ele>
        <time>2022-06-05T06:01:56Z</time>
      </trkpt>
      <trkpt lat="47.01697" lon="6.28914">
        <ele>702</ele>
        <time>2022-06-05T06:02:13Z</time>
      </trkpt>
      <trkpt lat="47.01725" lon="6.28887">
        <ele>704</ele>
        <time>2022-06-05T06:02:39Z</time>
      </trkpt>
      <trkpt lat="47.01741" lon="6.28863">
        <ele>705</ele>
        <time>2022-06-05T06:02:58Z</time>
      </trkpt>
      <trkpt lat="47.01764" lon="6.28777">
        <ele>704</ele>
        <time>2022-06-05T06:03:48Z</time>
      </trkpt>
      <trkpt lat="47.01771" lon="6.2877">
        <ele>703</ele>
        <time>2022-06-05T06:03:55Z</time>
      </trkpt>
      <trkpt lat="47.01815" lon="6.28772">
        <ele>695</ele>
        <time>2022-06-05T06:04:30Z</time>
      </trkpt>
      <trkpt lat="47.01827" lon="6.28764">
        <ele>693</ele>
        <time>2022-06-05T06:04:41Z</time>
      </trkpt>
      <trkpt lat="47.01833" lon="6.28755">
        <ele>692</ele>
        <time>2022-06-05T06:04:48Z</time>
      </trkpt>
      <trkpt lat="47.01838" lon="6.28734">
        <ele>691</ele>
        <time>2022-06-05T06:05:00Z</time>
      </trkpt>
      <trkpt lat="47.01836" lon="6.28672">
        <ele>698</ele>
        <time>2022-06-05T06:05:34Z</time>
      </trkpt>
      <trkpt lat="47.0185" lon="6.28646">
        <ele>694</ele>
        <time>2022-06-05T06:05:52Z</time>
      </trkpt>
      <trkpt lat="47.01878" lon="6.28574">
        <ele>693</ele>
        <time>2022-06-05T06:06:37Z</time>
      </trkpt>
      <trkpt lat="47.01895" lon="6.28507">
        <ele>701</ele>
        <time>2022-06-05T06:07:16Z</time>
      </trkpt>
      <trkpt lat="47.01916" lon="6.28472">
        <ele>702</ele>
        <time>2022-06-05T06:07:42Z</time>
      </trkpt>
      <trkpt lat="47.0196" lon="6.28414">
        <ele>695</ele>
        <time>2022-06-05T06:08:29Z</time>
      </trkpt>
      <trkpt lat="47.01999" lon="6.28338">
        <ele>704</ele>
        <time>2022-06-05T06:09:21Z</time>
      </trkpt>
      <trkpt lat="47.0207" lon="6.28269">
        <ele>702</ele>
        <time>2022-06-05T06:10:29Z</time>
      </trkpt>
      <trkpt lat="47.02087" lon="6.28244">
        <ele>708</ele>
        <time>2022-06-05T06:10:49Z</time>
      </trkpt>
      <trkpt lat="47.02101" lon="6.28232">
        <ele>710</ele>
        <time>2022-06-05T06:11:02Z</time>
      </trkpt>
      <trkpt lat="47.02131" lon="6.28231">
        <ele>710</ele>
        <time>2022-06-05T06:11:26Z</time>
      </trkpt>
      <trkpt lat="47.02219" lon="6.28237">
        <ele>714</ele>
        <time>2022-06-05T06:12:36Z</time>
      </trkpt>
      <trkpt lat="47.02231" lon="6.28248">
        <ele>713</ele>
        <time>2022-06-05T06:12:48Z</time>
      </trkpt>
      <trkpt lat="47.02259" lon="6.28283">
        <ele>695</ele>
        <time>2022-06-05T06:13:17Z</time>
      </trkpt>
      <trkpt lat="47.02265" lon="6.28286">
        <ele>693</ele>
        <time>2022-06-05T06:13:22Z</time>
      </trkpt>
      <trkpt lat="47.02272" lon="6.28286">
        <ele>694</ele>
        <time>2022-06-05T06:13:28Z</time>
      </trkpt>
      <trkpt lat="47.02298" lon="6.28263">
        <ele>712</ele>
        <time>2022-06-05T06:13:52Z</time>
      </trkpt>
      <trkpt lat="47.02307" lon="6.28259">
        <ele>716</ele>
        <time>2022-06-05T06:14:00Z</time>
      </trkpt>
      <trkpt lat="47.02349" lon="6.28256">
        <ele>722</ele>
        <time>2022-06-05T06:14:33Z</time>
      </trkpt>
      <trkpt lat="47.02372" lon="6.28244">
        <ele>729</ele>
        <time>2022-06-05T06:14:53Z</time>
      </trkpt>
      <trkpt lat="47.02394" lon="6.28225">
        <ele>733</ele>
        <time>2022-06-05T06:15:14Z</time>
      </trkpt>
      <trkpt lat="47.02423" lon="6.28179">
        <ele>735</ele>
        <time>2022-06-05T06:15:48Z</time>
      </trkpt>
      <trkpt lat="47.02447" lon="6.28155">
        <ele>732</ele>
        <time>2022-06-05T06:16:11Z</time>
      </trkpt>
      <trkpt lat="47.02479" lon="6.28092">
        <ele>742</ele>
        <time>2022-06-05T06:16:54Z</time>
      </trkpt>
      <trkpt lat="47.02487" lon="6.28056">
        <ele>749</ele>
        <time>2022-06-05T06:17:15Z</time>
      </trkpt>
      <trkpt lat="47.02493" lon="6.28043">
        <ele>751</ele>
        <time>2022-06-05T06:17:23Z</time>
      </trkpt>
      <trkpt lat="47.02498" lon="6.28036">
        <ele>752</ele>
        <time>2022-06-05T06:17:29Z</time>
      </trkpt>
      <trkpt lat="47.02528" lon="6.28015">
        <ele>745</ele>
        <time>2022-06-05T06:17:55Z</time>
      </trkpt>
      <trkpt lat="47.02535" lon="6.28005">
        <ele>745</ele>
        <time>2022-06-05T06:18:03Z</time>
      </trkpt>
      <trkpt lat="47.02546" lon="6.27954">
        <ele>749</ele>
        <time>2022-06-05T06:18:32Z</time>
      </trkpt>
      <trkpt lat="47.02563" lon="6.27907">
        <ele>753</ele>
        <time>2022-06-05T06:19:02Z</time>
      </trkpt>
      <trkpt lat="47.02573" lon="6.27866">
        <ele>756</ele>
        <time>2022-06-05T06:19:25Z</time>
      </trkpt>
      <trkpt lat="47.02576" lon="6.27829">
        <ele>758</ele>
        <time>2022-06-05T06:19:46Z</time>
      </trkpt>
      <trkpt lat="47.02563" lon="6.27749">
        <ele>758</ele>
        <time>2022-06-05T06:20:31Z</time>
      </trkpt>
      <trkpt lat="47.02531" lon="6.27664">
        <ele>762</ele>
        <time>2022-06-05T06:21:24Z</time>
      </trkpt>
      <trkpt lat="47.02532" lon="6.27644">
        <ele>761</ele>
        <time>2022-06-05T06:21:35Z</time>
      </trkpt>
      <trkpt lat="47.02536" lon="6.27637">
        <ele>761</ele>
        <time>2022-06-05T06:21:40Z</time>
      </trkpt>
      <trkpt lat="47.02542" lon="6.27634">
        <ele>760</ele>
        <time>2022-06-05T06:21:45Z</time>
      </trkpt>
      <trkpt lat="47.02548" lon="6.27637">
        <ele>759</ele>
        <time>2022-06-05T06:21:50Z</time>
      </trkpt>
      <trkpt lat="47.02578" lon="6.27679">
        <ele>755</ele>
        <time>2022-06-05T06:22:23Z</time>
      </trkpt>
      <trkpt lat="47.02584" lon="6.27684">
        <ele>754</ele>
        <time>2022-06-05T06:22:29Z</time>
      </trkpt>
      <trkpt lat="47.02591" lon="6.27685">
        <ele>751</ele>
        <time>2022-06-05T06:22:34Z</time>
      </trkpt>
      <trkpt lat="47.02633" lon="6.27676">
        <ele>734</ele>
        <time>2022-06-05T06:23:08Z</time>
      </trkpt>
      <trkpt lat="47.02628" lon="6.27657">
        <ele>737</ele>
        <time>2022-06-05T06:23:19Z</time>
      </trkpt>
      <trkpt lat="47.02628" lon="6.27638">
        <ele>737</ele>
        <time>2022-06-05T06:23:30Z</time>
      </trkpt>
      <trkpt lat="47.02615" lon="6.27577">
        <ele>742</ele>
        <time>2022-06-05T06:24:05Z</time>
      </trkpt>
      <trkpt lat="47.02565" lon="6.27444">
        <ele>750</ele>
        <time>2022-06-05T06:25:28Z</time>
      </trkpt>
      <trkpt lat="47.02552" lon="6.27392">
        <ele>749</ele>
        <time>2022-06-05T06:25:58Z</time>
      </trkpt>
      <trkpt lat="47.02552" lon="6.2735">
        <ele>749</ele>
        <time>2022-06-05T06:26:21Z</time>
      </trkpt>
      <trkpt lat="47.02556" lon="6.27327">
        <ele>749</ele>
        <time>2022-06-05T06:26:34Z</time>
      </trkpt>
      <trkpt lat="47.02568" lon="6.27278">
        <ele>755</ele>
        <time>2022-06-05T06:27:02Z</time>
      </trkpt>
      <trkpt lat="47.02591" lon="6.27209">
        <ele>759</ele>
        <time>2022-06-05T06:27:44Z</time>
      </trkpt>
      <trkpt lat="47.02594" lon="6.27191">
        <ele>760</ele>
        <time>2022-06-05T06:27:54Z</time>
      </trkpt>
      <trkpt lat="47.02592" lon="6.27158">
        <ele>761</ele>
        <time>2022-06-05T06:28:12Z</time>
      </trkpt>
      <trkpt lat="47.02585" lon="6.27124">
        <ele>761</ele>
        <time>2022-06-05T06:28:32Z</time>
      </trkpt>
      <trkpt lat="47.02586" lon="6.27113">
        <ele>760</ele>
        <time>2022-06-05T06:28:38Z</time>
      </trkpt>
      <trkpt lat="47.02602" lon="6.27072">
        <ele>762</ele>
        <time>2022-06-05T06:29:04Z</time>
      </trkpt>
      <trkpt lat="47.02638" lon="6.2702">
        <ele>763</ele>
        <time>2022-06-05T06:29:44Z</time>
      </trkpt>
      <trkpt lat="47.02656" lon="6.26961">
        <ele>761</ele>
        <time>2022-06-05T06:30:20Z</time>
      </trkpt>
      <trkpt lat="47.02671" lon="6.26945">
        <ele>760</ele>
        <time>2022-06-05T06:30:34Z</time>
      </trkpt>
      <trkpt lat="47.02679" lon="6.26942">
        <ele>760</ele>
        <time>2022-06-05T06:30:41Z</time>
      </trkpt>
      <trkpt lat="47.02707" lon="6.26941">
        <ele>760</ele>
        <time>2022-06-05T06:31:03Z</time>
      </trkpt>
      <trkpt lat="47.027" lon="6.26892">
        <ele>761</ele>
        <time>2022-06-05T06:31:31Z</time>
      </trkpt>
      <trkpt lat="47.02679" lon="6.26807">
        <ele>757</ele>
        <time>2022-06-05T06:32:20Z</time>
      </trkpt>
      <trkpt lat="47.02668" lon="6.26683">
        <ele>756</ele>
        <time>2022-06-05T06:33:29Z</time>
      </trkpt>
      <trkpt lat="47.02689" lon="6.26676">
        <ele>760</ele>
        <time>2022-06-05T06:33:46Z</time>
      </trkpt>
      <trkpt lat="47.02703" lon="6.26676">
        <ele>763</ele>
        <time>2022-06-05T06:33:57Z</time>
      </trkpt>
      <trkpt lat="47.02728" lon="6.26685">
        <ele>767</ele>
        <time>2022-06-05T06:34:18Z</time>
      </trkpt>
      <trkpt lat="47.02754" lon="6.26707">
        <ele>771</ele>
        <time>2022-06-05T06:34:42Z</time>
      </trkpt>
      <trkpt lat="47.02765" lon="6.26719">
        <ele>773</ele>
        <time>2022-06-05T06:34:53Z</time>
      </trkpt>
      <trkpt lat="47.02817" lon="6.26854">
        <ele>777</ele>
        <time>2022-06-05T06:36:17Z</time>
      </trkpt>
      <trkpt lat="47.02828" lon="6.26864">
        <ele>777</ele>
        <time>2022-06-05T06:36:28Z</time>
      </trkpt>
      <trkpt lat="47.0284" lon="6.2687">
        <ele>777</ele>
        <time>2022-06-05T06:36:38Z</time>
      </trkpt>
      <trkpt lat="47.02846" lon="6.2687">
        <ele>778</ele>
        <time>2022-06-05T06:36:43Z</time>
      </trkpt>
      <trkpt lat="47.02885" lon="6.26856">
        <ele>782</ele>
        <time>2022-06-05T06:37:15Z</time>
      </trkpt>
      <trkpt lat="47.029" lon="6.26862">
        <ele>782</ele>
        <time>2022-06-05T06:37:27Z</time>
      </trkpt>
      <trkpt lat="47.0295" lon="6.26916">
        <ele>764</ele>
        <time>2022-06-05T06:38:17Z</time>
      </trkpt>
      <trkpt lat="47.0295" lon="6.26941">
        <ele>755</ele>
        <time>2022-06-05T06:38:31Z</time>
      </trkpt>
      <trkpt lat="47.02964" lon="6.2695">
        <ele>748</ele>
        <time>2022-06-05T06:38:43Z</time>
      </trkpt>
      <trkpt lat="47.02967" lon="6.2699">
        <ele>730</ele>
        <time>2022-06-05T06:39:05Z</time>
      </trkpt>
      <trkpt lat="47.02964" lon="6.2695">
        <ele>748</ele>
        <time>2022-06-05T06:39:27Z</time>
      </trkpt>
      <trkpt lat="47.02971" lon="6.26942">
        <ele>749</ele>
        <time>2022-06-05T06:39:34Z</time>
      </trkpt>
      <trkpt lat="47.02988" lon="6.26939">
        <ele>746</ele>
        <time>2022-06-05T06:39:48Z</time>
      </trkpt>
      <trkpt lat="47.02971" lon="6.26942">
        <ele>749</ele>
        <time>2022-06-05T06:40:02Z</time>
      </trkpt>
      <trkpt lat="47.02964" lon="6.2695">
        <ele>748</ele>
        <time>2022-06-05T06:40:09Z</time>
      </trkpt>
      <trkpt lat="47.0295" lon="6.26941">
        <ele>755</ele>
        <time>2022-06-05T06:40:21Z</time>
      </trkpt>
      <trkpt lat="47.0295" lon="6.26916">
        <ele>764</ele>
        <time>2022-06-05T06:40:35Z</time>
      </trkpt>
      <trkpt lat="47.02962" lon="6.26918">
        <ele>761</ele>
        <time>2022-06-05T06:40:44Z</time>
      </trkpt>
      <trkpt lat="47.0297" lon="6.26912">
        <ele>760</ele>
        <time>2022-06-05T06:40:51Z</time>
      </trkpt>
      <trkpt lat="47.02983" lon="6.26896">
        <ele>757</ele>
        <time>2022-06-05T06:41:05Z</time>
      </trkpt>
      <trkpt lat="47.02987" lon="6.26872">
        <ele>757</ele>
        <time>2022-06-05T06:41:19Z</time>
      </trkpt>
      <trkpt lat="47.02962" lon="6.26797">
        <ele>766</ele>
        <time>2022-06-05T06:42:04Z</time>
      </trkpt>
      <trkpt lat="47.0295" lon="6.26737">
        <ele>768</ele>
        <time>2022-06-05T06:42:38Z</time>
      </trkpt>
      <trkpt lat="47.02922" lon="6.26641">
        <ele>770</ele>
        <time>2022-06-05T06:43:35Z</time>
      </trkpt>
      <trkpt lat="47.02911" lon="6.26625">
        <ele>771</ele>
        <time>2022-06-05T06:43:48Z</time>
      </trkpt>
      <trkpt lat="47.02894" lon="6.26614">
        <ele>773</ele>
        <time>2022-06-05T06:44:03Z</time>
      </trkpt>
      <trkpt lat="47.02888" lon="6.26607">
        <ele>773</ele>
        <time>2022-06-05T06:44:09Z</time>
      </trkpt>
      <trkpt lat="47.02867" lon="6.26549">
        <ele>772</ele>
        <time>2022-06-05T06:44:45Z</time>
      </trkpt>
      <trkpt lat="47.02856" lon="6.2647">
        <ele>773</ele>
        <time>2022-06-05T06:45:29Z</time>
      </trkpt>
      <trkpt lat="47.02843" lon="6.26414">
        <ele>780</ele>
        <time>2022-06-05T06:46:01Z</time>
      </trkpt>
      <trkpt lat="47.02838" lon="6.26368">
        <ele>782</ele>
        <time>2022-06-05T06:46:27Z</time>
      </trkpt>
      <trkpt lat="47.02844" lon="6.26331">
        <ele>776</ele>
        <time>2022-06-05T06:46:47Z</time>
      </trkpt>
      <trkpt lat="47.02844" lon="6.26295">
        <ele>777</ele>
        <time>2022-06-05T06:47:07Z</time>
      </trkpt>
      <trkpt lat="47.02841" lon="6.26277">
        <ele>781</ele>
        <time>2022-06-05T06:47:17Z</time>
      </trkpt>
      <trkpt lat="47.02821" lon="6.26214">
        <ele>788</ele>
        <time>2022-06-05T06:47:55Z</time>
      </trkpt>
      <trkpt lat="47.02811" lon="6.26132">
        <ele>784</ele>
        <time>2022-06-05T06:48:41Z</time>
      </trkpt>
      <trkpt lat="47.02794" lon="6.26082">
        <ele>784</ele>
        <time>2022-06-05T06:49:11Z</time>
      </trkpt>
      <trkpt lat="47.02782" lon="6.26059">
        <ele>784</ele>
        <time>2022-06-05T06:49:27Z</time>
      </trkpt>
      <trkpt lat="47.02771" lon="6.26046">
        <ele>787</ele>
        <time>2022-06-05T06:49:38Z</time>
      </trkpt>
      <trkpt lat="47.02743" lon="6.26024">
        <ele>795</ele>
        <time>2022-06-05T06:50:04Z</time>
      </trkpt>
      <trkpt lat="47.02731" lon="6.26009">
        <ele>794</ele>
        <time>2022-06-05T06:50:16Z</time>
      </trkpt>
      <trkpt lat="47.02691" lon="6.2594">
        <ele>789</ele>
        <time>2022-06-05T06:51:06Z</time>
      </trkpt>
      <trkpt lat="47.02665" lon="6.25878">
        <ele>793</ele>
        <time>2022-06-05T06:51:46Z</time>
      </trkpt>
      <trkpt lat="47.02633" lon="6.25819">
        <ele>796</ele>
        <time>2022-06-05T06:52:27Z</time>
      </trkpt>
      <trkpt lat="47.02609" lon="6.25786">
        <ele>806</ele>
        <time>2022-06-05T06:52:53Z</time>
      </trkpt>
      <trkpt lat="47.02596" lon="6.25748">
        <ele>815</ele>
        <time>2022-06-05T06:53:16Z</time>
      </trkpt>
      <trkpt lat="47.02595" lon="6.2572">
        <ele>818</ele>
        <time>2022-06-05T06:53:32Z</time>
      </trkpt>
      <trkpt lat="47.02599" lon="6.25683">
        <ele>818</ele>
        <time>2022-06-05T06:53:52Z</time>
      </trkpt>
      <trkpt lat="47.02592" lon="6.25645">
        <ele>830</ele>
        <time>2022-06-05T06:54:14Z</time>
      </trkpt>
      <trkpt lat="47.02593" lon="6.25617">
        <ele>835</ele>
        <time>2022-06-05T06:54:29Z</time>
      </trkpt>
      <trkpt lat="47.02604" lon="6.25598">
        <ele>830</ele>
        <time>2022-06-05T06:54:43Z</time>
      </trkpt>
      <trkpt lat="47.02609" lon="6.25583">
        <ele>829</ele>
        <time>2022-06-05T06:54:52Z</time>
      </trkpt>
      <trkpt lat="47.02613" lon="6.25553">
        <ele>834</ele>
        <time>2022-06-05T06:55:08Z</time>
      </trkpt>
      <trkpt lat="47.02649" lon="6.25478">
        <ele>842</ele>
        <time>2022-06-05T06:55:59Z</time>
      </trkpt>
      <trkpt lat="47.02658" lon="6.2544">
        <ele>850</ele>
        <time>2022-06-05T06:56:21Z</time>
      </trkpt>
      <trkpt lat="47.02663" lon="6.25431">
        <ele>851</ele>
        <time>2022-06-05T06:56:27Z</time>
      </trkpt>
      <trkpt lat="47.02684" lon="6.25413">
        <ele>849</ele>
        <time>2022-06-05T06:56:46Z</time>
      </trkpt>
      <trkpt lat="47.02731" lon="6.25393">
        <ele>840</ele>
        <time>2022-06-05T06:57:26Z</time>
      </trkpt>
      <trkpt lat="47.02739" lon="6.25385">
        <ele>840</ele>
        <time>2022-06-05T06:57:33Z</time>
      </trkpt>
      <trkpt lat="47.02743" lon="6.25372">
        <ele>844</ele>
        <time>2022-06-05T06:57:41Z</time>
      </trkpt>
      <trkpt lat="47.0275" lon="6.25322">
        <ele>857</ele>
        <time>2022-06-05T06:58:09Z</time>
      </trkpt>
      <trkpt lat="47.02767" lon="6.25285">
        <ele>848</ele>
        <time>2022-06-05T06:58:33Z</time>
      </trkpt>
      <trkpt lat="47.02791" lon="6.25215">
        <ele>842</ele>
        <time>2022-06-05T06:59:16Z</time>
      </trkpt>
      <trkpt lat="47.02802" lon="6.25161">
        <ele>844</ele>
        <time>2022-06-05T06:59:47Z</time>
      </trkpt>
      <trkpt lat="47.02818" lon="6.25127">
        <ele>844</ele>
        <time>2022-06-05T07:00:10Z</time>
      </trkpt>
      <trkpt lat="47.0284" lon="6.25089">
        <ele>844</ele>
        <time>2022-06-05T07:00:37Z</time>
      </trkpt>
      <trkpt lat="47.02851" lon="6.25055">
        <ele>841</ele>
        <time>2022-06-05T07:00:57Z</time>
      </trkpt>
      <trkpt lat="47.02904" lon="6.24952">
        <ele>833</ele>
        <time>2022-06-05T07:02:08Z</time>
      </trkpt>
      <trkpt lat="47.02922" lon="6.24934">
        <ele>829</ele>
        <time>2022-06-05T07:02:25Z</time>
      </trkpt>
      <trkpt lat="47.02967" lon="6.24904">
        <ele>813</ele>
        <time>2022-06-05T07:03:05Z</time>
      </trkpt>
      <trkpt lat="47.03012" lon="6.24852">
        <ele>801</ele>
        <time>2022-06-05T07:03:51Z</time>
      </trkpt>
      <trkpt lat="47.03041" lon="6.24835">
        <ele>799</ele>
        <time>2022-06-05T07:04:16Z</time>
      </trkpt>
      <trkpt lat="47.03053" lon="6.24832">
        <ele>798</ele>
        <time>2022-06-05T07:04:26Z</time>
      </trkpt>
      <trkpt lat="47.03062" lon="6.24831">
        <ele>796</ele>
        <time>2022-06-05T07:04:33Z</time>
      </trkpt>
      <trkpt lat="47.03085" lon="6.24841">
        <ele>789</ele>
        <time>2022-06-05T07:04:52Z</time>
      </trkpt>
      <trkpt lat="47.03095" lon="6.24838">
        <ele>784</ele>
        <time>2022-06-05T07:05:00Z</time>
      </trkpt>
      <trkpt lat="47.03119" lon="6.24805">
        <ele>773</ele>
        <time>2022-06-05T07:05:27Z</time>
      </trkpt>
      <trkpt lat="47.03154" lon="6.24733">
        <ele>768</ele>
        <time>2022-06-05T07:06:15Z</time>
      </trkpt>
      <trkpt lat="47.03166" lon="6.24688">
        <ele>767</ele>
        <time>2022-06-05T07:06:41Z</time>
      </trkpt>
      <trkpt lat="47.03203" lon="6.2458">
        <ele>749</ele>
        <time>2022-06-05T07:07:47Z</time>
      </trkpt>
      <trkpt lat="47.03221" lon="6.24547">
        <ele>744</ele>
        <time>2022-06-05T07:08:11Z</time>
      </trkpt>
      <trkpt lat="47.03241" lon="6.24482">
        <ele>750</ele>
        <time>2022-06-05T07:08:49Z</time>
      </trkpt>
      <trkpt lat="47.03285" lon="6.24386">
        <ele>736</ele>
        <time>2022-06-05T07:09:53Z</time>
      </trkpt>
      <trkpt lat="47.0329" lon="6.24358">
        <ele>734</ele>
        <time>2022-06-05T07:10:08Z</time>
      </trkpt>
      <trkpt lat="47.03288" lon="6.24325">
        <ele>735</ele>
        <time>2022-06-05T07:10:27Z</time>
      </trkpt>
      <trkpt lat="47.03266" lon="6.24232">
        <ele>740</ele>
        <time>2022-06-05T07:11:20Z</time>
      </trkpt>
      <trkpt lat="47.03218" lon="6.24108">
        <ele>745</ele>
        <time>2022-06-05T07:12:38Z</time>
      </trkpt>
      <trkpt lat="47.03185" lon="6.24002">
        <ele>748</ele>
        <time>2022-06-05T07:13:42Z</time>
      </trkpt>
      <trkpt lat="47.03163" lon="6.23958">
        <ele>755</ele>
        <time>2022-06-05T07:14:12Z</time>
      </trkpt>
      <trkpt lat="47.03144" lon="6.23907">
        <ele>755</ele>
        <time>2022-06-05T07:14:43Z</time>
      </trkpt>
      <trkpt lat="47.03091" lon="6.2368">
        <ele>769</ele>
        <time>2022-06-05T07:16:55Z</time>
      </trkpt>
      <trkpt lat="47.03065" lon="6.23607">
        <ele>770</ele>
        <time>2022-06-05T07:17:40Z</time>
      </trkpt>
      <trkpt lat="47.03048" lon="6.23581">
        <ele>769</ele>
        <time>2022-06-05T07:17:59Z</time>
      </trkpt>
      <trkpt lat="47.03026" lon="6.23565">
        <ele>768</ele>
        <time>2022-06-05T07:18:19Z</time>
      </trkpt>
      <trkpt lat="47.02991" lon="6.23521">
        <ele>766</ele>
        <time>2022-06-05T07:18:56Z</time>
      </trkpt>
      <trkpt lat="47.02966" lon="6.23474">
        <ele>763</ele>
        <time>2022-06-05T07:19:28Z</time>
      </trkpt>
      <trkpt lat="47.02932" lon="6.23398">
        <ele>760</ele>
        <time>2022-06-05T07:20:18Z</time>
      </trkpt>
      <trkpt lat="47.02856" lon="6.2327">
        <ele>756</ele>
        <time>2022-06-05T07:21:51Z</time>
      </trkpt>
      <trkpt lat="47.02827" lon="6.232">
        <ele>755</ele>
        <time>2022-06-05T07:22:36Z</time>
      </trkpt>
      <trkpt lat="47.02792" lon="6.23139">
        <ele>750</ele>
        <time>2022-06-05T07:23:19Z</time>
      </trkpt>
      <trkpt lat="47.02778" lon="6.23118">
        <ele>749</ele>
        <time>2022-06-05T07:23:35Z</time>
      </trkpt>
      <trkpt lat="47.02774" lon="6.2313">
        <ele>752</ele>
        <time>2022-06-05T07:23:43Z</time>
      </trkpt>
      <trkpt lat="47.02768" lon="6.23131">
        <ele>753</ele>
        <time>2022-06-05T07:23:47Z</time>
      </trkpt>
      <trkpt lat="47.02736" lon="6.2311">
        <ele>755</ele>
        <time>2022-06-05T07:24:15Z</time>
      </trkpt>
      <trkpt lat="47.02718" lon="6.23104">
        <ele>755</ele>
        <time>2022-06-05T07:24:30Z</time>
      </trkpt>
      <trkpt lat="47.02631" lon="6.23096">
        <ele>761</ele>
        <time>2022-06-05T07:25:40Z</time>
      </trkpt>
      <trkpt lat="47.02536" lon="6.23075">
        <ele>770</ele>
        <time>2022-06-05T07:26:57Z</time>
      </trkpt>
      <trkpt lat="47.02533" lon="6.2303">
        <ele>770</ele>
        <time>2022-06-05T07:27:22Z</time>
      </trkpt>
      <trkpt lat="47.0245" lon="6.22829">
        <ele>790</ele>
        <time>2022-06-05T07:29:30Z</time>
      </trkpt>
      <trkpt lat="47.02317" lon="6.22557">
        <ele>799</ele>
        <time>2022-06-05T07:32:33Z</time>
      </trkpt>
      <trkpt lat="47.02268" lon="6.22492">
        <ele>799</ele>
        <time>2022-06-05T07:33:26Z</time>
      </trkpt>
      <trkpt lat="47.0221" lon="6.22474">
        <ele>805</ele>
        <time>2022-06-05T07:34:14Z</time>
      </trkpt>
      <trkpt lat="47.02134" lon="6.22444">
        <ele>808</ele>
        <time>2022-06-05T07:35:17Z</time>
      </trkpt>
      <trkpt lat="47.02096" lon="6.22408">
        <ele>804</ele>
        <time>2022-06-05T07:35:53Z</time>
      </trkpt>
      <trkpt lat="47.02074" lon="6.22375">
        <ele>803</ele>
        <time>2022-06-05T07:36:18Z</time>
      </trkpt>
      <trkpt lat="47.0206" lon="6.2234">
        <ele>801</ele>
        <time>2022-06-05T07:36:40Z</time>
      </trkpt>
      <trkpt lat="47.02041" lon="6.22251">
        <ele>803</ele>
        <time>2022-06-05T07:37:31Z</time>
      </trkpt>
      <trkpt lat="47.02015" lon="6.22184">
        <ele>804</ele>
        <time>2022-06-05T07:38:13Z</time>
      </trkpt>
      <trkpt lat="47.01986" lon="6.22134">
        <ele>809</ele>
        <time>2022-06-05T07:38:49Z</time>
      </trkpt>
      <trkpt lat="47.01988" lon="6.22054">
        <ele>806</ele>
        <time>2022-06-05T07:39:33Z</time>
      </trkpt>
      <trkpt lat="47.01909" lon="6.21859">
        <ele>816</ele>
        <time>2022-06-05T07:41:37Z</time>
      </trkpt>
      <trkpt lat="47.01854" lon="6.21691">
        <ele>822</ele>
        <time>2022-06-05T07:43:19Z</time>
      </trkpt>
      <trkpt lat="47.01796" lon="6.21611">
        <ele>831</ele>
        <time>2022-06-05T07:44:23Z</time>
      </trkpt>
      <trkpt lat="47.01766" lon="6.21562">
        <ele>837</ele>
        <time>2022-06-05T07:44:59Z</time>
      </trkpt>
      <trkpt lat="47.01707" lon="6.21407">
        <ele>846</ele>
        <time>2022-06-05T07:46:36Z</time>
      </trkpt>
      <trkpt lat="47.01672" lon="6.21302">
        <ele>856</ele>
        <time>2022-06-05T07:47:39Z</time>
      </trkpt>
      <trkpt lat="47.01636" lon="6.21187">
        <ele>857</ele>
        <time>2022-06-05T07:48:49Z</time>
      </trkpt>
      <trkpt lat="47.01475" lon="6.2049">
        <ele>804</ele>
        <time>2022-06-05T07:55:31Z</time>
      </trkpt>
      <trkpt lat="47.01456" lon="6.20437">
        <ele>800</ele>
        <time>2022-06-05T07:56:03Z</time>
      </trkpt>
      <trkpt lat="47.01443" lon="6.20416">
        <ele>799</ele>
        <time>2022-06-05T07:56:19Z</time>
      </trkpt>
      <trkpt lat="47.01385" lon="6.20376">
        <ele>791</ele>
        <time>2022-06-05T07:57:10Z</time>
      </trkpt>
      <trkpt lat="47.01367" lon="6.2037">
        <ele>789</ele>
        <time>2022-06-05T07:57:25Z</time>
      </trkpt>
      <trkpt lat="47.0135" lon="6.20381">
        <ele>791</ele>
        <time>2022-06-05T07:57:40Z</time>
      </trkpt>
      <trkpt lat="47.01327" lon="6.20405">
        <ele>795</ele>
        <time>2022-06-05T07:58:03Z</time>
      </trkpt>
      <trkpt lat="47.01317" lon="6.20412">
        <ele>798</ele>
        <time>2022-06-05T07:58:12Z</time>
      </trkpt>
      <trkpt lat="47.01304" lon="6.2041">
        <ele>800</ele>
        <time>2022-06-05T07:58:22Z</time>
      </trkpt>
      <trkpt lat="47.01294" lon="6.20394">
        <ele>800</ele>
        <time>2022-06-05T07:58:34Z</time>
      </trkpt>
      <trkpt lat="47.01281" lon="6.20347">
        <ele>797</ele>
        <time>2022-06-05T07:59:02Z</time>
      </trkpt>
      <trkpt lat="47.01271" lon="6.20238">
        <ele>786</ele>
        <time>2022-06-05T08:00:02Z</time>
      </trkpt>
      <trkpt lat="47.0127" lon="6.20194">
        <ele>779</ele>
        <time>2022-06-05T08:00:26Z</time>
      </trkpt>
      <trkpt lat="47.01281" lon="6.20077">
        <ele>765</ele>
        <time>2022-06-05T08:01:30Z</time>
      </trkpt>
      <trkpt lat="47.01263" lon="6.20012">
        <ele>761</ele>
        <time>2022-06-05T08:02:09Z</time>
      </trkpt>
      <trkpt lat="47.01243" lon="6.20026">
        <ele>766</ele>
        <time>2022-06-05T08:02:26Z</time>
      </trkpt>
      <trkpt lat="47.0123" lon="6.20039">
        <ele>766</ele>
        <time>2022-06-05T08:02:39Z</time>
      </trkpt>
      <trkpt lat="47.01221" lon="6.20063">
        <ele>768</ele>
        <time>2022-06-05T08:02:54Z</time>
      </trkpt>
      <trkpt lat="47.01188" lon="6.20269">
        <ele>782</ele>
        <time>2022-06-05T08:04:50Z</time>
      </trkpt>
      <trkpt lat="47.0116" lon="6.205">
        <ele>802</ele>
        <time>2022-06-05T08:06:58Z</time>
      </trkpt>
      <trkpt lat="47.01153" lon="6.20536">
        <ele>807</ele>
        <time>2022-06-05T08:07:18Z</time>
      </trkpt>
      <trkpt lat="47.01144" lon="6.20553">
        <ele>809</ele>
        <time>2022-06-05T08:07:30Z</time>
      </trkpt>
      <trkpt lat="47.01127" lon="6.20569">
        <ele>811</ele>
        <time>2022-06-05T08:07:46Z</time>
      </trkpt>
      <trkpt lat="47.01112" lon="6.20574">
        <ele>812</ele>
        <time>2022-06-05T08:07:59Z</time>
      </trkpt>
      <trkpt lat="47.011" lon="6.2057">
        <ele>811</ele>
        <time>2022-06-05T08:08:08Z</time>
      </trkpt>
      <trkpt lat="47.01089" lon="6.20559">
        <ele>809</ele>
        <time>2022-06-05T08:08:19Z</time>
      </trkpt>
      <trkpt lat="47.01078" lon="6.20535">
        <ele>807</ele>
        <time>2022-06-05T08:08:35Z</time>
      </trkpt>
      <trkpt lat="47.0103" lon="6.20406">
        <ele>810</ele>
        <time>2022-06-05T08:09:55Z</time>
      </trkpt>
      <trkpt lat="47.00985" lon="6.20258">
        <ele>815</ele>
        <time>2022-06-05T08:11:24Z</time>
      </trkpt>
      <trkpt lat="47.00969" lon="6.20221">
        <ele>812</ele>
        <time>2022-06-05T08:11:48Z</time>
      </trkpt>
      <trkpt lat="47.00962" lon="6.20218">
        <ele>812</ele>
        <time>2022-06-05T08:11:54Z</time>
      </trkpt>
      <trkpt lat="47.00826" lon="6.2027">
        <ele>817</ele>
        <time>2022-06-05T08:13:46Z</time>
      </trkpt>
      <trkpt lat="47.00816" lon="6.19988">
        <ele>805</ele>
        <time>2022-06-05T08:16:21Z</time>
      </trkpt>
      <trkpt lat="47.00789" lon="6.1986">
        <ele>809</ele>
        <time>2022-06-05T08:17:34Z</time>
      </trkpt>
      <trkpt lat="47.0078" lon="6.19779">
        <ele>805</ele>
        <time>2022-06-05T08:18:19Z</time>
      </trkpt>
      <trkpt lat="47.0078" lon="6.19686">
        <ele>804</ele>
        <time>2022-06-05T08:19:09Z</time>
      </trkpt>
      <trkpt lat="47.00774" lon="6.19618">
        <ele>801</ele>
        <time>2022-06-05T08:19:47Z</time>
      </trkpt>
      <trkpt lat="47.00761" lon="6.19557">
        <ele>797</ele>
        <time>2022-06-05T08:20:22Z</time>
      </trkpt>
      <trkpt lat="47.00747" lon="6.19516">
        <ele>794</ele>
        <time>2022-06-05T08:20:47Z</time>
      </trkpt>
      <trkpt lat="47.00708" lon="6.19434">
        <ele>795</ele>
        <time>2022-06-05T08:21:42Z</time>
      </trkpt>
      <trkpt lat="47.0072" lon="6.19288">
        <ele>802</ele>
        <time>2022-06-05T08:23:02Z</time>
      </trkpt>
      <trkpt lat="47.00699" lon="6.19069">
        <ele>799</ele>
        <time>2022-06-05T08:25:03Z</time>
      </trkpt>
      <trkpt lat="47.00668" lon="6.18894">
        <ele>794</ele>
        <time>2022-06-05T08:26:42Z</time>
      </trkpt>
      <trkpt lat="47.00668" lon="6.18876">
        <ele>794</ele>
        <time>2022-06-05T08:26:52Z</time>
      </trkpt>
      <trkpt lat="47.00671" lon="6.18863">
        <ele>795</ele>
        <time>2022-06-05T08:26:59Z</time>
      </trkpt>
      <trkpt lat="47.00688" lon="6.18831">
        <ele>797</ele>
        <time>2022-06-05T08:27:21Z</time>
      </trkpt>
      <trkpt lat="47.00707" lon="6.18807">
        <ele>801</ele>
        <time>2022-06-05T08:27:41Z</time>
      </trkpt>
      <trkpt lat="47.00597" lon="6.18735">
        <ele>793</ele>
        <time>2022-06-05T08:29:18Z</time>
      </trkpt>
      <trkpt lat="47.00543" lon="6.18681">
        <ele>797</ele>
        <time>2022-06-05T08:30:10Z</time>
      </trkpt>
      <trkpt lat="47.00545" lon="6.18652">
        <ele>797</ele>
        <time>2022-06-05T08:30:26Z</time>
      </trkpt>
      <trkpt lat="47.00542" lon="6.18603">
        <ele>799</ele>
        <time>2022-06-05T08:30:53Z</time>
      </trkpt>
      <trkpt lat="47.00535" lon="6.18567">
        <ele>800</ele>
        <time>2022-06-05T08:31:13Z</time>
      </trkpt>
      <trkpt lat="47.00522" lon="6.18542">
        <ele>798</ele>
        <time>2022-06-05T08:31:31Z</time>
      </trkpt>
      <trkpt lat="47.00526" lon="6.18445">
        <ele>797</ele>
        <time>2022-06-05T08:32:24Z</time>
      </trkpt>
      <trkpt lat="47.00525" lon="6.1832">
        <ele>798</ele>
        <time>2022-06-05T08:33:32Z</time>
      </trkpt>
      <trkpt lat="47.00529" lon="6.18296">
        <ele>798</ele>
        <time>2022-06-05T08:33:46Z</time>
      </trkpt>
      <trkpt lat="47.00552" lon="6.18254">
        <ele>799</ele>
        <time>2022-06-05T08:34:15Z</time>
      </trkpt>
      <trkpt lat="47.00587" lon="6.18228">
        <ele>802</ele>
        <time>2022-06-05T08:34:47Z</time>
      </trkpt>
      <trkpt lat="47.00626" lon="6.18194">
        <ele>804</ele>
        <time>2022-06-05T08:35:23Z</time>
      </trkpt>
      <trkpt lat="47.00653" lon="6.18176">
        <ele>804</ele>
        <time>2022-06-05T08:35:47Z</time>
      </trkpt>
      <trkpt lat="47.00691" lon="6.18139">
        <ele>803</ele>
        <time>2022-06-05T08:36:23Z</time>
      </trkpt>
      <trkpt lat="47.00732" lon="6.18081">
        <ele>801</ele>
        <time>2022-06-05T08:37:09Z</time>
      </trkpt>
      <trkpt lat="47.00763" lon="6.18027">
        <ele>798</ele>
        <time>2022-06-05T08:37:47Z</time>
      </trkpt>
      <trkpt lat="47.00782" lon="6.17984">
        <ele>794</ele>
        <time>2022-06-05T08:38:15Z</time>
      </trkpt>
      <trkpt lat="47.00793" lon="6.17941">
        <ele>792</ele>
        <time>2022-06-05T08:38:41Z</time>
      </trkpt>
      <trkpt lat="47.00798" lon="6.17896">
        <ele>791</ele>
        <time>2022-06-05T08:39:05Z</time>
      </trkpt>
      <trkpt lat="47.008" lon="6.17822">
        <ele>791</ele>
        <time>2022-06-05T08:39:46Z</time>
      </trkpt>
      <trkpt lat="47.00794" lon="6.17773">
        <ele>790</ele>
        <time>2022-06-05T08:40:13Z</time>
      </trkpt>
      <trkpt lat="47.00777" lon="6.1768">
        <ele>790</ele>
        <time>2022-06-05T08:41:06Z</time>
      </trkpt>
      <trkpt lat="47.00778" lon="6.17629">
        <ele>787</ele>
        <time>2022-06-05T08:41:34Z</time>
      </trkpt>
      <trkpt lat="47.00795" lon="6.17551">
        <ele>786</ele>
        <time>2022-06-05T08:42:18Z</time>
      </trkpt>
      <trkpt lat="47.00839" lon="6.17416">
        <ele>780</ele>
        <time>2022-06-05T08:43:40Z</time>
      </trkpt>
      <trkpt lat="47.00845" lon="6.17366">
        <ele>777</ele>
        <time>2022-06-05T08:44:08Z</time>
      </trkpt>
      <trkpt lat="47.00843" lon="6.17135">
        <ele>772</ele>
        <time>2022-06-05T08:46:14Z</time>
      </trkpt>
      <trkpt lat="47.0084" lon="6.17079">
        <ele>770</ele>
        <time>2022-06-05T08:46:45Z</time>
      </trkpt>
      <trkpt lat="47.00809" lon="6.16945">
        <ele>767</ele>
        <time>2022-06-05T08:48:02Z</time>
      </trkpt>
      <trkpt lat="47.00801" lon="6.16871">
        <ele>768</ele>
        <time>2022-06-05T08:48:43Z</time>
      </trkpt>
      <trkpt lat="47.00807" lon="6.16808">
        <ele>768</ele>
        <time>2022-06-05T08:49:18Z</time>
      </trkpt>
      <trkpt lat="47.00825" lon="6.1673">
        <ele>768</ele>
        <time>2022-06-05T08:50:03Z</time>
      </trkpt>
      <trkpt lat="47.00845" lon="6.16666">
        <ele>770</ele>
        <time>2022-06-05T08:50:41Z</time>
      </trkpt>
      <trkpt lat="47.00868" lon="6.16613">
        <ele>765</ele>
        <time>2022-06-05T08:51:16Z</time>
      </trkpt>
      <trkpt lat="47.00877" lon="6.16599">
        <ele>763</ele>
        <time>2022-06-05T08:51:26Z</time>
      </trkpt>
      <trkpt lat="47.00886" lon="6.16591">
        <ele>761</ele>
        <time>2022-06-05T08:51:35Z</time>
      </trkpt>
      <trkpt lat="47.00919" lon="6.16574">
        <ele>755</ele>
        <time>2022-06-05T08:52:03Z</time>
      </trkpt>
      <trkpt lat="47.00955" lon="6.16563">
        <ele>754</ele>
        <time>2022-06-05T08:52:32Z</time>
      </trkpt>
      <trkpt lat="47.00969" lon="6.16563">
        <ele>754</ele>
        <time>2022-06-05T08:52:43Z</time>
      </trkpt>
      <trkpt lat="47.00989" lon="6.16572">
        <ele>754</ele>
        <time>2022-06-05T08:53:00Z</time>
      </trkpt>
      <trkpt lat="47.0107" lon="6.16636">
        <ele>758</ele>
        <time>2022-06-05T08:54:14Z</time>
      </trkpt>
      <trkpt lat="47.01084" lon="6.16639">
        <ele>758</ele>
        <time>2022-06-05T08:54:25Z</time>
      </trkpt>
      <trkpt lat="47.01092" lon="6.16634">
        <ele>757</ele>
        <time>2022-06-05T08:54:32Z</time>
      </trkpt>
      <trkpt lat="47.01098" lon="6.16625">
        <ele>756</ele>
        <time>2022-06-05T08:54:39Z</time>
      </trkpt>
      <trkpt lat="47.01107" lon="6.16601">
        <ele>755</ele>
        <time>2022-06-05T08:54:54Z</time>
      </trkpt>
      <trkpt lat="47.01114" lon="6.16565">
        <ele>754</ele>
        <time>2022-06-05T08:55:15Z</time>
      </trkpt>
      <trkpt lat="47.0113" lon="6.16382">
        <ele>754</ele>
        <time>2022-06-05T08:56:55Z</time>
      </trkpt>
      <trkpt lat="47.0113" lon="6.16346">
        <ele>754</ele>
        <time>2022-06-05T08:57:15Z</time>
      </trkpt>
      <trkpt lat="47.01127" lon="6.16308">
        <ele>756</ele>
        <time>2022-06-05T08:57:36Z</time>
      </trkpt>
      <trkpt lat="47.01106" lon="6.16317">
        <ele>763</ele>
        <time>2022-06-05T08:57:54Z</time>
      </trkpt>
      <trkpt lat="47.01088" lon="6.16296">
        <ele>771</ele>
        <time>2022-06-05T08:58:12Z</time>
      </trkpt>
      <trkpt lat="47.01083" lon="6.16262">
        <ele>774</ele>
        <time>2022-06-05T08:58:31Z</time>
      </trkpt>
      <trkpt lat="47.01089" lon="6.16199">
        <ele>771</ele>
        <time>2022-06-05T08:59:06Z</time>
      </trkpt>
      <trkpt lat="47.01085" lon="6.16144">
        <ele>772</ele>
        <time>2022-06-05T08:59:36Z</time>
      </trkpt>
      <trkpt lat="47.0105" lon="6.16062">
        <ele>777</ele>
        <time>2022-06-05T09:00:29Z</time>
      </trkpt>
      <trkpt lat="47.00999" lon="6.15892">
        <ele>782</ele>
        <time>2022-06-05T09:02:10Z</time>
      </trkpt>
      <trkpt lat="47.00937" lon="6.15749">
        <ele>781</ele>
        <time>2022-06-05T09:03:43Z</time>
      </trkpt>
      <trkpt lat="47.00857" lon="6.15575">
        <ele>785</ele>
        <time>2022-06-05T09:05:38Z</time>
      </trkpt>
      <trkpt lat="47.00832" lon="6.15492">
        <ele>789</ele>
        <time>2022-06-05T09:06:27Z</time>
      </trkpt>
      <trkpt lat="47.00819" lon="6.15432">
        <ele>791</ele>
        <time>2022-06-05T09:07:02Z</time>
      </trkpt>
      <trkpt lat="47.00817" lon="6.15341">
        <ele>795</ele>
        <time>2022-06-05T09:07:51Z</time>
      </trkpt>
      <trkpt lat="47.00785" lon="6.15162">
        <ele>798</ele>
        <time>2022-06-05T09:09:33Z</time>
      </trkpt>
      <trkpt lat="47.00764" lon="6.15107">
        <ele>803</ele>
        <time>2022-06-05T09:10:07Z</time>
      </trkpt>
      <trkpt lat="47.00742" lon="6.15078">
        <ele>809</ele>
        <time>2022-06-05T09:10:31Z</time>
      </trkpt>
      <trkpt lat="47.00688" lon="6.14984">
        <ele>814</ele>
        <time>2022-06-05T09:11:38Z</time>
      </trkpt>
      <trkpt lat="47.00652" lon="6.14888">
        <ele>816</ele>
        <time>2022-06-05T09:12:38Z</time>
      </trkpt>
      <trkpt lat="47.00629" lon="6.14851">
        <ele>814</ele>
        <time>2022-06-05T09:13:05Z</time>
      </trkpt>
      <trkpt lat="47.00546" lon="6.14789">
        <ele>819</ele>
        <time>2022-06-05T09:14:20Z</time>
      </trkpt>
      <trkpt lat="47.00456" lon="6.14672">
        <ele>826</ele>
        <time>2022-06-05T09:15:56Z</time>
      </trkpt>
      <trkpt lat="47.00432" lon="6.14664">
        <ele>828</ele>
        <time>2022-06-05T09:16:16Z</time>
      </trkpt>
      <trkpt lat="47.00385" lon="6.14674">
        <ele>832</ele>
        <time>2022-06-05T09:16:54Z</time>
      </trkpt>
      <trkpt lat="47.00367" lon="6.14667">
        <ele>834</ele>
        <time>2022-06-05T09:17:09Z</time>
      </trkpt>
      <trkpt lat="47.00358" lon="6.14659">
        <ele>834</ele>
        <time>2022-06-05T09:17:17Z</time>
      </trkpt>
      <trkpt lat="47.00339" lon="6.14632">
        <ele>835</ele>
        <time>2022-06-05T09:17:39Z</time>
      </trkpt>
      <trkpt lat="47.00328" lon="6.14623">
        <ele>836</ele>
        <time>2022-06-05T09:17:49Z</time>
      </trkpt>
      <trkpt lat="47.00313" lon="6.14623">
        <ele>837</ele>
        <time>2022-06-05T09:18:01Z</time>
      </trkpt>
      <trkpt lat="47.00301" lon="6.14631">
        <ele>839</ele>
        <time>2022-06-05T09:18:11Z</time>
      </trkpt>
      <trkpt lat="47.00292" lon="6.14652">
        <ele>840</ele>
        <time>2022-06-05T09:18:25Z</time>
      </trkpt>
      <trkpt lat="47.00285" lon="6.14804">
        <ele>848</ele>
        <time>2022-06-05T09:19:48Z</time>
      </trkpt>
      <trkpt lat="47.00279" lon="6.14829">
        <ele>851</ele>
        <time>2022-06-05T09:20:03Z</time>
      </trkpt>
      <trkpt lat="47.00268" lon="6.14852">
        <ele>853</ele>
        <time>2022-06-05T09:20:18Z</time>
      </trkpt>
      <trkpt lat="47.00253" lon="6.14864">
        <ele>855</ele>
        <time>2022-06-05T09:20:32Z</time>
      </trkpt>
      <trkpt lat="47.00211" lon="6.14883">
        <ele>857</ele>
        <time>2022-06-05T09:21:07Z</time>
      </trkpt>
      <trkpt lat="47.00183" lon="6.14899">
        <ele>860</ele>
        <time>2022-06-05T09:21:31Z</time>
      </trkpt>
      <trkpt lat="47.00164" lon="6.14915">
        <ele>862</ele>
        <time>2022-06-05T09:21:48Z</time>
      </trkpt>
      <trkpt lat="47.0015" lon="6.14933">
        <ele>864</ele>
        <time>2022-06-05T09:22:03Z</time>
      </trkpt>
      <trkpt lat="47.00104" lon="6.15027">
        <ele>869</ele>
        <time>2022-06-05T09:23:07Z</time>
      </trkpt>
      <trkpt lat="47.00086" lon="6.15055">
        <ele>871</ele>
        <time>2022-06-05T09:23:28Z</time>
      </trkpt>
      <trkpt lat="47.00073" lon="6.15068">
        <ele>872</ele>
        <time>2022-06-05T09:23:40Z</time>
      </trkpt>
      <trkpt lat="47.00031" lon="6.15093">
        <ele>874</ele>
        <time>2022-06-05T09:24:17Z</time>
      </trkpt>
      <trkpt lat="46.99994" lon="6.15108">
        <ele>876</ele>
        <time>2022-06-05T09:24:47Z</time>
      </trkpt>
      <trkpt lat="46.9996" lon="6.15115">
        <ele>877</ele>
        <time>2022-06-05T09:25:15Z</time>
      </trkpt>
      <trkpt lat="46.99945" lon="6.15112">
        <ele>878</ele>
        <time>2022-06-05T09:25:27Z</time>
      </trkpt>
      <trkpt lat="46.99924" lon="6.15094">
        <ele>879</ele>
        <time>2022-06-05T09:25:47Z</time>
      </trkpt>
      <trkpt lat="46.99862" lon="6.15028">
        <ele>877</ele>
        <time>2022-06-05T09:26:48Z</time>
      </trkpt>
      <trkpt lat="46.9981" lon="6.14959">
        <ele>876</ele>
        <time>2022-06-05T09:27:44Z</time>
      </trkpt>
      <trkpt lat="46.99795" lon="6.14946">
        <ele>877</ele>
        <time>2022-06-05T09:27:58Z</time>
      </trkpt>
      <trkpt lat="46.99772" lon="6.14937">
        <ele>876</ele>
        <time>2022-06-05T09:28:17Z</time>
      </trkpt>
      <trkpt lat="46.99735" lon="6.14933">
        <ele>875</ele>
        <time>2022-06-05T09:28:47Z</time>
      </trkpt>
      <trkpt lat="46.99717" lon="6.14928">
        <ele>875</ele>
        <time>2022-06-05T09:29:02Z</time>
      </trkpt>
      <trkpt lat="46.99676" lon="6.14898">
        <ele>875</ele>
        <time>2022-06-05T09:29:38Z</time>
      </trkpt>
      <trkpt lat="46.99607" lon="6.1481">
        <ele>874</ele>
        <time>2022-06-05T09:30:52Z</time>
      </trkpt>
      <trkpt lat="46.99592" lon="6.14774">
        <ele>874</ele>
        <time>2022-06-05T09:31:15Z</time>
      </trkpt>
      <trkpt lat="46.99533" lon="6.14568">
        <ele>864</ele>
        <time>2022-06-05T09:33:17Z</time>
      </trkpt>
      <trkpt lat="46.99596" lon="6.14597">
        <ele>860</ele>
        <time>2022-06-05T09:34:10Z</time>
      </trkpt>
      <trkpt lat="46.99646" lon="6.14648">
        <ele>859</ele>
        <time>2022-06-05T09:34:59Z</time>
      </trkpt>
      <trkpt lat="46.99662" lon="6.14659">
        <ele>858</ele>
        <time>2022-06-05T09:35:13Z</time>
      </trkpt>
      <trkpt lat="46.99678" lon="6.14659">
        <ele>859</ele>
        <time>2022-06-05T09:35:26Z</time>
      </trkpt>
      <trkpt lat="46.99684" lon="6.14655">
        <ele>860</ele>
        <time>2022-06-05T09:35:31Z</time>
      </trkpt>
      <trkpt lat="46.99696" lon="6.14639">
        <ele>861</ele>
        <time>2022-06-05T09:35:44Z</time>
      </trkpt>
      <trkpt lat="46.99701" lon="6.14611">
        <ele>859</ele>
        <time>2022-06-05T09:36:00Z</time>
      </trkpt>
      <trkpt lat="46.997" lon="6.14592">
        <ele>858</ele>
        <time>2022-06-05T09:36:10Z</time>
      </trkpt>
      <trkpt lat="46.99694" lon="6.14576">
        <ele>856</ele>
        <time>2022-06-05T09:36:20Z</time>
      </trkpt>
      <trkpt lat="46.99672" lon="6.14539">
        <ele>849</ele>
        <time>2022-06-05T09:36:47Z</time>
      </trkpt>
      <trkpt lat="46.99647" lon="6.14483">
        <ele>847</ele>
        <time>2022-06-05T09:37:23Z</time>
      </trkpt>
      <trkpt lat="46.99638" lon="6.14456">
        <ele>848</ele>
        <time>2022-06-05T09:37:40Z</time>
      </trkpt>
      <trkpt lat="46.99597" lon="6.14389">
        <ele>844</ele>
        <time>2022-06-05T09:38:29Z</time>
      </trkpt>
      <trkpt lat="46.99581" lon="6.14358">
        <ele>844</ele>
        <time>2022-06-05T09:38:50Z</time>
      </trkpt>
      <trkpt lat="46.99572" lon="6.14315">
        <ele>845</ele>
        <time>2022-06-05T09:39:15Z</time>
      </trkpt>
      <trkpt lat="46.99551" lon="6.14113">
        <ele>836</ele>
        <time>2022-06-05T09:41:07Z</time>
      </trkpt>
      <trkpt lat="46.99549" lon="6.14053">
        <ele>832</ele>
        <time>2022-06-05T09:41:39Z</time>
      </trkpt>
      <trkpt lat="46.99553" lon="6.13959">
        <ele>824</ele>
        <time>2022-06-05T09:42:31Z</time>
      </trkpt>
      <trkpt lat="46.99562" lon="6.13922">
        <ele>818</ele>
        <time>2022-06-05T09:42:52Z</time>
      </trkpt>
      <trkpt lat="46.99579" lon="6.13802">
        <ele>805</ele>
        <time>2022-06-05T09:43:59Z</time>
      </trkpt>
      <trkpt lat="46.996" lon="6.13734">
        <ele>801</ele>
        <time>2022-06-05T09:44:40Z</time>
      </trkpt>
      <trkpt lat="46.9962" lon="6.13644">
        <ele>796</ele>
        <time>2022-06-05T09:45:32Z</time>
      </trkpt>
      <trkpt lat="46.9966" lon="6.13597">
        <ele>787</ele>
        <time>2022-06-05T09:46:13Z</time>
      </trkpt>
      <trkpt lat="46.99757" lon="6.13548">
        <ele>783</ele>
        <time>2022-06-05T09:47:35Z</time>
      </trkpt>
      <trkpt lat="46.99837" lon="6.1347">
        <ele>777</ele>
        <time>2022-06-05T09:48:52Z</time>
      </trkpt>
      <trkpt lat="46.99868" lon="6.13433">
        <ele>773</ele>
        <time>2022-06-05T09:49:24Z</time>
      </trkpt>
      <trkpt lat="46.99899" lon="6.13408">
        <ele>771</ele>
        <time>2022-06-05T09:49:53Z</time>
      </trkpt>
      <trkpt lat="46.99928" lon="6.134">
        <ele>771</ele>
        <time>2022-06-05T09:50:16Z</time>
      </trkpt>
      <trkpt lat="46.99965" lon="6.13395">
        <ele>772</ele>
        <time>2022-06-05T09:50:46Z</time>
      </trkpt>
      <trkpt lat="47.00011" lon="6.13381">
        <ele>772</ele>
        <time>2022-06-05T09:51:24Z</time>
      </trkpt>
      <trkpt lat="47.0005" lon="6.13365">
        <ele>769</ele>
        <time>2022-06-05T09:51:56Z</time>
      </trkpt>
      <trkpt lat="47.00117" lon="6.13326">
        <ele>762</ele>
        <time>2022-06-05T09:52:54Z</time>
      </trkpt>
      <trkpt lat="47.00163" lon="6.13306">
        <ele>758</ele>
        <time>2022-06-05T09:53:32Z</time>
      </trkpt>
      <trkpt lat="47.00188" lon="6.13304">
        <ele>758</ele>
        <time>2022-06-05T09:53:53Z</time>
      </trkpt>
      <trkpt lat="47.00266" lon="6.1331">
        <ele>761</ele>
        <time>2022-06-05T09:54:55Z</time>
      </trkpt>
      <trkpt lat="47.00344" lon="6.13287">
        <ele>761</ele>
        <time>2022-06-05T09:55:59Z</time>
      </trkpt>
      <trkpt lat="47.00423" lon="6.13289">
        <ele>756</ele>
        <time>2022-06-05T09:57:02Z</time>
      </trkpt>
      <trkpt lat="47.00442" lon="6.1328">
        <ele>751</ele>
        <time>2022-06-05T09:57:18Z</time>
      </trkpt>
      <trkpt lat="47.00452" lon="6.13272">
        <ele>749</ele>
        <time>2022-06-05T09:57:27Z</time>
      </trkpt>
      <trkpt lat="47.00489" lon="6.13234">
        <ele>746</ele>
        <time>2022-06-05T09:58:04Z</time>
      </trkpt>
      <trkpt lat="47.00563" lon="6.13148">
        <ele>755</ele>
        <time>2022-06-05T09:59:19Z</time>
      </trkpt>
      <trkpt lat="47.00578" lon="6.13123">
        <ele>755</ele>
        <time>2022-06-05T09:59:37Z</time>
      </trkpt>
      <trkpt lat="47.00584" lon="6.13104">
        <ele>755</ele>
        <time>2022-06-05T09:59:49Z</time>
      </trkpt>
      <trkpt lat="47.00588" lon="6.13084">
        <ele>756</ele>
        <time>2022-06-05T10:00:00Z</time>
      </trkpt>
      <trkpt lat="47.00593" lon="6.12999">
        <ele>757</ele>
        <time>2022-06-05T10:00:47Z</time>
      </trkpt>
      <trkpt lat="47.00624" lon="6.1292">
        <ele>758</ele>
        <time>2022-06-05T10:01:37Z</time>
      </trkpt>
      <trkpt lat="47.00626" lon="6.1285">
        <ele>756</ele>
        <time>2022-06-05T10:02:15Z</time>
      </trkpt>
      <trkpt lat="47.00638" lon="6.12742">
        <ele>751</ele>
        <time>2022-06-05T10:03:15Z</time>
      </trkpt>
      <trkpt lat="47.00669" lon="6.12626">
        <ele>750</ele>
        <time>2022-06-05T10:04:23Z</time>
      </trkpt>
      <trkpt lat="47.00685" lon="6.12579">
        <ele>748</ele>
        <time>2022-06-05T10:04:52Z</time>
      </trkpt>
      <trkpt lat="47.00693" lon="6.12483">
        <ele>748</ele>
        <time>2022-06-05T10:05:45Z</time>
      </trkpt>
      <trkpt lat="47.00724" lon="6.12408">
        <ele>742</ele>
        <time>2022-06-05T10:06:32Z</time>
      </trkpt>
      <trkpt lat="47.00742" lon="6.12354">
        <ele>740</ele>
        <time>2022-06-05T10:07:05Z</time>
      </trkpt>
      <trkpt lat="47.00767" lon="6.12292">
        <ele>739</ele>
        <time>2022-06-05T10:07:45Z</time>
      </trkpt>
      <trkpt lat="47.00785" lon="6.12255">
        <ele>740</ele>
        <time>2022-06-05T10:08:10Z</time>
      </trkpt>
      <trkpt lat="47.00893" lon="6.12118">
        <ele>734</ele>
        <time>2022-06-05T10:10:04Z</time>
      </trkpt>
      <trkpt lat="47.00936" lon="6.12082">
        <ele>729</ele>
        <time>2022-06-05T10:10:44Z</time>
      </trkpt>
      <trkpt lat="47.01034" lon="6.12017">
        <ele>715</ele>
        <time>2022-06-05T10:12:10Z</time>
      </trkpt>
      <trkpt lat="47.01052" lon="6.12012">
        <ele>713</ele>
        <time>2022-06-05T10:12:25Z</time>
      </trkpt>
      <trkpt lat="47.01063" lon="6.12002">
        <ele>712</ele>
        <time>2022-06-05T10:12:35Z</time>
      </trkpt>
      <trkpt lat="47.01125" lon="6.11914">
        <ele>706</ele>
        <time>2022-06-05T10:13:44Z</time>
      </trkpt>
      <trkpt lat="47.01135" lon="6.11894">
        <ele>705</ele>
        <time>2022-06-05T10:13:58Z</time>
      </trkpt>
      <trkpt lat="47.01139" lon="6.11878">
        <ele>705</ele>
        <time>2022-06-05T10:14:07Z</time>
      </trkpt>
      <trkpt lat="47.01138" lon="6.11859">
        <ele>705</ele>
        <time>2022-06-05T10:14:17Z</time>
      </trkpt>
      <trkpt lat="47.01133" lon="6.11833">
        <ele>705</ele>
        <time>2022-06-05T10:14:32Z</time>
      </trkpt>
      <trkpt lat="47.01116" lon="6.11784">
        <ele>704</ele>
        <time>2022-06-05T10:15:02Z</time>
      </trkpt>
      <trkpt lat="47.01144" lon="6.11756">
        <ele>699</ele>
        <time>2022-06-05T10:15:29Z</time>
      </trkpt>
      <trkpt lat="47.01182" lon="6.11744">
        <ele>694</ele>
        <time>2022-06-05T10:16:00Z</time>
      </trkpt>
      <trkpt lat="47.01225" lon="6.11714">
        <ele>689</ele>
        <time>2022-06-05T10:16:39Z</time>
      </trkpt>
      <trkpt lat="47.01285" lon="6.11758">
        <ele>686</ele>
        <time>2022-06-05T10:17:32Z</time>
      </trkpt>
      <trkpt lat="47.01362" lon="6.11788">
        <ele>682</ele>
        <time>2022-06-05T10:18:36Z</time>
      </trkpt>
      <trkpt lat="47.01389" lon="6.11809">
        <ele>680</ele>
        <time>2022-06-05T10:19:01Z</time>
      </trkpt>
      <trkpt lat="47.01427" lon="6.11828">
        <ele>678</ele>
        <time>2022-06-05T10:19:33Z</time>
      </trkpt>
      <trkpt lat="47.01564" lon="6.11514">
        <ele>665</ele>
        <time>2022-06-05T10:22:57Z</time>
      </trkpt>
      <trkpt lat="47.01599" lon="6.11444">
        <ele>663</ele>
        <time>2022-06-05T10:23:44Z</time>
      </trkpt>
      <trkpt lat="47.01655" lon="6.11371">
        <ele>659</ele>
        <time>2022-06-05T10:24:44Z</time>
      </trkpt>
      <trkpt lat="47.01711" lon="6.1131">
        <ele>656</ele>
        <time>2022-06-05T10:25:40Z</time>
      </trkpt>
      <trkpt lat="47.0173" lon="6.11295">
        <ele>656</ele>
        <time>2022-06-05T10:25:57Z</time>
      </trkpt>
      <trkpt lat="47.01772" lon="6.11274">
        <ele>655</ele>
        <time>2022-06-05T10:26:33Z</time>
      </trkpt>
      <trkpt lat="47.01831" lon="6.11249">
        <ele>654</ele>
        <time>2022-06-05T10:27:22Z</time>
      </trkpt>
      <trkpt lat="47.01861" lon="6.11232">
        <ele>653</ele>
        <time>2022-06-05T10:27:48Z</time>
      </trkpt>
      <trkpt lat="47.01878" lon="6.11217">
        <ele>652</ele>
        <time>2022-06-05T10:28:04Z</time>
      </trkpt>
      <trkpt lat="47.01893" lon="6.11173">
        <ele>651</ele>
        <time>2022-06-05T10:28:31Z</time>
      </trkpt>
      <trkpt lat="47.01917" lon="6.1113">
        <ele>649</ele>
        <time>2022-06-05T10:29:01Z</time>
      </trkpt>
      <trkpt lat="47.01966" lon="6.11071">
        <ele>644</ele>
        <time>2022-06-05T10:29:52Z</time>
      </trkpt>
      <trkpt lat="47.0197" lon="6.11052">
        <ele>643</ele>
        <time>2022-06-05T10:30:03Z</time>
      </trkpt>
      <trkpt lat="47.01855" lon="6.10819">
        <ele>632</ele>
        <time>2022-06-05T10:32:40Z</time>
      </trkpt>
      <trkpt lat="47.01846" lon="6.10799">
        <ele>632</ele>
        <time>2022-06-05T10:32:53Z</time>
      </trkpt>
      <trkpt lat="47.01845" lon="6.10785">
        <ele>632</ele>
        <time>2022-06-05T10:33:01Z</time>
      </trkpt>
      <trkpt lat="47.01838" lon="6.10783">
        <ele>632</ele>
        <time>2022-06-05T10:33:06Z</time>
      </trkpt>
      <trkpt lat="47.01833" lon="6.10776">
        <ele>632</ele>
        <time>2022-06-05T10:33:12Z</time>
      </trkpt>
      <trkpt lat="47.0181" lon="6.10713">
        <ele>634</ele>
        <time>2022-06-05T10:33:51Z</time>
      </trkpt>
      <trkpt lat="47.01794" lon="6.10643">
        <ele>635</ele>
        <time>2022-06-05T10:34:31Z</time>
      </trkpt>
      <trkpt lat="47.01789" lon="6.10643">
        <ele>635</ele>
        <time>2022-06-05T10:34:35Z</time>
      </trkpt>
      <trkpt lat="47.01786" lon="6.10639">
        <ele>636</ele>
        <time>2022-06-05T10:34:39Z</time>
      </trkpt>
      <trkpt lat="47.01691" lon="6.10494">
        <ele>636</ele>
        <time>2022-06-05T10:36:29Z</time>
      </trkpt>
      <trkpt lat="47.01639" lon="6.10434">
        <ele>635</ele>
        <time>2022-06-05T10:37:22Z</time>
      </trkpt>
      <trkpt lat="47.01625" lon="6.10423">
        <ele>636</ele>
        <time>2022-06-05T10:37:34Z</time>
      </trkpt>
      <trkpt lat="47.01563" lon="6.10361">
        <ele>638</ele>
        <time>2022-06-05T10:38:34Z</time>
      </trkpt>
      <trkpt lat="47.0155" lon="6.10343">
        <ele>638</ele>
        <time>2022-06-05T10:38:49Z</time>
      </trkpt>
      <trkpt lat="47.01543" lon="6.10328">
        <ele>639</ele>
        <time>2022-06-05T10:38:59Z</time>
      </trkpt>
      <trkpt lat="47.01507" lon="6.10209">
        <ele>638</ele>
        <time>2022-06-05T10:40:10Z</time>
      </trkpt>
      <trkpt lat="47.01479" lon="6.10131">
        <ele>638</ele>
        <time>2022-06-05T10:40:58Z</time>
      </trkpt>
      <trkpt lat="47.01398" lon="6.09909">
        <ele>639</ele>
        <time>2022-06-05T10:43:16Z</time>
      </trkpt>
      <trkpt lat="47.01394" lon="6.099">
        <ele>639</ele>
        <time>2022-06-05T10:43:21Z</time>
      </trkpt>
      <trkpt lat="47.01389" lon="6.09896">
        <ele>639</ele>
        <time>2022-06-05T10:43:26Z</time>
      </trkpt>
      <trkpt lat="47.01382" lon="6.09894">
        <ele>639</ele>
        <time>2022-06-05T10:43:32Z</time>
      </trkpt>
      <trkpt lat="47.01351" lon="6.09907">
        <ele>640</ele>
        <time>2022-06-05T10:43:58Z</time>
      </trkpt>
      <trkpt lat="47.00963" lon="6.10099">
        <ele>661</ele>
        <time>2022-06-05T10:49:26Z</time>
      </trkpt>
      <trkpt lat="47.00812" lon="6.10191">
        <ele>681</ele>
        <time>2022-06-05T10:51:37Z</time>
      </trkpt>
      <trkpt lat="47.00769" lon="6.10232">
        <ele>695</ele>
        <time>2022-06-05T10:52:18Z</time>
      </trkpt>
      <trkpt lat="47.00759" lon="6.1023">
        <ele>698</ele>
        <time>2022-06-05T10:52:26Z</time>
      </trkpt>
      <trkpt lat="47.00701" lon="6.10101">
        <ele>694</ele>
        <time>2022-06-05T10:53:50Z</time>
      </trkpt>
      <trkpt lat="47.00673" lon="6.10067">
        <ele>699</ele>
        <time>2022-06-05T10:54:20Z</time>
      </trkpt>
      <trkpt lat="47.006" lon="6.10063">
        <ele>710</ele>
        <time>2022-06-05T10:55:18Z</time>
      </trkpt>
      <trkpt lat="47.0054" lon="6.09985">
        <ele>716</ele>
        <time>2022-06-05T10:56:22Z</time>
      </trkpt>
      <trkpt lat="47.00526" lon="6.09941">
        <ele>713</ele>
        <time>2022-06-05T10:56:49Z</time>
      </trkpt>
      <trkpt lat="47.00477" lon="6.09905">
        <ele>714</ele>
        <time>2022-06-05T10:57:33Z</time>
      </trkpt>
      <trkpt lat="47.00446" lon="6.09856">
        <ele>708</ele>
        <time>2022-06-05T10:58:09Z</time>
      </trkpt>
      <trkpt lat="47.00425" lon="6.09838">
        <ele>708</ele>
        <time>2022-06-05T10:58:29Z</time>
      </trkpt>
      <trkpt lat="47.00409" lon="6.09838">
        <ele>712</ele>
        <time>2022-06-05T10:58:42Z</time>
      </trkpt>
      <trkpt lat="47.00363" lon="6.09856">
        <ele>725</ele>
        <time>2022-06-05T10:59:20Z</time>
      </trkpt>
      <trkpt lat="47.00357" lon="6.09812">
        <ele>720</ele>
        <time>2022-06-05T10:59:44Z</time>
      </trkpt>
      <trkpt lat="47.00345" lon="6.09772">
        <ele>716</ele>
        <time>2022-06-05T11:00:08Z</time>
      </trkpt>
      <trkpt lat="47.00304" lon="6.09727">
        <ele>718</ele>
        <time>2022-06-05T11:00:49Z</time>
      </trkpt>
      <trkpt lat="47.00263" lon="6.09701">
        <ele>723</ele>
        <time>2022-06-05T11:01:25Z</time>
      </trkpt>
      <trkpt lat="47.00124" lon="6.09643">
        <ele>728</ele>
        <time>2022-06-05T11:03:21Z</time>
      </trkpt>
      <trkpt lat="47.0006" lon="6.09626">
        <ele>730</ele>
        <time>2022-06-05T11:04:13Z</time>
      </trkpt>
      <trkpt lat="47.00035" lon="6.09623">
        <ele>731</ele>
        <time>2022-06-05T11:04:33Z</time>
      </trkpt>
      <trkpt lat="47.00018" lon="6.09631">
        <ele>734</ele>
        <time>2022-06-05T11:04:48Z</time>
      </trkpt>
      <trkpt lat="46.99927" lon="6.09719">
        <ele>755</ele>
        <time>2022-06-05T11:06:15Z</time>
      </trkpt>
      <trkpt lat="46.99894" lon="6.09727">
        <ele>755</ele>
        <time>2022-06-05T11:06:42Z</time>
      </trkpt>
      <trkpt lat="46.99882" lon="6.09711">
        <ele>755</ele>
        <time>2022-06-05T11:06:55Z</time>
      </trkpt>
      <trkpt lat="46.99821" lon="6.09586">
        <ele>763</ele>
        <time>2022-06-05T11:08:19Z</time>
      </trkpt>
      <trkpt lat="46.99817" lon="6.09551">
        <ele>762</ele>
        <time>2022-06-05T11:08:38Z</time>
      </trkpt>
      <trkpt lat="46.99818" lon="6.09465">
        <ele>759</ele>
        <time>2022-06-05T11:09:25Z</time>
      </trkpt>
      <trkpt lat="46.99803" lon="6.09444">
        <ele>758</ele>
        <time>2022-06-05T11:09:42Z</time>
      </trkpt>
      <trkpt lat="46.99818" lon="6.09329">
        <ele>756</ele>
        <time>2022-06-05T11:10:46Z</time>
      </trkpt>
      <trkpt lat="46.99745" lon="6.09068">
        <ele>767</ele>
        <time>2022-06-05T11:13:20Z</time>
      </trkpt>
      <trkpt lat="46.99742" lon="6.09042">
        <ele>768</ele>
        <time>2022-06-05T11:13:34Z</time>
      </trkpt>
      <trkpt lat="46.99748" lon="6.08992">
        <ele>770</ele>
        <time>2022-06-05T11:14:02Z</time>
      </trkpt>
      <trkpt lat="46.99742" lon="6.08938">
        <ele>772</ele>
        <time>2022-06-05T11:14:32Z</time>
      </trkpt>
      <trkpt lat="46.99741" lon="6.08852">
        <ele>776</ele>
        <time>2022-06-05T11:15:19Z</time>
      </trkpt>
      <trkpt lat="46.99735" lon="6.08752">
        <ele>778</ele>
        <time>2022-06-05T11:16:14Z</time>
      </trkpt>
      <trkpt lat="46.99676" lon="6.0858">
        <ele>787</ele>
        <time>2022-06-05T11:17:59Z</time>
      </trkpt>
      <trkpt lat="46.99652" lon="6.08518">
        <ele>789</ele>
        <time>2022-06-05T11:18:38Z</time>
      </trkpt>
      <trkpt lat="46.99645" lon="6.08336">
        <ele>791</ele>
        <time>2022-06-05T11:20:18Z</time>
      </trkpt>
      <trkpt lat="46.99633" lon="6.08262">
        <ele>790</ele>
        <time>2022-06-05T11:20:59Z</time>
      </trkpt>
      <trkpt lat="46.99632" lon="6.08237">
        <ele>790</ele>
        <time>2022-06-05T11:21:13Z</time>
      </trkpt>
      <trkpt lat="46.99636" lon="6.08213">
        <ele>791</ele>
        <time>2022-06-05T11:21:27Z</time>
      </trkpt>
      <trkpt lat="46.99649" lon="6.08183">
        <ele>791</ele>
        <time>2022-06-05T11:21:46Z</time>
      </trkpt>
      <trkpt lat="46.99677" lon="6.0814">
        <ele>793</ele>
        <time>2022-06-05T11:22:19Z</time>
      </trkpt>
      <trkpt lat="46.99681" lon="6.08122">
        <ele>794</ele>
        <time>2022-06-05T11:22:29Z</time>
      </trkpt>
      <trkpt lat="46.99672" lon="6.08038">
        <ele>793</ele>
        <time>2022-06-05T11:23:15Z</time>
      </trkpt>
      <trkpt lat="46.9967" lon="6.07982">
        <ele>792</ele>
        <time>2022-06-05T11:23:46Z</time>
      </trkpt>
      <trkpt lat="46.99664" lon="6.07924">
        <ele>790</ele>
        <time>2022-06-05T11:24:18Z</time>
      </trkpt>
      <trkpt lat="46.99664" lon="6.07877">
        <ele>789</ele>
        <time>2022-06-05T11:24:44Z</time>
      </trkpt>
      <trkpt lat="46.99678" lon="6.07752">
        <ele>787</ele>
        <time>2022-06-05T11:25:53Z</time>
      </trkpt>
      <trkpt lat="46.99676" lon="6.077">
        <ele>784</ele>
        <time>2022-06-05T11:26:22Z</time>
      </trkpt>
      <trkpt lat="46.99667" lon="6.07659">
        <ele>783</ele>
        <time>2022-06-05T11:26:45Z</time>
      </trkpt>
      <trkpt lat="46.99656" lon="6.07583">
        <ele>783</ele>
        <time>2022-06-05T11:27:28Z</time>
      </trkpt>
      <trkpt lat="46.99661" lon="6.07435">
        <ele>775</ele>
        <time>2022-06-05T11:28:49Z</time>
      </trkpt>
      <trkpt lat="46.99678" lon="6.07299">
        <ele>769</ele>
        <time>2022-06-05T11:30:04Z</time>
      </trkpt>
      <trkpt lat="46.99679" lon="6.07247">
        <ele>768</ele>
        <time>2022-06-05T11:30:33Z</time>
      </trkpt>
      <trkpt lat="46.99774" lon="6.07254">
        <ele>766</ele>
        <time>2022-06-05T11:31:49Z</time>
      </trkpt>
      <trkpt lat="46.99798" lon="6.07251">
        <ele>764</ele>
        <time>2022-06-05T11:32:08Z</time>
      </trkpt>
      <trkpt lat="46.99809" lon="6.07241">
        <ele>763</ele>
        <time>2022-06-05T11:32:18Z</time>
      </trkpt>
      <trkpt lat="46.99817" lon="6.07224">
        <ele>761</ele>
        <time>2022-06-05T11:32:30Z</time>
      </trkpt>
      <trkpt lat="46.99821" lon="6.07195">
        <ele>760</ele>
        <time>2022-06-05T11:32:46Z</time>
      </trkpt>
      <trkpt lat="46.99825" lon="6.0711">
        <ele>757</ele>
        <time>2022-06-05T11:33:33Z</time>
      </trkpt>
      <trkpt lat="46.99832" lon="6.07086">
        <ele>755</ele>
        <time>2022-06-05T11:33:47Z</time>
      </trkpt>
      <trkpt lat="46.99863" lon="6.07021">
        <ele>750</ele>
        <time>2022-06-05T11:34:30Z</time>
      </trkpt>
      <trkpt lat="46.99892" lon="6.06948">
        <ele>746</ele>
        <time>2022-06-05T11:35:16Z</time>
      </trkpt>
      <trkpt lat="46.99949" lon="6.06867">
        <ele>739</ele>
        <time>2022-06-05T11:36:20Z</time>
      </trkpt>
      <trkpt lat="46.9996" lon="6.06859">
        <ele>738</ele>
        <time>2022-06-05T11:36:30Z</time>
      </trkpt>
      <trkpt lat="46.99978" lon="6.06857">
        <ele>737</ele>
        <time>2022-06-05T11:36:44Z</time>
      </trkpt>
      <trkpt lat="46.99919" lon="6.06719">
        <ele>735</ele>
        <time>2022-06-05T11:38:13Z</time>
      </trkpt>
      <trkpt lat="46.99915" lon="6.06702">
        <ele>734</ele>
        <time>2022-06-05T11:38:23Z</time>
      </trkpt>
      <trkpt lat="46.99877" lon="6.06601">
        <ele>729</ele>
        <time>2022-06-05T11:39:26Z</time>
      </trkpt>
      <trkpt lat="46.99842" lon="6.06531">
        <ele>727</ele>
        <time>2022-06-05T11:40:14Z</time>
      </trkpt>
      <trkpt lat="46.99805" lon="6.06491">
        <ele>725</ele>
        <time>2022-06-05T11:40:50Z</time>
      </trkpt>
      <trkpt lat="46.99819" lon="6.06484">
        <ele>724</ele>
        <time>2022-06-05T11:41:02Z</time>
      </trkpt>
      <trkpt lat="46.99847" lon="6.06448">
        <ele>718</ele>
        <time>2022-06-05T11:41:32Z</time>
      </trkpt>
      <trkpt lat="46.99866" lon="6.06436">
        <ele>715</ele>
        <time>2022-06-05T11:41:49Z</time>
      </trkpt>
      <trkpt lat="46.99971" lon="6.06402">
        <ele>706</ele>
        <time>2022-06-05T11:43:15Z</time>
      </trkpt>
      <trkpt lat="46.99833" lon="6.06218">
        <ele>702</ele>
        <time>2022-06-05T11:45:44Z</time>
      </trkpt>
      <trkpt lat="46.99821" lon="6.06198">
        <ele>703</ele>
        <time>2022-06-05T11:45:59Z</time>
      </trkpt>
      <trkpt lat="46.99769" lon="6.06073">
        <ele>697</ele>
        <time>2022-06-05T11:47:19Z</time>
      </trkpt>
      <trkpt lat="46.99726" lon="6.05992">
        <ele>694</ele>
        <time>2022-06-05T11:48:15Z</time>
      </trkpt>
      <trkpt lat="46.99691" lon="6.05914">
        <ele>690</ele>
        <time>2022-06-05T11:49:06Z</time>
      </trkpt>
      <trkpt lat="46.99619" lon="6.05709">
        <ele>686</ele>
        <time>2022-06-05T11:51:12Z</time>
      </trkpt>
      <trkpt lat="46.99607" lon="6.05685">
        <ele>685</ele>
        <time>2022-06-05T11:51:28Z</time>
      </trkpt>
      <trkpt lat="46.99588" lon="6.05657">
        <ele>684</ele>
        <time>2022-06-05T11:51:50Z</time>
      </trkpt>
      <trkpt lat="46.9949" lon="6.05537">
        <ele>684</ele>
        <time>2022-06-05T11:53:32Z</time>
      </trkpt>
      <trkpt lat="46.99475" lon="6.05513">
        <ele>686</ele>
        <time>2022-06-05T11:53:50Z</time>
      </trkpt>
      <trkpt lat="46.99465" lon="6.05465">
        <ele>688</ele>
        <time>2022-06-05T11:54:18Z</time>
      </trkpt>
      <trkpt lat="46.99458" lon="6.05414">
        <ele>691</ele>
        <time>2022-06-05T11:54:46Z</time>
      </trkpt>
      <trkpt lat="46.99458" lon="6.05392">
        <ele>693</ele>
        <time>2022-06-05T11:54:58Z</time>
      </trkpt>
      <trkpt lat="46.99461" lon="6.0536">
        <ele>695</ele>
        <time>2022-06-05T11:55:16Z</time>
      </trkpt>
      <trkpt lat="46.9948" lon="6.05285">
        <ele>695</ele>
        <time>2022-06-05T11:56:00Z</time>
      </trkpt>
      <trkpt lat="46.99481" lon="6.05247">
        <ele>697</ele>
        <time>2022-06-05T11:56:20Z</time>
      </trkpt>
      <trkpt lat="46.99477" lon="6.05222">
        <ele>699</ele>
        <time>2022-06-05T11:56:34Z</time>
      </trkpt>
      <trkpt lat="46.994" lon="6.04976">
        <ele>703</ele>
        <time>2022-06-05T11:59:02Z</time>
      </trkpt>
      <trkpt lat="46.99377" lon="6.04928">
        <ele>703</ele>
        <time>2022-06-05T11:59:34Z</time>
      </trkpt>
      <trkpt lat="46.99338" lon="6.0487">
        <ele>707</ele>
        <time>2022-06-05T12:00:19Z</time>
      </trkpt>
      <trkpt lat="46.99303" lon="6.0483">
        <ele>708</ele>
        <time>2022-06-05T12:00:54Z</time>
      </trkpt>
      <trkpt lat="46.99252" lon="6.04758">
        <ele>706</ele>
        <time>2022-06-05T12:01:51Z</time>
      </trkpt>
      <trkpt lat="46.99232" lon="6.04738">
        <ele>702</ele>
        <time>2022-06-05T12:02:11Z</time>
      </trkpt>
      <trkpt lat="46.99216" lon="6.04728">
        <ele>700</ele>
        <time>2022-06-05T12:02:25Z</time>
      </trkpt>
      <trkpt lat="46.99194" lon="6.04723">
        <ele>698</ele>
        <time>2022-06-05T12:02:42Z</time>
      </trkpt>
      <trkpt lat="46.99154" lon="6.04719">
        <ele>696</ele>
        <time>2022-06-05T12:03:15Z</time>
      </trkpt>
      <trkpt lat="46.99139" lon="6.04721">
        <ele>696</ele>
        <time>2022-06-05T12:03:27Z</time>
      </trkpt>
      <trkpt lat="46.99125" lon="6.04731">
        <ele>697</ele>
        <time>2022-06-05T12:03:39Z</time>
      </trkpt>
      <trkpt lat="46.99107" lon="6.04767">
        <ele>698</ele>
        <time>2022-06-05T12:04:03Z</time>
      </trkpt>
      <trkpt lat="46.99093" lon="6.04778">
        <ele>697</ele>
        <time>2022-06-05T12:04:16Z</time>
      </trkpt>
      <trkpt lat="46.99084" lon="6.04777">
        <ele>696</ele>
        <time>2022-06-05T12:04:23Z</time>
      </trkpt>
      <trkpt lat="46.99072" lon="6.04769">
        <ele>698</ele>
        <time>2022-06-05T12:04:34Z</time>
      </trkpt>
      <trkpt lat="46.99066" lon="6.04756">
        <ele>698</ele>
        <time>2022-06-05T12:04:43Z</time>
      </trkpt>
      <trkpt lat="46.99044" lon="6.04646">
        <ele>698</ele>
        <time>2022-06-05T12:05:45Z</time>
      </trkpt>
      <trkpt lat="46.99039" lon="6.04604">
        <ele>697</ele>
        <time>2022-06-05T12:06:09Z</time>
      </trkpt>
      <trkpt lat="46.99048" lon="6.04555">
        <ele>696</ele>
        <time>2022-06-05T12:06:36Z</time>
      </trkpt>
      <trkpt lat="46.99056" lon="6.04535">
        <ele>697</ele>
        <time>2022-06-05T12:06:49Z</time>
      </trkpt>
      <trkpt lat="46.99067" lon="6.04512">
        <ele>698</ele>
        <time>2022-06-05T12:07:04Z</time>
      </trkpt>
      <trkpt lat="46.991" lon="6.04464">
        <ele>697</ele>
        <time>2022-06-05T12:07:42Z</time>
      </trkpt>
      <trkpt lat="46.99115" lon="6.0443">
        <ele>697</ele>
        <time>2022-06-05T12:08:04Z</time>
      </trkpt>
      <trkpt lat="46.99121" lon="6.04406">
        <ele>697</ele>
        <time>2022-06-05T12:08:18Z</time>
      </trkpt>
      <trkpt lat="46.99124" lon="6.04382">
        <ele>696</ele>
        <time>2022-06-05T12:08:31Z</time>
      </trkpt>
      <trkpt lat="46.99128" lon="6.04201">
        <ele>695</ele>
        <time>2022-06-05T12:10:10Z</time>
      </trkpt>
      <trkpt lat="46.99145" lon="6.04074">
        <ele>698</ele>
        <time>2022-06-05T12:11:21Z</time>
      </trkpt>
      <trkpt lat="46.99146" lon="6.0405">
        <ele>698</ele>
        <time>2022-06-05T12:11:34Z</time>
      </trkpt>
      <trkpt lat="46.99117" lon="6.03944">
        <ele>700</ele>
        <time>2022-06-05T12:12:36Z</time>
      </trkpt>
      <trkpt lat="46.99089" lon="6.03869">
        <ele>699</ele>
        <time>2022-06-05T12:13:23Z</time>
      </trkpt>
      <trkpt lat="46.99065" lon="6.03826">
        <ele>699</ele>
        <time>2022-06-05T12:13:54Z</time>
      </trkpt>
      <trkpt lat="46.99028" lon="6.03781">
        <ele>701</ele>
        <time>2022-06-05T12:14:32Z</time>
      </trkpt>
      <trkpt lat="46.98957" lon="6.03735">
        <ele>704</ele>
        <time>2022-06-05T12:15:34Z</time>
      </trkpt>
      <trkpt lat="46.98942" lon="6.03728">
        <ele>705</ele>
        <time>2022-06-05T12:15:47Z</time>
      </trkpt>
      <trkpt lat="46.98897" lon="6.03725">
        <ele>705</ele>
        <time>2022-06-05T12:16:23Z</time>
      </trkpt>
      <trkpt lat="46.98888" lon="6.0372">
        <ele>704</ele>
        <time>2022-06-05T12:16:31Z</time>
      </trkpt>
      <trkpt lat="46.98875" lon="6.03701">
        <ele>702</ele>
        <time>2022-06-05T12:16:45Z</time>
      </trkpt>
      <trkpt lat="46.98851" lon="6.03616">
        <ele>704</ele>
        <time>2022-06-05T12:17:36Z</time>
      </trkpt>
      <trkpt lat="46.98842" lon="6.03595">
        <ele>706</ele>
        <time>2022-06-05T12:17:49Z</time>
      </trkpt>
      <trkpt lat="46.9881" lon="6.03566">
        <ele>707</ele>
        <time>2022-06-05T12:18:19Z</time>
      </trkpt>
      <trkpt lat="46.9879" lon="6.03555">
        <ele>706</ele>
        <time>2022-06-05T12:18:37Z</time>
      </trkpt>
      <trkpt lat="46.98695" lon="6.03569">
        <ele>700</ele>
        <time>2022-06-05T12:19:53Z</time>
      </trkpt>
      <trkpt lat="46.98641" lon="6.03566">
        <ele>699</ele>
        <time>2022-06-05T12:20:36Z</time>
      </trkpt>
      <trkpt lat="46.98614" lon="6.03593">
        <ele>697</ele>
        <time>2022-06-05T12:21:03Z</time>
      </trkpt>
      <trkpt lat="46.98579" lon="6.03646">
        <ele>694</ele>
        <time>2022-06-05T12:21:43Z</time>
      </trkpt>
      <trkpt lat="46.98564" lon="6.03663">
        <ele>694</ele>
        <time>2022-06-05T12:21:58Z</time>
      </trkpt>
      <trkpt lat="46.98541" lon="6.03676">
        <ele>695</ele>
        <time>2022-06-05T12:22:18Z</time>
      </trkpt>
      <trkpt lat="46.98511" lon="6.03684">
        <ele>697</ele>
        <time>2022-06-05T12:22:42Z</time>
      </trkpt>
      <trkpt lat="46.98491" lon="6.03685">
        <ele>699</ele>
        <time>2022-06-05T12:22:58Z</time>
      </trkpt>
      <trkpt lat="46.98449" lon="6.03703">
        <ele>703</ele>
        <time>2022-06-05T12:23:33Z</time>
      </trkpt>
      <trkpt lat="46.9842" lon="6.03706">
        <ele>706</ele>
        <time>2022-06-05T12:23:57Z</time>
      </trkpt>
      <trkpt lat="46.98411" lon="6.03712">
        <ele>707</ele>
        <time>2022-06-05T12:24:05Z</time>
      </trkpt>
      <trkpt lat="46.98404" lon="6.03732">
        <ele>706</ele>
        <time>2022-06-05T12:24:17Z</time>
      </trkpt>
      <trkpt lat="46.98375" lon="6.03771">
        <ele>709</ele>
        <time>2022-06-05T12:24:48Z</time>
      </trkpt>
      <trkpt lat="46.98366" lon="6.03756">
        <ele>710</ele>
        <time>2022-06-05T12:24:59Z</time>
      </trkpt>
      <trkpt lat="46.98366" lon="6.03726">
        <ele>711</ele>
        <time>2022-06-05T12:25:16Z</time>
      </trkpt>
      <trkpt lat="46.98381" lon="6.03665">
        <ele>712</ele>
        <time>2022-06-05T12:25:51Z</time>
      </trkpt>
      <trkpt lat="46.98385" lon="6.03622">
        <ele>715</ele>
        <time>2022-06-05T12:26:15Z</time>
      </trkpt>
      <trkpt lat="46.98372" lon="6.03616">
        <ele>717</ele>
        <time>2022-06-05T12:26:26Z</time>
      </trkpt>
      <trkpt lat="46.98367" lon="6.0361">
        <ele>718</ele>
        <time>2022-06-05T12:26:31Z</time>
      </trkpt>
      <trkpt lat="46.98363" lon="6.03593">
        <ele>719</ele>
        <time>2022-06-05T12:26:41Z</time>
      </trkpt>
      <trkpt lat="46.98375" lon="6.03509">
        <ele>722</ele>
        <time>2022-06-05T12:27:28Z</time>
      </trkpt>
      <trkpt lat="46.98341" lon="6.03411">
        <ele>729</ele>
        <time>2022-06-05T12:28:28Z</time>
      </trkpt>
      <trkpt lat="46.98327" lon="6.03383">
        <ele>730</ele>
        <time>2022-06-05T12:28:47Z</time>
      </trkpt>
      <trkpt lat="46.98291" lon="6.03252">
        <ele>734</ele>
        <time>2022-06-05T12:30:04Z</time>
      </trkpt>
      <trkpt lat="46.98284" lon="6.03243">
        <ele>734</ele>
        <time>2022-06-05T12:30:12Z</time>
      </trkpt>
      <trkpt lat="46.98277" lon="6.03242">
        <ele>735</ele>
        <time>2022-06-05T12:30:17Z</time>
      </trkpt>
      <trkpt lat="46.98214" lon="6.0324">
        <ele>740</ele>
        <time>2022-06-05T12:31:08Z</time>
      </trkpt>
      <trkpt lat="46.98141" lon="6.03232">
        <ele>747</ele>
        <time>2022-06-05T12:32:06Z</time>
      </trkpt>
      <trkpt lat="46.98131" lon="6.03233">
        <ele>748</ele>
        <time>2022-06-05T12:32:15Z</time>
      </trkpt>
      <trkpt lat="46.98191" lon="6.03104">
        <ele>753</ele>
        <time>2022-06-05T12:33:40Z</time>
      </trkpt>
      <trkpt lat="46.98193" lon="6.03083">
        <ele>755</ele>
        <time>2022-06-05T12:33:51Z</time>
      </trkpt>
      <trkpt lat="46.98176" lon="6.03043">
        <ele>762</ele>
        <time>2022-06-05T12:34:17Z</time>
      </trkpt>
      <trkpt lat="46.98176" lon="6.03021">
        <ele>764</ele>
        <time>2022-06-05T12:34:29Z</time>
      </trkpt>
      <trkpt lat="46.98178" lon="6.02982">
        <ele>766</ele>
        <time>2022-06-05T12:34:51Z</time>
      </trkpt>
      <trkpt lat="46.98201" lon="6.02873">
        <ele>757</ele>
        <time>2022-06-05T12:35:53Z</time>
      </trkpt>
      <trkpt lat="46.98192" lon="6.02878">
        <ele>759</ele>
        <time>2022-06-05T12:36:01Z</time>
      </trkpt>
      <trkpt lat="46.98168" lon="6.0291">
        <ele>768</ele>
        <time>2022-06-05T12:36:27Z</time>
      </trkpt>
      <trkpt lat="46.98151" lon="6.0294">
        <ele>776</ele>
        <time>2022-06-05T12:36:48Z</time>
      </trkpt>
      <trkpt lat="46.9814" lon="6.02954">
        <ele>781</ele>
        <time>2022-06-05T12:37:00Z</time>
      </trkpt>
      <trkpt lat="46.98108" lon="6.03033">
        <ele>793</ele>
        <time>2022-06-05T12:37:50Z</time>
      </trkpt>
      <trkpt lat="46.9808" lon="6.03082">
        <ele>798</ele>
        <time>2022-06-05T12:38:25Z</time>
      </trkpt>
      <trkpt lat="46.9807" lon="6.03092">
        <ele>795</ele>
        <time>2022-06-05T12:38:35Z</time>
      </trkpt>
      <trkpt lat="46.98075" lon="6.03015">
        <ele>808</ele>
        <time>2022-06-05T12:39:17Z</time>
      </trkpt>
      <trkpt lat="46.98073" lon="6.03007">
        <ele>809</ele>
        <time>2022-06-05T12:39:22Z</time>
      </trkpt>
      <trkpt lat="46.9807" lon="6.03005">
        <ele>810</ele>
        <time>2022-06-05T12:39:24Z</time>
      </trkpt>
      <trkpt lat="46.98065" lon="6.0301">
        <ele>809</ele>
        <time>2022-06-05T12:39:29Z</time>
      </trkpt>
      <trkpt lat="46.9806" lon="6.03035">
        <ele>805</ele>
        <time>2022-06-05T12:39:43Z</time>
      </trkpt>
      <trkpt lat="46.98053" lon="6.03046">
        <ele>804</ele>
        <time>2022-06-05T12:39:52Z</time>
      </trkpt>
      <trkpt lat="46.98044" lon="6.03051">
        <ele>803</ele>
        <time>2022-06-05T12:39:59Z</time>
      </trkpt>
      <trkpt lat="46.98037" lon="6.03047">
        <ele>804</ele>
        <time>2022-06-05T12:40:05Z</time>
      </trkpt>
      <trkpt lat="46.98034" lon="6.03042">
        <ele>805</ele>
        <time>2022-06-05T12:40:09Z</time>
      </trkpt>
      <trkpt lat="46.98037" lon="6.02965">
        <ele>808</ele>
        <time>2022-06-05T12:40:51Z</time>
      </trkpt>
      <trkpt lat="46.98031" lon="6.02948">
        <ele>807</ele>
        <time>2022-06-05T12:41:02Z</time>
      </trkpt>
      <trkpt lat="46.98025" lon="6.02943">
        <ele>807</ele>
        <time>2022-06-05T12:41:07Z</time>
      </trkpt>
      <trkpt lat="46.98021" lon="6.02942">
        <ele>807</ele>
        <time>2022-06-05T12:41:10Z</time>
      </trkpt>
      <trkpt lat="46.98012" lon="6.02947">
        <ele>808</ele>
        <time>2022-06-05T12:41:18Z</time>
      </trkpt>
      <trkpt lat="46.98005" lon="6.02956">
        <ele>809</ele>
        <time>2022-06-05T12:41:26Z</time>
      </trkpt>
      <trkpt lat="46.98005" lon="6.02973">
        <ele>810</ele>
        <time>2022-06-05T12:41:35Z</time>
      </trkpt>
      <trkpt lat="46.98011" lon="6.02983">
        <ele>810</ele>
        <time>2022-06-05T12:41:42Z</time>
      </trkpt>
      <trkpt lat="46.98005" lon="6.02973">
        <ele>810</ele>
        <time>2022-06-05T12:41:49Z</time>
      </trkpt>
      <trkpt lat="46.98004" lon="6.02961">
        <ele>809</ele>
        <time>2022-06-05T12:41:56Z</time>
      </trkpt>
      <trkpt lat="46.98012" lon="6.02947">
        <ele>808</ele>
        <time>2022-06-05T12:42:06Z</time>
      </trkpt>
      <trkpt lat="46.98021" lon="6.02942">
        <ele>807</ele>
        <time>2022-06-05T12:42:14Z</time>
      </trkpt>
      <trkpt lat="46.98025" lon="6.02943">
        <ele>807</ele>
        <time>2022-06-05T12:42:17Z</time>
      </trkpt>
      <trkpt lat="46.98031" lon="6.02948">
        <ele>807</ele>
        <time>2022-06-05T12:42:23Z</time>
      </trkpt>
      <trkpt lat="46.98037" lon="6.02965">
        <ele>808</ele>
        <time>2022-06-05T12:42:33Z</time>
      </trkpt>
      <trkpt lat="46.98037" lon="6.03004">
        <ele>810</ele>
        <time>2022-06-05T12:42:54Z</time>
      </trkpt>
      <trkpt lat="46.98034" lon="6.03033">
        <ele>806</ele>
        <time>2022-06-05T12:43:10Z</time>
      </trkpt>
      <trkpt lat="46.98034" lon="6.03042">
        <ele>805</ele>
        <time>2022-06-05T12:43:15Z</time>
      </trkpt>
      <trkpt lat="46.98037" lon="6.03047">
        <ele>804</ele>
        <time>2022-06-05T12:43:19Z</time>
      </trkpt>
      <trkpt lat="46.98044" lon="6.03051">
        <ele>803</ele>
        <time>2022-06-05T12:43:25Z</time>
      </trkpt>
      <trkpt lat="46.98053" lon="6.03046">
        <ele>804</ele>
        <time>2022-06-05T12:43:33Z</time>
      </trkpt>
      <trkpt lat="46.9806" lon="6.03035">
        <ele>805</ele>
        <time>2022-06-05T12:43:41Z</time>
      </trkpt>
      <trkpt lat="46.98067" lon="6.03007">
        <ele>809</ele>
        <time>2022-06-05T12:43:57Z</time>
      </trkpt>
      <trkpt lat="46.9807" lon="6.03005">
        <ele>810</ele>
        <time>2022-06-05T12:44:00Z</time>
      </trkpt>
      <trkpt lat="46.98073" lon="6.03007">
        <ele>809</ele>
        <time>2022-06-05T12:44:02Z</time>
      </trkpt>
      <trkpt lat="46.98075" lon="6.03015">
        <ele>808</ele>
        <time>2022-06-05T12:44:07Z</time>
      </trkpt>
      <trkpt lat="46.9807" lon="6.03092">
        <ele>795</ele>
        <time>2022-06-05T12:44:49Z</time>
      </trkpt>
      <trkpt lat="46.98066" lon="6.03111">
        <ele>790</ele>
        <time>2022-06-05T12:45:00Z</time>
      </trkpt>
      <trkpt lat="46.98063" lon="6.03114">
        <ele>789</ele>
        <time>2022-06-05T12:45:03Z</time>
      </trkpt>
      <trkpt lat="46.9806" lon="6.03113">
        <ele>789</ele>
        <time>2022-06-05T12:45:06Z</time>
      </trkpt>
      <trkpt lat="46.98056" lon="6.03106">
        <ele>792</ele>
        <time>2022-06-05T12:45:11Z</time>
      </trkpt>
      <trkpt lat="46.9805" lon="6.03103">
        <ele>793</ele>
        <time>2022-06-05T12:45:16Z</time>
      </trkpt>
      <trkpt lat="46.98045" lon="6.03104">
        <ele>792</ele>
        <time>2022-06-05T12:45:20Z</time>
      </trkpt>
      <trkpt lat="46.98041" lon="6.0311">
        <ele>791</ele>
        <time>2022-06-05T12:45:24Z</time>
      </trkpt>
      <trkpt lat="46.98046" lon="6.03125">
        <ele>787</ele>
        <time>2022-06-05T12:45:33Z</time>
      </trkpt>
      <trkpt lat="46.98055" lon="6.03131">
        <ele>784</ele>
        <time>2022-06-05T12:45:41Z</time>
      </trkpt>
      <trkpt lat="46.98057" lon="6.03138">
        <ele>782</ele>
        <time>2022-06-05T12:45:46Z</time>
      </trkpt>
      <trkpt lat="46.98057" lon="6.03145">
        <ele>780</ele>
        <time>2022-06-05T12:45:49Z</time>
      </trkpt>
      <trkpt lat="46.9805" lon="6.03152">
        <ele>779</ele>
        <time>2022-06-05T12:45:56Z</time>
      </trkpt>
      <trkpt lat="46.97978" lon="6.03111">
        <ele>785</ele>
        <time>2022-06-05T12:46:58Z</time>
      </trkpt>
      <trkpt lat="46.97973" lon="6.03105">
        <ele>785</ele>
        <time>2022-06-05T12:47:03Z</time>
      </trkpt>
      <trkpt lat="46.97944" lon="6.03062">
        <ele>782</ele>
        <time>2022-06-05T12:47:36Z</time>
      </trkpt>
      <trkpt lat="46.97922" lon="6.03023">
        <ele>779</ele>
        <time>2022-06-05T12:48:04Z</time>
      </trkpt>
      <trkpt lat="46.97914" lon="6.03002">
        <ele>778</ele>
        <time>2022-06-05T12:48:17Z</time>
      </trkpt>
      <trkpt lat="46.97905" lon="6.0296">
        <ele>774</ele>
        <time>2022-06-05T12:48:41Z</time>
      </trkpt>
      <trkpt lat="46.97896" lon="6.02947">
        <ele>771</ele>
        <time>2022-06-05T12:48:51Z</time>
      </trkpt>
      <trkpt lat="46.97882" lon="6.02952">
        <ele>767</ele>
        <time>2022-06-05T12:49:03Z</time>
      </trkpt>
      <trkpt lat="46.97868" lon="6.02969">
        <ele>763</ele>
        <time>2022-06-05T12:49:17Z</time>
      </trkpt>
      <trkpt lat="46.97865" lon="6.02989">
        <ele>763</ele>
        <time>2022-06-05T12:49:29Z</time>
      </trkpt>
      <trkpt lat="46.97872" lon="6.03016">
        <ele>764</ele>
        <time>2022-06-05T12:49:44Z</time>
      </trkpt>
      <trkpt lat="46.9785" lon="6.02983">
        <ele>758</ele>
        <time>2022-06-05T12:50:10Z</time>
      </trkpt>
      <trkpt lat="46.97846" lon="6.0298">
        <ele>757</ele>
        <time>2022-06-05T12:50:13Z</time>
      </trkpt>
      <trkpt lat="46.9784" lon="6.0298">
        <ele>755</ele>
        <time>2022-06-05T12:50:18Z</time>
      </trkpt>
      <trkpt lat="46.97831" lon="6.02989">
        <ele>753</ele>
        <time>2022-06-05T12:50:27Z</time>
      </trkpt>
      <trkpt lat="46.97823" lon="6.03015">
        <ele>752</ele>
        <time>2022-06-05T12:50:42Z</time>
      </trkpt>
      <trkpt lat="46.97818" lon="6.03021">
        <ele>751</ele>
        <time>2022-06-05T12:50:48Z</time>
      </trkpt>
      <trkpt lat="46.978" lon="6.0303">
        <ele>749</ele>
        <time>2022-06-05T12:51:03Z</time>
      </trkpt>
      <trkpt lat="46.97776" lon="6.03034">
        <ele>746</ele>
        <time>2022-06-05T12:51:22Z</time>
      </trkpt>
      <trkpt lat="46.97763" lon="6.03031">
        <ele>745</ele>
        <time>2022-06-05T12:51:33Z</time>
      </trkpt>
      <trkpt lat="46.97754" lon="6.03045">
        <ele>744</ele>
        <time>2022-06-05T12:51:43Z</time>
      </trkpt>
      <trkpt lat="46.97747" lon="6.03038">
        <ele>744</ele>
        <time>2022-06-05T12:51:50Z</time>
      </trkpt>
      <trkpt lat="46.97733" lon="6.03032">
        <ele>744</ele>
        <time>2022-06-05T12:52:02Z</time>
      </trkpt>
      <trkpt lat="46.97725" lon="6.03031">
        <ele>745</ele>
        <time>2022-06-05T12:52:08Z</time>
      </trkpt>
      <trkpt lat="46.97712" lon="6.03034">
        <ele>745</ele>
        <time>2022-06-05T12:52:19Z</time>
      </trkpt>
      <trkpt lat="46.97696" lon="6.03046">
        <ele>746</ele>
        <time>2022-06-05T12:52:33Z</time>
      </trkpt>
      <trkpt lat="46.97655" lon="6.03104">
        <ele>752</ele>
        <time>2022-06-05T12:53:19Z</time>
      </trkpt>
      <trkpt lat="46.97643" lon="6.03094">
        <ele>756</ele>
        <time>2022-06-05T12:53:30Z</time>
      </trkpt>
      <trkpt lat="46.97628" lon="6.03092">
        <ele>761</ele>
        <time>2022-06-05T12:53:42Z</time>
      </trkpt>
      <trkpt lat="46.97615" lon="6.03096">
        <ele>765</ele>
        <time>2022-06-05T12:53:53Z</time>
      </trkpt>
      <trkpt lat="46.976" lon="6.03111">
        <ele>770</ele>
        <time>2022-06-05T12:54:07Z</time>
      </trkpt>
      <trkpt lat="46.9759" lon="6.03141">
        <ele>774</ele>
        <time>2022-06-05T12:54:25Z</time>
      </trkpt>
      <trkpt lat="46.97581" lon="6.03213">
        <ele>778</ele>
        <time>2022-06-05T12:55:05Z</time>
      </trkpt>
      <trkpt lat="46.97581" lon="6.03255">
        <ele>779</ele>
        <time>2022-06-05T12:55:28Z</time>
      </trkpt>
      <trkpt lat="46.97567" lon="6.03294">
        <ele>780</ele>
        <time>2022-06-05T12:55:53Z</time>
      </trkpt>
      <trkpt lat="46.97561" lon="6.03286">
        <ele>780</ele>
        <time>2022-06-05T12:55:59Z</time>
      </trkpt>
      <trkpt lat="46.97545" lon="6.03288">
        <ele>780</ele>
        <time>2022-06-05T12:56:12Z</time>
      </trkpt>
      <trkpt lat="46.97519" lon="6.03297">
        <ele>779</ele>
        <time>2022-06-05T12:56:33Z</time>
      </trkpt>
      <trkpt lat="46.97503" lon="6.03283">
        <ele>779</ele>
        <time>2022-06-05T12:56:48Z</time>
      </trkpt>
      <trkpt lat="46.97471" lon="6.03271">
        <ele>773</ele>
        <time>2022-06-05T12:57:15Z</time>
      </trkpt>
      <trkpt lat="46.97453" lon="6.0325">
        <ele>769</ele>
        <time>2022-06-05T12:57:33Z</time>
      </trkpt>
      <trkpt lat="46.97444" lon="6.03248">
        <ele>767</ele>
        <time>2022-06-05T12:57:40Z</time>
      </trkpt>
      <trkpt lat="46.97418" lon="6.0325">
        <ele>760</ele>
        <time>2022-06-05T12:58:01Z</time>
      </trkpt>
      <trkpt lat="46.97386" lon="6.03239">
        <ele>753</ele>
        <time>2022-06-05T12:58:28Z</time>
      </trkpt>
      <trkpt lat="46.9737" lon="6.03239">
        <ele>749</ele>
        <time>2022-06-05T12:58:41Z</time>
      </trkpt>
      <trkpt lat="46.97361" lon="6.03236">
        <ele>747</ele>
        <time>2022-06-05T12:58:48Z</time>
      </trkpt>
      <trkpt lat="46.97349" lon="6.03241">
        <ele>744</ele>
        <time>2022-06-05T12:58:58Z</time>
      </trkpt>
      <trkpt lat="46.9736" lon="6.03284">
        <ele>747</ele>
        <time>2022-06-05T12:59:23Z</time>
      </trkpt>
      <trkpt lat="46.97362" lon="6.03309">
        <ele>749</ele>
        <time>2022-06-05T12:59:37Z</time>
      </trkpt>
      <trkpt lat="46.97359" lon="6.03317">
        <ele>748</ele>
        <time>2022-06-05T12:59:42Z</time>
      </trkpt>
      <trkpt lat="46.97344" lon="6.03329">
        <ele>745</ele>
        <time>2022-06-05T12:59:55Z</time>
      </trkpt>
      <trkpt lat="46.97339" lon="6.03341">
        <ele>745</ele>
        <time>2022-06-05T13:00:03Z</time>
      </trkpt>
      <trkpt lat="46.9734" lon="6.03354">
        <ele>745</ele>
        <time>2022-06-05T13:00:10Z</time>
      </trkpt>
      <trkpt lat="46.97338" lon="6.03358">
        <ele>745</ele>
        <time>2022-06-05T13:00:13Z</time>
      </trkpt>
      <trkpt lat="46.97332" lon="6.03357">
        <ele>744</ele>
        <time>2022-06-05T13:00:18Z</time>
      </trkpt>
      <trkpt lat="46.97322" lon="6.03362">
        <ele>741</ele>
        <time>2022-06-05T13:00:26Z</time>
      </trkpt>
      <trkpt lat="46.97313" lon="6.03333">
        <ele>737</ele>
        <time>2022-06-05T13:00:44Z</time>
      </trkpt>
      <trkpt lat="46.97313" lon="6.03325">
        <ele>737</ele>
        <time>2022-06-05T13:00:48Z</time>
      </trkpt>
      <trkpt lat="46.97306" lon="6.03315">
        <ele>735</ele>
        <time>2022-06-05T13:00:56Z</time>
      </trkpt>
      <trkpt lat="46.97291" lon="6.0327">
        <ele>730</ele>
        <time>2022-06-05T13:01:23Z</time>
      </trkpt>
      <trkpt lat="46.9728" lon="6.03247">
        <ele>727</ele>
        <time>2022-06-05T13:01:39Z</time>
      </trkpt>
      <trkpt lat="46.97261" lon="6.03291">
        <ele>723</ele>
        <time>2022-06-05T13:02:07Z</time>
      </trkpt>
      <trkpt lat="46.97248" lon="6.03402">
        <ele>717</ele>
        <time>2022-06-05T13:03:09Z</time>
      </trkpt>
      <trkpt lat="46.97257" lon="6.03448">
        <ele>718</ele>
        <time>2022-06-05T13:03:35Z</time>
      </trkpt>
      <trkpt lat="46.97257" lon="6.03497">
        <ele>715</ele>
        <time>2022-06-05T13:04:02Z</time>
      </trkpt>
      <trkpt lat="46.97265" lon="6.0353">
        <ele>716</ele>
        <time>2022-06-05T13:04:21Z</time>
      </trkpt>
      <trkpt lat="46.97262" lon="6.03587">
        <ele>712</ele>
        <time>2022-06-05T13:04:52Z</time>
      </trkpt>
      <trkpt lat="46.97254" lon="6.036">
        <ele>708</ele>
        <time>2022-06-05T13:05:02Z</time>
      </trkpt>
      <trkpt lat="46.97243" lon="6.0361">
        <ele>704</ele>
        <time>2022-06-05T13:05:12Z</time>
      </trkpt>
      <trkpt lat="46.97215" lon="6.0362">
        <ele>697</ele>
        <time>2022-06-05T13:05:35Z</time>
      </trkpt>
      <trkpt lat="46.97207" lon="6.03649">
        <ele>693</ele>
        <time>2022-06-05T13:05:52Z</time>
      </trkpt>
      <trkpt lat="46.97189" lon="6.03684">
        <ele>689</ele>
        <time>2022-06-05T13:06:16Z</time>
      </trkpt>
      <trkpt lat="46.97147" lon="6.0373">
        <ele>691</ele>
        <time>2022-06-05T13:06:58Z</time>
      </trkpt>
      <trkpt lat="46.97109" lon="6.03763">
        <ele>698</ele>
        <time>2022-06-05T13:07:34Z</time>
      </trkpt>
      <trkpt lat="46.97077" lon="6.03768">
        <ele>704</ele>
        <time>2022-06-05T13:08:00Z</time>
      </trkpt>
      <trkpt lat="46.97042" lon="6.03747">
        <ele>710</ele>
        <time>2022-06-05T13:08:30Z</time>
      </trkpt>
      <trkpt lat="46.96979" lon="6.03652">
        <ele>707</ele>
        <time>2022-06-05T13:09:42Z</time>
      </trkpt>
      <trkpt lat="46.96869" lon="6.03576">
        <ele>716</ele>
        <time>2022-06-05T13:11:20Z</time>
      </trkpt>
      <trkpt lat="46.96816" lon="6.03495">
        <ele>711</ele>
        <time>2022-06-05T13:12:21Z</time>
      </trkpt>
      <trkpt lat="46.96791" lon="6.03444">
        <ele>709</ele>
        <time>2022-06-05T13:12:55Z</time>
      </trkpt>
      <trkpt lat="46.96769" lon="6.03388">
        <ele>712</ele>
        <time>2022-06-05T13:13:31Z</time>
      </trkpt>
      <trkpt lat="46.96772" lon="6.03343">
        <ele>710</ele>
        <time>2022-06-05T13:13:56Z</time>
      </trkpt>
      <trkpt lat="46.96691" lon="6.03092">
        <ele>703</ele>
        <time>2022-06-05T13:16:27Z</time>
      </trkpt>
      <trkpt lat="46.96499" lon="6.0272">
        <ele>670</ele>
        <time>2022-06-05T13:20:43Z</time>
      </trkpt>
      <trkpt lat="46.96546" lon="6.0266">
        <ele>672</ele>
        <time>2022-06-05T13:21:32Z</time>
      </trkpt>
      <trkpt lat="46.96539" lon="6.02633">
        <ele>671</ele>
        <time>2022-06-05T13:21:48Z</time>
      </trkpt>
      <trkpt lat="46.96528" lon="6.02607">
        <ele>669</ele>
        <time>2022-06-05T13:22:05Z</time>
      </trkpt>
      <trkpt lat="46.96498" lon="6.02561">
        <ele>665</ele>
        <time>2022-06-05T13:22:40Z</time>
      </trkpt>
      <trkpt lat="46.96301" lon="6.02184">
        <ele>651</ele>
        <time>2022-06-05T13:27:00Z</time>
      </trkpt>
      <trkpt lat="46.96265" lon="6.02056">
        <ele>646</ele>
        <time>2022-06-05T13:28:15Z</time>
      </trkpt>
      <trkpt lat="46.96249" lon="6.02013">
        <ele>647</ele>
        <time>2022-06-05T13:28:42Z</time>
      </trkpt>
      <trkpt lat="46.96238" lon="6.0199">
        <ele>646</ele>
        <time>2022-06-05T13:28:57Z</time>
      </trkpt>
      <trkpt lat="46.96218" lon="6.01961">
        <ele>644</ele>
        <time>2022-06-05T13:29:20Z</time>
      </trkpt>
      <trkpt lat="46.96206" lon="6.0193">
        <ele>644</ele>
        <time>2022-06-05T13:29:39Z</time>
      </trkpt>
      <trkpt lat="46.96191" lon="6.01872">
        <ele>640</ele>
        <time>2022-06-05T13:30:13Z</time>
      </trkpt>
      <trkpt lat="46.96162" lon="6.0178">
        <ele>635</ele>
        <time>2022-06-05T13:31:09Z</time>
      </trkpt>
      <trkpt lat="46.96152" lon="6.01768">
        <ele>634</ele>
        <time>2022-06-05T13:31:19Z</time>
      </trkpt>
      <trkpt lat="46.961" lon="6.01733">
        <ele>633</ele>
        <time>2022-06-05T13:32:05Z</time>
      </trkpt>
      <trkpt lat="46.96088" lon="6.01721">
        <ele>633</ele>
        <time>2022-06-05T13:32:17Z</time>
      </trkpt>
      <trkpt lat="46.96034" lon="6.01643">
        <ele>630</ele>
        <time>2022-06-05T13:33:17Z</time>
      </trkpt>
      <trkpt lat="46.96" lon="6.01604">
        <ele>629</ele>
        <time>2022-06-05T13:33:52Z</time>
      </trkpt>
      <trkpt lat="46.9593" lon="6.01535">
        <ele>624</ele>
        <time>2022-06-05T13:35:00Z</time>
      </trkpt>
      <trkpt lat="46.95908" lon="6.01503">
        <ele>622</ele>
        <time>2022-06-05T13:35:25Z</time>
      </trkpt>
      <trkpt lat="46.95852" lon="6.01405">
        <ele>617</ele>
        <time>2022-06-05T13:36:34Z</time>
      </trkpt>
      <trkpt lat="46.95808" lon="6.01308">
        <ele>612</ele>
        <time>2022-06-05T13:37:38Z</time>
      </trkpt>
      <trkpt lat="46.95778" lon="6.01265">
        <ele>611</ele>
        <time>2022-06-05T13:38:12Z</time>
      </trkpt>
      <trkpt lat="46.95752" lon="6.01239">
        <ele>611</ele>
        <time>2022-06-05T13:38:37Z</time>
      </trkpt>
      <trkpt lat="46.95727" lon="6.01226">
        <ele>612</ele>
        <time>2022-06-05T13:38:58Z</time>
      </trkpt>
      <trkpt lat="46.95724" lon="6.0122">
        <ele>612</ele>
        <time>2022-06-05T13:39:02Z</time>
      </trkpt>
      <trkpt lat="46.95751" lon="6.01211">
        <ele>610</ele>
        <time>2022-06-05T13:39:25Z</time>
      </trkpt>
      <trkpt lat="46.95764" lon="6.01215">
        <ele>609</ele>
        <time>2022-06-05T13:39:35Z</time>
      </trkpt>
      <trkpt lat="46.95776" lon="6.01215">
        <ele>608</ele>
        <time>2022-06-05T13:39:45Z</time>
      </trkpt>
      <trkpt lat="46.95812" lon="6.01209">
        <ele>604</ele>
        <time>2022-06-05T13:40:14Z</time>
      </trkpt>
      <trkpt lat="46.95838" lon="6.01196">
        <ele>600</ele>
        <time>2022-06-05T13:40:36Z</time>
      </trkpt>
      <trkpt lat="46.95861" lon="6.01171">
        <ele>591</ele>
        <time>2022-06-05T13:40:59Z</time>
      </trkpt>
      <trkpt lat="46.95869" lon="6.0111">
        <ele>586</ele>
        <time>2022-06-05T13:41:33Z</time>
      </trkpt>
      <trkpt lat="46.95863" lon="6.01073">
        <ele>588</ele>
        <time>2022-06-05T13:41:54Z</time>
      </trkpt>
      <trkpt lat="46.95844" lon="6.01002">
        <ele>589</ele>
        <time>2022-06-05T13:42:35Z</time>
      </trkpt>
      <trkpt lat="46.95833" lon="6.00977">
        <ele>587</ele>
        <time>2022-06-05T13:42:52Z</time>
      </trkpt>
      <trkpt lat="46.95801" lon="6.00923">
        <ele>587</ele>
        <time>2022-06-05T13:43:31Z</time>
      </trkpt>
      <trkpt lat="46.95794" lon="6.00908">
        <ele>588</ele>
        <time>2022-06-05T13:43:41Z</time>
      </trkpt>
      <trkpt lat="46.95792" lon="6.00897">
        <ele>588</ele>
        <time>2022-06-05T13:43:47Z</time>
      </trkpt>
      <trkpt lat="46.95794" lon="6.00848">
        <ele>583</ele>
        <time>2022-06-05T13:44:14Z</time>
      </trkpt>
      <trkpt lat="46.95807" lon="6.00797">
        <ele>574</ele>
        <time>2022-06-05T13:44:44Z</time>
      </trkpt>
      <trkpt lat="46.95809" lon="6.00709">
        <ele>570</ele>
        <time>2022-06-05T13:45:32Z</time>
      </trkpt>
      <trkpt lat="46.95812" lon="6.00695">
        <ele>567</ele>
        <time>2022-06-05T13:45:40Z</time>
      </trkpt>
      <trkpt lat="46.95818" lon="6.00692">
        <ele>564</ele>
        <time>2022-06-05T13:45:45Z</time>
      </trkpt>
      <trkpt lat="46.95828" lon="6.00699">
        <ele>558</ele>
        <time>2022-06-05T13:45:54Z</time>
      </trkpt>
      <trkpt lat="46.95836" lon="6.00733">
        <ele>556</ele>
        <time>2022-06-05T13:46:13Z</time>
      </trkpt>
      <trkpt lat="46.95848" lon="6.00829">
        <ele>555</ele>
        <time>2022-06-05T13:47:07Z</time>
      </trkpt>
      <trkpt lat="46.95888" lon="6.00886">
        <ele>545</ele>
        <time>2022-06-05T13:47:52Z</time>
      </trkpt>
      <trkpt lat="46.95891" lon="6.00812">
        <ele>540</ele>
        <time>2022-06-05T13:48:32Z</time>
      </trkpt>
      <trkpt lat="46.95898" lon="6.00799">
        <ele>538</ele>
        <time>2022-06-05T13:48:41Z</time>
      </trkpt>
      <trkpt lat="46.9592" lon="6.00772">
        <ele>532</ele>
        <time>2022-06-05T13:49:04Z</time>
      </trkpt>
      <trkpt lat="46.9594" lon="6.00739">
        <ele>528</ele>
        <time>2022-06-05T13:49:28Z</time>
      </trkpt>
      <trkpt lat="46.95968" lon="6.00652">
        <ele>521</ele>
        <time>2022-06-05T13:50:21Z</time>
      </trkpt>
      <trkpt lat="46.95992" lon="6.00591">
        <ele>514</ele>
        <time>2022-06-05T13:50:59Z</time>
      </trkpt>
      <trkpt lat="46.95995" lon="6.00564">
        <ele>513</ele>
        <time>2022-06-05T13:51:14Z</time>
      </trkpt>
      <trkpt lat="46.9599" lon="6.00521">
        <ele>515</ele>
        <time>2022-06-05T13:51:38Z</time>
      </trkpt>
      <trkpt lat="46.95992" lon="6.00477">
        <ele>514</ele>
        <time>2022-06-05T13:52:02Z</time>
      </trkpt>
      <trkpt lat="46.9602" lon="6.00363">
        <ele>516</ele>
        <time>2022-06-05T13:53:09Z</time>
      </trkpt>
      <trkpt lat="46.96037" lon="6.00391">
        <ele>519</ele>
        <time>2022-06-05T13:53:29Z</time>
      </trkpt>
      <trkpt lat="46.9604" lon="6.00474">
        <ele>518</ele>
        <time>2022-06-05T13:54:15Z</time>
      </trkpt>
      <trkpt lat="46.9607" lon="6.00544">
        <ele>519</ele>
        <time>2022-06-05T13:55:00Z</time>
      </trkpt>
      <trkpt lat="46.96125" lon="6.00629">
        <ele>522</ele>
        <time>2022-06-05T13:56:04Z</time>
      </trkpt>
      <trkpt lat="46.96201" lon="6.00692">
        <ele>529</ele>
        <time>2022-06-05T13:57:14Z</time>
      </trkpt>
      <trkpt lat="46.96215" lon="6.00695">
        <ele>532</ele>
        <time>2022-06-05T13:57:25Z</time>
      </trkpt>
      <trkpt lat="46.96222" lon="6.00743">
        <ele>526</ele>
        <time>2022-06-05T13:57:52Z</time>
      </trkpt>
      <trkpt lat="46.96251" lon="6.00783">
        <ele>526</ele>
        <time>2022-06-05T13:58:24Z</time>
      </trkpt>
      <trkpt lat="46.96282" lon="6.00804">
        <ele>527</ele>
        <time>2022-06-05T13:58:51Z</time>
      </trkpt>
      <trkpt lat="46.96347" lon="6.0082">
        <ele>533</ele>
        <time>2022-06-05T13:59:44Z</time>
      </trkpt>
      <trkpt lat="46.96398" lon="6.00801">
        <ele>545</ele>
        <time>2022-06-05T14:00:26Z</time>
      </trkpt>
      <trkpt lat="46.96441" lon="6.00768">
        <ele>555</ele>
        <time>2022-06-05T14:01:05Z</time>
      </trkpt>
      <trkpt lat="46.96499" lon="6.00737">
        <ele>563</ele>
        <time>2022-06-05T14:01:55Z</time>
      </trkpt>
      <trkpt lat="46.96569" lon="6.00672">
        <ele>565</ele>
        <time>2022-06-05T14:03:01Z</time>
      </trkpt>
      <trkpt lat="46.96567" lon="6.00581">
        <ele>592</ele>
        <time>2022-06-05T14:03:51Z</time>
      </trkpt>
      <trkpt lat="46.96684" lon="6.00446">
        <ele>601</ele>
        <time>2022-06-05T14:05:50Z</time>
      </trkpt>
      <trkpt lat="46.96734" lon="6.003">
        <ele>601</ele>
        <time>2022-06-05T14:07:20Z</time>
      </trkpt>
      <trkpt lat="46.96754" lon="6.0019">
        <ele>600</ele>
        <time>2022-06-05T14:08:22Z</time>
      </trkpt>
      <trkpt lat="46.9676" lon="6.00106">
        <ele>593</ele>
        <time>2022-06-05T14:09:08Z</time>
      </trkpt>
      <trkpt lat="46.96748" lon="6.00071">
        <ele>592</ele>
        <time>2022-06-05T14:09:30Z</time>
      </trkpt>
      <trkpt lat="46.96654" lon="5.99927">
        <ele>600</ele>
        <time>2022-06-05T14:11:19Z</time>
      </trkpt>
      <trkpt lat="46.96617" lon="5.99808">
        <ele>595</ele>
        <time>2022-06-05T14:12:30Z</time>
      </trkpt>
      <trkpt lat="46.9661" lon="5.99765">
        <ele>593</ele>
        <time>2022-06-05T14:12:54Z</time>
      </trkpt>
      <trkpt lat="46.96579" lon="5.99672">
        <ele>597</ele>
        <time>2022-06-05T14:13:51Z</time>
      </trkpt>
      <trkpt lat="46.96559" lon="5.99633">
        <ele>600</ele>
        <time>2022-06-05T14:14:18Z</time>
      </trkpt>
      <trkpt lat="46.96586" lon="5.99511">
        <ele>578</ele>
        <time>2022-06-05T14:15:28Z</time>
      </trkpt>
      <trkpt lat="46.9662" lon="5.99511">
        <ele>562</ele>
        <time>2022-06-05T14:15:55Z</time>
      </trkpt>
      <trkpt lat="46.96623" lon="5.99487">
        <ele>561</ele>
        <time>2022-06-05T14:16:08Z</time>
      </trkpt>
      <trkpt lat="46.96648" lon="5.99484">
        <ele>549</ele>
        <time>2022-06-05T14:16:28Z</time>
      </trkpt>
      <trkpt lat="46.96764" lon="5.99607">
        <ele>494</ele>
        <time>2022-06-05T14:18:23Z</time>
      </trkpt>
      <trkpt lat="46.96774" lon="5.99708">
        <ele>493</ele>
        <time>2022-06-05T14:19:19Z</time>
      </trkpt>
      <trkpt lat="46.96815" lon="5.99712">
        <ele>470</ele>
        <time>2022-06-05T14:19:52Z</time>
      </trkpt>
      <trkpt lat="46.96907" lon="5.99763">
        <ele>440</ele>
        <time>2022-06-05T14:21:11Z</time>
      </trkpt>
      <trkpt lat="46.96971" lon="5.99766">
        <ele>421</ele>
        <time>2022-06-05T14:22:02Z</time>
      </trkpt>
      <trkpt lat="46.97087" lon="5.99827">
        <ele>401</ele>
        <time>2022-06-05T14:23:41Z</time>
      </trkpt>
      <trkpt lat="46.97148" lon="5.99844">
        <ele>389</ele>
        <time>2022-06-05T14:24:31Z</time>
      </trkpt>
      <trkpt lat="46.97197" lon="5.99844">
        <ele>380</ele>
        <time>2022-06-05T14:25:10Z</time>
      </trkpt>
      <trkpt lat="46.9725" lon="5.99814">
        <ele>371</ele>
        <time>2022-06-05T14:25:55Z</time>
      </trkpt>
      <trkpt lat="46.97256" lon="5.99801">
        <ele>371</ele>
        <time>2022-06-05T14:26:04Z</time>
      </trkpt>
      <trkpt lat="46.97259" lon="5.9976">
        <ele>371</ele>
        <time>2022-06-05T14:26:27Z</time>
      </trkpt>
      <trkpt lat="46.97266" lon="5.99733">
        <ele>370</ele>
        <time>2022-06-05T14:26:42Z</time>
      </trkpt>
      <trkpt lat="46.97271" lon="5.99724">
        <ele>370</ele>
        <time>2022-06-05T14:26:49Z</time>
      </trkpt>
      <trkpt lat="46.97292" lon="5.99711">
        <ele>369</ele>
        <time>2022-06-05T14:27:07Z</time>
      </trkpt>
      <trkpt lat="46.97325" lon="5.99711">
        <ele>368</ele>
        <time>2022-06-05T14:27:33Z</time>
      </trkpt>
      <trkpt lat="46.97372" lon="5.99703">
        <ele>367</ele>
        <time>2022-06-05T14:28:11Z</time>
      </trkpt>
      <trkpt lat="46.97574" lon="5.99611">
        <ele>378</ele>
        <time>2022-06-05T14:31:01Z</time>
      </trkpt>
      <trkpt lat="46.97564" lon="5.99574">
        <ele>378</ele>
        <time>2022-06-05T14:31:23Z</time>
      </trkpt>
      <trkpt lat="46.97555" lon="5.99525">
        <ele>379</ele>
        <time>2022-06-05T14:31:50Z</time>
      </trkpt>
      <trkpt lat="46.97556" lon="5.99491">
        <ele>381</ele>
        <time>2022-06-05T14:32:09Z</time>
      </trkpt>
      <trkpt lat="46.9763" lon="5.99446">
        <ele>378</ele>
        <time>2022-06-05T14:33:13Z</time>
      </trkpt>
      <trkpt lat="46.97639" lon="5.99427">
        <ele>378</ele>
        <time>2022-06-05T14:33:26Z</time>
      </trkpt>
      <trkpt lat="46.97646" lon="5.99374">
        <ele>379</ele>
        <time>2022-06-05T14:33:55Z</time>
      </trkpt>
      <trkpt lat="46.97652" lon="5.99234">
        <ele>384</ele>
        <time>2022-06-05T14:35:12Z</time>
      </trkpt>
      <trkpt lat="46.97628" lon="5.99016">
        <ele>391</ele>
        <time>2022-06-05T14:37:13Z</time>
      </trkpt>
      <trkpt lat="46.97626" lon="5.98976">
        <ele>394</ele>
        <time>2022-06-05T14:37:35Z</time>
      </trkpt>
      <trkpt lat="46.97655" lon="5.98879">
        <ele>394</ele>
        <time>2022-06-05T14:38:33Z</time>
      </trkpt>
      <trkpt lat="46.97679" lon="5.9883">
        <ele>392</ele>
        <time>2022-06-05T14:39:06Z</time>
      </trkpt>
      <trkpt lat="46.97692" lon="5.98791">
        <ele>395</ele>
        <time>2022-06-05T14:39:29Z</time>
      </trkpt>
      <trkpt lat="46.97715" lon="5.98747">
        <ele>397</ele>
        <time>2022-06-05T14:40:00Z</time>
      </trkpt>
      <trkpt lat="46.97759" lon="5.98709">
        <ele>399</ele>
        <time>2022-06-05T14:40:41Z</time>
      </trkpt>
      <trkpt lat="46.97802" lon="5.98656">
        <ele>404</ele>
        <time>2022-06-05T14:41:26Z</time>
      </trkpt>
      <trkpt lat="46.97817" lon="5.98628">
        <ele>406</ele>
        <time>2022-06-05T14:41:45Z</time>
      </trkpt>
      <trkpt lat="46.97794" lon="5.98446">
        <ele>435</ele>
        <time>2022-06-05T14:43:26Z</time>
      </trkpt>
      <trkpt lat="46.9784" lon="5.98342">
        <ele>442</ele>
        <time>2022-06-05T14:44:34Z</time>
      </trkpt>
      <trkpt lat="46.97842" lon="5.98293">
        <ele>450</ele>
        <time>2022-06-05T14:45:01Z</time>
      </trkpt>
      <trkpt lat="46.9786" lon="5.98211">
        <ele>454</ele>
        <time>2022-06-05T14:45:48Z</time>
      </trkpt>
      <trkpt lat="46.97861" lon="5.98082">
        <ele>462</ele>
        <time>2022-06-05T14:46:59Z</time>
      </trkpt>
      <trkpt lat="46.97883" lon="5.98006">
        <ele>461</ele>
        <time>2022-06-05T14:47:44Z</time>
      </trkpt>
      <trkpt lat="46.97887" lon="5.97978">
        <ele>462</ele>
        <time>2022-06-05T14:47:59Z</time>
      </trkpt>
      <trkpt lat="46.97877" lon="5.97891">
        <ele>468</ele>
        <time>2022-06-05T14:48:48Z</time>
      </trkpt>
      <trkpt lat="46.97875" lon="5.97847">
        <ele>470</ele>
        <time>2022-06-05T14:49:12Z</time>
      </trkpt>
      <trkpt lat="46.97889" lon="5.97746">
        <ele>470</ele>
        <time>2022-06-05T14:50:08Z</time>
      </trkpt>
      <trkpt lat="46.979" lon="5.97636">
        <ele>471</ele>
        <time>2022-06-05T14:51:09Z</time>
      </trkpt>
      <trkpt lat="46.97917" lon="5.9753">
        <ele>470</ele>
        <time>2022-06-05T14:52:09Z</time>
      </trkpt>
      <trkpt lat="46.97921" lon="5.97409">
        <ele>472</ele>
        <time>2022-06-05T14:53:15Z</time>
      </trkpt>
      <trkpt lat="46.97948" lon="5.97274">
        <ele>473</ele>
        <time>2022-06-05T14:54:32Z</time>
      </trkpt>
      <trkpt lat="46.97965" lon="5.97162">
        <ele>477</ele>
        <time>2022-06-05T14:55:34Z</time>
      </trkpt>
      <trkpt lat="46.97977" lon="5.97008">
        <ele>483</ele>
        <time>2022-06-05T14:56:59Z</time>
      </trkpt>
      <trkpt lat="46.97999" lon="5.96937">
        <ele>478</ele>
        <time>2022-06-05T14:57:42Z</time>
      </trkpt>
      <trkpt lat="46.98007" lon="5.96892">
        <ele>480</ele>
        <time>2022-06-05T14:58:07Z</time>
      </trkpt>
      <trkpt lat="46.98001" lon="5.96858">
        <ele>479</ele>
        <time>2022-06-05T14:58:26Z</time>
      </trkpt>
      <trkpt lat="46.98003" lon="5.96829">
        <ele>480</ele>
        <time>2022-06-05T14:58:42Z</time>
      </trkpt>
      <trkpt lat="46.98009" lon="5.96807">
        <ele>483</ele>
        <time>2022-06-05T14:58:55Z</time>
      </trkpt>
      <trkpt lat="46.98005" lon="5.96784">
        <ele>484</ele>
        <time>2022-06-05T14:59:08Z</time>
      </trkpt>
      <trkpt lat="46.98007" lon="5.9669">
        <ele>485</ele>
        <time>2022-06-05T15:00:00Z</time>
      </trkpt>
      <trkpt lat="46.9801" lon="5.96672">
        <ele>486</ele>
        <time>2022-06-05T15:00:10Z</time>
      </trkpt>
      <trkpt lat="46.98017" lon="5.96654">
        <ele>488</ele>
        <time>2022-06-05T15:00:21Z</time>
      </trkpt>
      <trkpt lat="46.9801" lon="5.96604">
        <ele>486</ele>
        <time>2022-06-05T15:00:49Z</time>
      </trkpt>
      <trkpt lat="46.98021" lon="5.96494">
        <ele>492</ele>
        <time>2022-06-05T15:01:50Z</time>
      </trkpt>
      <trkpt lat="46.9802" lon="5.96414">
        <ele>496</ele>
        <time>2022-06-05T15:02:34Z</time>
      </trkpt>
      <trkpt lat="46.9801" lon="5.96314">
        <ele>495</ele>
        <time>2022-06-05T15:03:29Z</time>
      </trkpt>
      <trkpt lat="46.97993" lon="5.96217">
        <ele>494</ele>
        <time>2022-06-05T15:04:24Z</time>
      </trkpt>
      <trkpt lat="46.97992" lon="5.96171">
        <ele>498</ele>
        <time>2022-06-05T15:04:49Z</time>
      </trkpt>
      <trkpt lat="46.97995" lon="5.96137">
        <ele>501</ele>
        <time>2022-06-05T15:05:08Z</time>
      </trkpt>
      <trkpt lat="46.97988" lon="5.96084">
        <ele>505</ele>
        <time>2022-06-05T15:05:37Z</time>
      </trkpt>
      <trkpt lat="46.9798" lon="5.96059">
        <ele>506</ele>
        <time>2022-06-05T15:05:52Z</time>
      </trkpt>
      <trkpt lat="46.9798" lon="5.96038">
        <ele>508</ele>
        <time>2022-06-05T15:06:04Z</time>
      </trkpt>
      <trkpt lat="46.97997" lon="5.9597">
        <ele>514</ele>
        <time>2022-06-05T15:06:43Z</time>
      </trkpt>
      <trkpt lat="46.98002" lon="5.95908">
        <ele>520</ele>
        <time>2022-06-05T15:07:17Z</time>
      </trkpt>
      <trkpt lat="46.98036" lon="5.9579">
        <ele>534</ele>
        <time>2022-06-05T15:08:28Z</time>
      </trkpt>
      <trkpt lat="46.98047" lon="5.95768">
        <ele>535</ele>
        <time>2022-06-05T15:08:42Z</time>
      </trkpt>
      <trkpt lat="46.98051" lon="5.95741">
        <ele>536</ele>
        <time>2022-06-05T15:08:58Z</time>
      </trkpt>
      <trkpt lat="46.98054" lon="5.95609">
        <ele>543</ele>
        <time>2022-06-05T15:10:10Z</time>
      </trkpt>
      <trkpt lat="46.98082" lon="5.95463">
        <ele>547</ele>
        <time>2022-06-05T15:11:33Z</time>
      </trkpt>
      <trkpt lat="46.98112" lon="5.95367">
        <ele>556</ele>
        <time>2022-06-05T15:12:30Z</time>
      </trkpt>
      <trkpt lat="46.98119" lon="5.9534">
        <ele>557</ele>
        <time>2022-06-05T15:12:46Z</time>
      </trkpt>
      <trkpt lat="46.98124" lon="5.95305">
        <ele>559</ele>
        <time>2022-06-05T15:13:06Z</time>
      </trkpt>
      <trkpt lat="46.98124" lon="5.95248">
        <ele>562</ele>
        <time>2022-06-05T15:13:37Z</time>
      </trkpt>
      <trkpt lat="46.98131" lon="5.95191">
        <ele>564</ele>
        <time>2022-06-05T15:14:09Z</time>
      </trkpt>
      <trkpt lat="46.98133" lon="5.95109">
        <ele>565</ele>
        <time>2022-06-05T15:14:53Z</time>
      </trkpt>
      <trkpt lat="46.98127" lon="5.95024">
        <ele>560</ele>
        <time>2022-06-05T15:15:40Z</time>
      </trkpt>
      <trkpt lat="46.98108" lon="5.94921">
        <ele>551</ele>
        <time>2022-06-05T15:16:39Z</time>
      </trkpt>
      <trkpt lat="46.98107" lon="5.94897">
        <ele>551</ele>
        <time>2022-06-05T15:16:52Z</time>
      </trkpt>
      <trkpt lat="46.9813" lon="5.94895">
        <ele>555</ele>
        <time>2022-06-05T15:17:10Z</time>
      </trkpt>
      <trkpt lat="46.98146" lon="5.94923">
        <ele>557</ele>
        <time>2022-06-05T15:17:30Z</time>
      </trkpt>
      <trkpt lat="46.98184" lon="5.95011">
        <ele>564</ele>
        <time>2022-06-05T15:18:27Z</time>
      </trkpt>
      <trkpt lat="46.98195" lon="5.95064">
        <ele>569</ele>
        <time>2022-06-05T15:18:57Z</time>
      </trkpt>
      <trkpt lat="46.98202" lon="5.95118">
        <ele>571</ele>
        <time>2022-06-05T15:19:27Z</time>
      </trkpt>
      <trkpt lat="46.98205" lon="5.95178">
        <ele>571</ele>
        <time>2022-06-05T15:20:00Z</time>
      </trkpt>
      <trkpt lat="46.98222" lon="5.95345">
        <ele>575</ele>
        <time>2022-06-05T15:21:33Z</time>
      </trkpt>
      <trkpt lat="46.98227" lon="5.95381">
        <ele>576</ele>
        <time>2022-06-05T15:21:53Z</time>
      </trkpt>
      <trkpt lat="46.98243" lon="5.9542">
        <ele>580</ele>
        <time>2022-06-05T15:22:18Z</time>
      </trkpt>
      <trkpt lat="46.9825" lon="5.95464">
        <ele>581</ele>
        <time>2022-06-05T15:22:42Z</time>
      </trkpt>
      <trkpt lat="46.98254" lon="5.95548">
        <ele>583</ele>
        <time>2022-06-05T15:23:28Z</time>
      </trkpt>
      <trkpt lat="46.98261" lon="5.95589">
        <ele>584</ele>
        <time>2022-06-05T15:23:52Z</time>
      </trkpt>
      <trkpt lat="46.98307" lon="5.95731">
        <ele>594</ele>
        <time>2022-06-05T15:25:17Z</time>
      </trkpt>
      <trkpt lat="46.9831" lon="5.9576">
        <ele>596</ele>
        <time>2022-06-05T15:25:34Z</time>
      </trkpt>
      <trkpt lat="46.98354" lon="5.95911">
        <ele>607</ele>
        <time>2022-06-05T15:27:03Z</time>
      </trkpt>
      <trkpt lat="46.98367" lon="5.95946">
        <ele>608</ele>
        <time>2022-06-05T15:27:25Z</time>
      </trkpt>
      <trkpt lat="46.98403" lon="5.96017">
        <ele>609</ele>
        <time>2022-06-05T15:28:13Z</time>
      </trkpt>
      <trkpt lat="46.98429" lon="5.96017">
        <ele>611</ele>
        <time>2022-06-05T15:28:34Z</time>
      </trkpt>
      <trkpt lat="46.98452" lon="5.96008">
        <ele>612</ele>
        <time>2022-06-05T15:28:53Z</time>
      </trkpt>
      <trkpt lat="46.98483" lon="5.9599">
        <ele>612</ele>
        <time>2022-06-05T15:29:20Z</time>
      </trkpt>
      <trkpt lat="46.9851" lon="5.95955">
        <ele>610</ele>
        <time>2022-06-05T15:29:49Z</time>
      </trkpt>
      <trkpt lat="46.98513" lon="5.95944">
        <ele>609</ele>
        <time>2022-06-05T15:29:55Z</time>
      </trkpt>
      <trkpt lat="46.98567" lon="5.95907">
        <ele>606</ele>
        <time>2022-06-05T15:30:43Z</time>
      </trkpt>
      <trkpt lat="46.98572" lon="5.95907">
        <ele>606</ele>
        <time>2022-06-05T15:30:47Z</time>
      </trkpt>
      <trkpt lat="46.98631" lon="5.95931">
        <ele>606</ele>
        <time>2022-06-05T15:31:36Z</time>
      </trkpt>
      <trkpt lat="46.98666" lon="5.95947">
        <ele>606</ele>
        <time>2022-06-05T15:32:06Z</time>
      </trkpt>
      <trkpt lat="46.98743" lon="5.96001">
        <ele>615</ele>
        <time>2022-06-05T15:33:14Z</time>
      </trkpt>
      <trkpt lat="46.98766" lon="5.96027">
        <ele>616</ele>
        <time>2022-06-05T15:33:37Z</time>
      </trkpt>
      <trkpt lat="46.98788" lon="5.96068">
        <ele>616</ele>
        <time>2022-06-05T15:34:06Z</time>
      </trkpt>
      <trkpt lat="46.98808" lon="5.96098">
        <ele>616</ele>
        <time>2022-06-05T15:34:29Z</time>
      </trkpt>
      <trkpt lat="46.98822" lon="5.96114">
        <ele>615</ele>
        <time>2022-06-05T15:34:43Z</time>
      </trkpt>
      <trkpt lat="46.98833" lon="5.96138">
        <ele>615</ele>
        <time>2022-06-05T15:34:59Z</time>
      </trkpt>
      <trkpt lat="46.98843" lon="5.96186">
        <ele>617</ele>
        <time>2022-06-05T15:35:26Z</time>
      </trkpt>
      <trkpt lat="46.9887" lon="5.96218">
        <ele>619</ele>
        <time>2022-06-05T15:35:54Z</time>
      </trkpt>
      <trkpt lat="46.98891" lon="5.96228">
        <ele>620</ele>
        <time>2022-06-05T15:36:12Z</time>
      </trkpt>
      <trkpt lat="46.98894" lon="5.96218">
        <ele>620</ele>
        <time>2022-06-05T15:36:18Z</time>
      </trkpt>
      <trkpt lat="46.98915" lon="5.96214">
        <ele>620</ele>
        <time>2022-06-05T15:36:35Z</time>
      </trkpt>
      <trkpt lat="46.98941" lon="5.96197">
        <ele>622</ele>
        <time>2022-06-05T15:36:58Z</time>
      </trkpt>
      <trkpt lat="46.98949" lon="5.96173">
        <ele>623</ele>
        <time>2022-06-05T15:37:12Z</time>
      </trkpt>
      <trkpt lat="46.98951" lon="5.96128">
        <ele>623</ele>
        <time>2022-06-05T15:37:37Z</time>
      </trkpt>
      <trkpt lat="46.98958" lon="5.96105">
        <ele>623</ele>
        <time>2022-06-05T15:37:51Z</time>
      </trkpt>
      <trkpt lat="46.98969" lon="5.96083">
        <ele>625</ele>
        <time>2022-06-05T15:38:06Z</time>
      </trkpt>
      <trkpt lat="46.99002" lon="5.96038">
        <ele>627</ele>
        <time>2022-06-05T15:38:42Z</time>
      </trkpt>
      <trkpt lat="46.9904" lon="5.95974">
        <ele>624</ele>
        <time>2022-06-05T15:39:28Z</time>
      </trkpt>
      <trkpt lat="46.99054" lon="5.9594">
        <ele>621</ele>
        <time>2022-06-05T15:39:50Z</time>
      </trkpt>
      <trkpt lat="46.99067" lon="5.95881">
        <ele>616</ele>
        <time>2022-06-05T15:40:24Z</time>
      </trkpt>
      <trkpt lat="46.99081" lon="5.95769">
        <ele>608</ele>
        <time>2022-06-05T15:41:26Z</time>
      </trkpt>
      <trkpt lat="46.99087" lon="5.95731">
        <ele>606</ele>
        <time>2022-06-05T15:41:47Z</time>
      </trkpt>
      <trkpt lat="46.99093" lon="5.95711">
        <ele>605</ele>
        <time>2022-06-05T15:41:59Z</time>
      </trkpt>
      <trkpt lat="46.99093" lon="5.9569">
        <ele>604</ele>
        <time>2022-06-05T15:42:11Z</time>
      </trkpt>
      <trkpt lat="46.99109" lon="5.95662">
        <ele>601</ele>
        <time>2022-06-05T15:42:31Z</time>
      </trkpt>
      <trkpt lat="46.99124" lon="5.95653">
        <ele>600</ele>
        <time>2022-06-05T15:42:44Z</time>
      </trkpt>
      <trkpt lat="46.99142" lon="5.95654">
        <ele>598</ele>
        <time>2022-06-05T15:42:58Z</time>
      </trkpt>
      <trkpt lat="46.99157" lon="5.95661">
        <ele>598</ele>
        <time>2022-06-05T15:43:11Z</time>
      </trkpt>
      <trkpt lat="46.9919" lon="5.95696">
        <ele>592</ele>
        <time>2022-06-05T15:43:43Z</time>
      </trkpt>
      <trkpt lat="46.99291" lon="5.95879">
        <ele>585</ele>
        <time>2022-06-05T15:45:52Z</time>
      </trkpt>
      <trkpt lat="46.99305" lon="5.95923">
        <ele>583</ele>
        <time>2022-06-05T15:46:19Z</time>
      </trkpt>
      <trkpt lat="46.99309" lon="5.95953">
        <ele>582</ele>
        <time>2022-06-05T15:46:35Z</time>
      </trkpt>
      <trkpt lat="46.9927" lon="5.96171">
        <ele>588</ele>
        <time>2022-06-05T15:48:38Z</time>
      </trkpt>
      <trkpt lat="46.9927" lon="5.96287">
        <ele>584</ele>
        <time>2022-06-05T15:49:42Z</time>
      </trkpt>
      <trkpt lat="46.99266" lon="5.96371">
        <ele>588</ele>
        <time>2022-06-05T15:50:28Z</time>
      </trkpt>
      <trkpt lat="46.99268" lon="5.96391">
        <ele>588</ele>
        <time>2022-06-05T15:50:39Z</time>
      </trkpt>
      <trkpt lat="46.99276" lon="5.96407">
        <ele>588</ele>
        <time>2022-06-05T15:50:50Z</time>
      </trkpt>
      <trkpt lat="46.99292" lon="5.96436">
        <ele>588</ele>
        <time>2022-06-05T15:51:10Z</time>
      </trkpt>
      <trkpt lat="46.99315" lon="5.96466">
        <ele>588</ele>
        <time>2022-06-05T15:51:35Z</time>
      </trkpt>
      <trkpt lat="46.9936" lon="5.96477">
        <ele>587</ele>
        <time>2022-06-05T15:52:11Z</time>
      </trkpt>
      <trkpt lat="46.99418" lon="5.96481">
        <ele>584</ele>
        <time>2022-06-05T15:52:58Z</time>
      </trkpt>
      <trkpt lat="46.9946" lon="5.96493">
        <ele>582</ele>
        <time>2022-06-05T15:53:32Z</time>
      </trkpt>
      <trkpt lat="46.99584" lon="5.9652">
        <ele>580</ele>
        <time>2022-06-05T15:55:13Z</time>
      </trkpt>
      <trkpt lat="46.99636" lon="5.96544">
        <ele>577</ele>
        <time>2022-06-05T15:55:56Z</time>
      </trkpt>
      <trkpt lat="46.99684" lon="5.9655">
        <ele>574</ele>
        <time>2022-06-05T15:56:35Z</time>
      </trkpt>
      <trkpt lat="46.99725" lon="5.96547">
        <ele>571</ele>
        <time>2022-06-05T15:57:08Z</time>
      </trkpt>
      <trkpt lat="46.99739" lon="5.96549">
        <ele>570</ele>
        <time>2022-06-05T15:57:19Z</time>
      </trkpt>
      <trkpt lat="46.99831" lon="5.96577">
        <ele>566</ele>
        <time>2022-06-05T15:58:35Z</time>
      </trkpt>
      <trkpt lat="46.99923" lon="5.96586">
        <ele>562</ele>
        <time>2022-06-05T15:59:48Z</time>
      </trkpt>
      <trkpt lat="46.99935" lon="5.96584">
        <ele>561</ele>
        <time>2022-06-05T15:59:58Z</time>
      </trkpt>
      <trkpt lat="46.99941" lon="5.9658">
        <ele>560</ele>
        <time>2022-06-05T16:00:03Z</time>
      </trkpt>
      <trkpt lat="46.99987" lon="5.96533">
        <ele>552</ele>
        <time>2022-06-05T16:00:48Z</time>
      </trkpt>
      <trkpt lat="47.00005" lon="5.96521">
        <ele>549</ele>
        <time>2022-06-05T16:01:04Z</time>
      </trkpt>
      <trkpt lat="47.00016" lon="5.96516">
        <ele>548</ele>
        <time>2022-06-05T16:01:13Z</time>
      </trkpt>
      <trkpt lat="47.00055" lon="5.96511">
        <ele>545</ele>
        <time>2022-06-05T16:01:45Z</time>
      </trkpt>
      <trkpt lat="47.00101" lon="5.96496">
        <ele>540</ele>
        <time>2022-06-05T16:02:23Z</time>
      </trkpt>
      <trkpt lat="47.00236" lon="5.96433">
        <ele>526</ele>
        <time>2022-06-05T16:04:16Z</time>
      </trkpt>
      <trkpt lat="47.00291" lon="5.96413">
        <ele>522</ele>
        <time>2022-06-05T16:05:02Z</time>
      </trkpt>
      <trkpt lat="47.00298" lon="5.96417">
        <ele>521</ele>
        <time>2022-06-05T16:05:08Z</time>
      </trkpt>
      <trkpt lat="47.00312" lon="5.96432">
        <ele>519</ele>
        <time>2022-06-05T16:05:21Z</time>
      </trkpt>
      <trkpt lat="47.00347" lon="5.96453">
        <ele>516</ele>
        <time>2022-06-05T16:05:52Z</time>
      </trkpt>
      <trkpt lat="47.00404" lon="5.96474">
        <ele>512</ele>
        <time>2022-06-05T16:06:39Z</time>
      </trkpt>
      <trkpt lat="47.00474" lon="5.96509">
        <ele>507</ele>
        <time>2022-06-05T16:07:38Z</time>
      </trkpt>
      <trkpt lat="47.0056" lon="5.9656">
        <ele>502</ele>
        <time>2022-06-05T16:08:53Z</time>
      </trkpt>
      <trkpt lat="47.00616" lon="5.96607">
        <ele>497</ele>
        <time>2022-06-05T16:09:44Z</time>
      </trkpt>
      <trkpt lat="47.00703" lon="5.96702">
        <ele>491</ele>
        <time>2022-06-05T16:11:11Z</time>
      </trkpt>
      <trkpt lat="47.00767" lon="5.96744">
        <ele>487</ele>
        <time>2022-06-05T16:12:07Z</time>
      </trkpt>
      <trkpt lat="47.00876" lon="5.9683">
        <ele>478</ele>
        <time>2022-06-05T16:13:47Z</time>
      </trkpt>
      <trkpt lat="47.01008" lon="5.96965">
        <ele>471</ele>
        <time>2022-06-05T16:15:56Z</time>
      </trkpt>
      <trkpt lat="47.01057" lon="5.96999">
        <ele>469</ele>
        <time>2022-06-05T16:16:39Z</time>
      </trkpt>
      <trkpt lat="47.01108" lon="5.9701">
        <ele>467</ele>
        <time>2022-06-05T16:17:20Z</time>
      </trkpt>
      <trkpt lat="47.01147" lon="5.97034">
        <ele>468</ele>
        <time>2022-06-05T16:17:54Z</time>
      </trkpt>
      <trkpt lat="47.01219" lon="5.97071">
        <ele>470</ele>
        <time>2022-06-05T16:18:55Z</time>
      </trkpt>
      <trkpt lat="47.01264" lon="5.97102">
        <ele>472</ele>
        <time>2022-06-05T16:19:35Z</time>
      </trkpt>
      <trkpt lat="47.01447" lon="5.97158">
        <ele>466</ele>
        <time>2022-06-05T16:22:05Z</time>
      </trkpt>
      <trkpt lat="47.01487" lon="5.9716">
        <ele>463</ele>
        <time>2022-06-05T16:22:37Z</time>
      </trkpt>
      <trkpt lat="47.01559" lon="5.97169">
        <ele>454</ele>
        <time>2022-06-05T16:23:35Z</time>
      </trkpt>
      <trkpt lat="47.01582" lon="5.9718">
        <ele>451</ele>
        <time>2022-06-05T16:23:54Z</time>
      </trkpt>
      <trkpt lat="47.01594" lon="5.97174">
        <ele>450</ele>
        <time>2022-06-05T16:24:05Z</time>
      </trkpt>
      <trkpt lat="47.01616" lon="5.97169">
        <ele>449</ele>
        <time>2022-06-05T16:24:22Z</time>
      </trkpt>
      <trkpt lat="47.01631" lon="5.97172">
        <ele>448</ele>
        <time>2022-06-05T16:24:35Z</time>
      </trkpt>
      <trkpt lat="47.01664" lon="5.97185">
        <ele>445</ele>
        <time>2022-06-05T16:25:02Z</time>
      </trkpt>
      <trkpt lat="47.01687" lon="5.97175">
        <ele>445</ele>
        <time>2022-06-05T16:25:21Z</time>
      </trkpt>
      <trkpt lat="47.01716" lon="5.97158">
        <ele>443</ele>
        <time>2022-06-05T16:25:46Z</time>
      </trkpt>
      <trkpt lat="47.01731" lon="5.97153">
        <ele>443</ele>
        <time>2022-06-05T16:25:59Z</time>
      </trkpt>
      <trkpt lat="47.0174" lon="5.97153">
        <ele>442</ele>
        <time>2022-06-05T16:26:06Z</time>
      </trkpt>
      <trkpt lat="47.01836" lon="5.97193">
        <ele>436</ele>
        <time>2022-06-05T16:27:26Z</time>
      </trkpt>
      <trkpt lat="47.01917" lon="5.97253">
        <ele>436</ele>
        <time>2022-06-05T16:28:39Z</time>
      </trkpt>
      <trkpt lat="47.01931" lon="5.97259">
        <ele>435</ele>
        <time>2022-06-05T16:28:50Z</time>
      </trkpt>
      <trkpt lat="47.01964" lon="5.97265">
        <ele>435</ele>
        <time>2022-06-05T16:29:17Z</time>
      </trkpt>
      <trkpt lat="47.01981" lon="5.97265">
        <ele>435</ele>
        <time>2022-06-05T16:29:30Z</time>
      </trkpt>
      <trkpt lat="47.02007" lon="5.97259">
        <ele>434</ele>
        <time>2022-06-05T16:29:52Z</time>
      </trkpt>
      <trkpt lat="47.02025" lon="5.97226">
        <ele>432</ele>
        <time>2022-06-05T16:30:15Z</time>
      </trkpt>
      <trkpt lat="47.0204" lon="5.9719">
        <ele>430</ele>
        <time>2022-06-05T16:30:38Z</time>
      </trkpt>
      <trkpt lat="47.02052" lon="5.97157">
        <ele>428</ele>
        <time>2022-06-05T16:30:58Z</time>
      </trkpt>
      <trkpt lat="47.02057" lon="5.97131">
        <ele>426</ele>
        <time>2022-06-05T16:31:13Z</time>
      </trkpt>
      <trkpt lat="47.02092" lon="5.97052">
        <ele>417</ele>
        <time>2022-06-05T16:32:04Z</time>
      </trkpt>
      <trkpt lat="47.02155" lon="5.96985">
        <ele>407</ele>
        <time>2022-06-05T16:33:07Z</time>
      </trkpt>
      <trkpt lat="47.02189" lon="5.96974">
        <ele>404</ele>
        <time>2022-06-05T16:33:35Z</time>
      </trkpt>
      <trkpt lat="47.02282" lon="5.96986">
        <ele>396</ele>
        <time>2022-06-05T16:34:49Z</time>
      </trkpt>
      <trkpt lat="47.02389" lon="5.96994">
        <ele>388</ele>
        <time>2022-06-05T16:36:15Z</time>
      </trkpt>
      <trkpt lat="47.02429" lon="5.97003">
        <ele>384</ele>
        <time>2022-06-05T16:36:48Z</time>
      </trkpt>
      <trkpt lat="47.02483" lon="5.97006">
        <ele>379</ele>
        <time>2022-06-05T16:37:31Z</time>
      </trkpt>
      <trkpt lat="47.0252" lon="5.97013">
        <ele>378</ele>
        <time>2022-06-05T16:38:01Z</time>
      </trkpt>
      <trkpt lat="47.02575" lon="5.97031">
        <ele>377</ele>
        <time>2022-06-05T16:38:46Z</time>
      </trkpt>
      <trkpt lat="47.0262" lon="5.9705">
        <ele>374</ele>
        <time>2022-06-05T16:39:24Z</time>
      </trkpt>
      <trkpt lat="47.02656" lon="5.97059">
        <ele>370</ele>
        <time>2022-06-05T16:39:53Z</time>
      </trkpt>
      <trkpt lat="47.02694" lon="5.9705">
        <ele>367</ele>
        <time>2022-06-05T16:40:24Z</time>
      </trkpt>
      <trkpt lat="47.02753" lon="5.9706">
        <ele>358</ele>
        <time>2022-06-05T16:41:11Z</time>
      </trkpt>
      <trkpt lat="47.02815" lon="5.97075">
        <ele>344</ele>
        <time>2022-06-05T16:42:02Z</time>
      </trkpt>
      <trkpt lat="47.02839" lon="5.97089">
        <ele>339</ele>
        <time>2022-06-05T16:42:22Z</time>
      </trkpt>
      <trkpt lat="47.0286" lon="5.97113">
        <ele>336</ele>
        <time>2022-06-05T16:42:44Z</time>
      </trkpt>
      <trkpt lat="47.02882" lon="5.97148">
        <ele>333</ele>
        <time>2022-06-05T16:43:10Z</time>
      </trkpt>
      <trkpt lat="47.02889" lon="5.97152">
        <ele>332</ele>
        <time>2022-06-05T16:43:16Z</time>
      </trkpt>
      <trkpt lat="47.029" lon="5.97153">
        <ele>330</ele>
        <time>2022-06-05T16:43:25Z</time>
      </trkpt>
      <trkpt lat="47.0295" lon="5.97142">
        <ele>325</ele>
        <time>2022-06-05T16:44:05Z</time>
      </trkpt>
      <trkpt lat="47.0299" lon="5.97165">
        <ele>324</ele>
        <time>2022-06-05T16:44:40Z</time>
      </trkpt>
      <trkpt lat="47.03043" lon="5.97189">
        <ele>337</ele>
        <time>2022-06-05T16:45:24Z</time>
      </trkpt>
      <trkpt lat="47.03063" lon="5.97053">
        <ele>339</ele>
        <time>2022-06-05T16:46:40Z</time>
      </trkpt>
      <trkpt lat="47.0307" lon="5.96978">
        <ele>336</ele>
        <time>2022-06-05T16:47:21Z</time>
      </trkpt>
      <trkpt lat="47.0307" lon="5.96897">
        <ele>335</ele>
        <time>2022-06-05T16:48:06Z</time>
      </trkpt>
      <trkpt lat="47.03063" lon="5.9684">
        <ele>336</ele>
        <time>2022-06-05T16:48:37Z</time>
      </trkpt>
      <trkpt lat="47.03041" lon="5.96767">
        <ele>334</ele>
        <time>2022-06-05T16:49:21Z</time>
      </trkpt>
      <trkpt lat="47.03039" lon="5.96751">
        <ele>334</ele>
        <time>2022-06-05T16:49:30Z</time>
      </trkpt>
      <trkpt lat="47.03055" lon="5.96727">
        <ele>337</ele>
        <time>2022-06-05T16:49:48Z</time>
      </trkpt>
      <trkpt lat="47.03092" lon="5.96694">
        <ele>341</ele>
        <time>2022-06-05T16:50:23Z</time>
      </trkpt>
      <trkpt lat="47.03138" lon="5.96683">
        <ele>348</ele>
        <time>2022-06-05T16:51:00Z</time>
      </trkpt>
      <trkpt lat="47.03171" lon="5.96682">
        <ele>352</ele>
        <time>2022-06-05T16:51:27Z</time>
      </trkpt>
      <trkpt lat="47.03176" lon="5.96687">
        <ele>354</ele>
        <time>2022-06-05T16:51:32Z</time>
      </trkpt>
      <trkpt lat="47.03173" lon="5.96695">
        <ele>355</ele>
        <time>2022-06-05T16:51:37Z</time>
      </trkpt>
      <trkpt lat="47.03181" lon="5.96703">
        <ele>357</ele>
        <time>2022-06-05T16:51:44Z</time>
      </trkpt>
      <trkpt lat="47.0324" lon="5.96706">
        <ele>363</ele>
        <time>2022-06-05T16:52:32Z</time>
      </trkpt>
      <trkpt lat="47.03325" lon="5.96727">
        <ele>375</ele>
        <time>2022-06-05T16:53:41Z</time>
      </trkpt>
      <trkpt lat="47.03436" lon="5.96782">
        <ele>388</ele>
        <time>2022-06-05T16:55:15Z</time>
      </trkpt>
      <trkpt lat="47.03474" lon="5.96797">
        <ele>390</ele>
        <time>2022-06-05T16:55:46Z</time>
      </trkpt>
      <trkpt lat="47.03507" lon="5.96814">
        <ele>392</ele>
        <time>2022-06-05T16:56:14Z</time>
      </trkpt>
      <trkpt lat="47.03582" lon="5.96835">
        <ele>394</ele>
        <time>2022-06-05T16:57:15Z</time>
      </trkpt>
      <trkpt lat="47.03598" lon="5.96843">
        <ele>395</ele>
        <time>2022-06-05T16:57:29Z</time>
      </trkpt>
      <trkpt lat="47.03638" lon="5.96875">
        <ele>399</ele>
        <time>2022-06-05T16:58:05Z</time>
      </trkpt>
      <trkpt lat="47.03671" lon="5.96895">
        <ele>401</ele>
        <time>2022-06-05T16:58:34Z</time>
      </trkpt>
      <trkpt lat="47.0375" lon="5.96964">
        <ele>411</ele>
        <time>2022-06-05T16:59:48Z</time>
      </trkpt>
      <trkpt lat="47.03802" lon="5.97005">
        <ele>414</ele>
        <time>2022-06-05T17:00:35Z</time>
      </trkpt>
      <trkpt lat="47.03919" lon="5.97137">
        <ele>431</ele>
        <time>2022-06-05T17:02:33Z</time>
      </trkpt>
      <trkpt lat="47.03974" lon="5.9719">
        <ele>438</ele>
        <time>2022-06-05T17:03:26Z</time>
      </trkpt>
      <trkpt lat="47.04052" lon="5.97246">
        <ele>443</ele>
        <time>2022-06-05T17:04:36Z</time>
      </trkpt>
      <trkpt lat="47.04152" lon="5.97307">
        <ele>447</ele>
        <time>2022-06-05T17:06:02Z</time>
      </trkpt>
      <trkpt lat="47.04183" lon="5.97307">
        <ele>446</ele>
        <time>2022-06-05T17:06:27Z</time>
      </trkpt>
      <trkpt lat="47.04239" lon="5.97298">
        <ele>444</ele>
        <time>2022-06-05T17:07:12Z</time>
      </trkpt>
      <trkpt lat="47.04257" lon="5.97287">
        <ele>443</ele>
        <time>2022-06-05T17:07:28Z</time>
      </trkpt>
      <trkpt lat="47.04291" lon="5.97251">
        <ele>439</ele>
        <time>2022-06-05T17:08:02Z</time>
      </trkpt>
      <trkpt lat="47.04319" lon="5.97233">
        <ele>439</ele>
        <time>2022-06-05T17:08:26Z</time>
      </trkpt>
      <trkpt lat="47.04345" lon="5.97237">
        <ele>442</ele>
        <time>2022-06-05T17:08:47Z</time>
      </trkpt>
      <trkpt lat="47.04363" lon="5.97245">
        <ele>443</ele>
        <time>2022-06-05T17:09:02Z</time>
      </trkpt>
      <trkpt lat="47.04444" lon="5.97322">
        <ele>450</ele>
        <time>2022-06-05T17:10:20Z</time>
      </trkpt>
      <trkpt lat="47.04461" lon="5.97342">
        <ele>451</ele>
        <time>2022-06-05T17:10:37Z</time>
      </trkpt>
      <trkpt lat="47.04496" lon="5.97394">
        <ele>451</ele>
        <time>2022-06-05T17:11:17Z</time>
      </trkpt>
      <trkpt lat="47.04529" lon="5.97433">
        <ele>452</ele>
        <time>2022-06-05T17:11:51Z</time>
      </trkpt>
      <trkpt lat="47.0456" lon="5.97479">
        <ele>455</ele>
        <time>2022-06-05T17:12:26Z</time>
      </trkpt>
      <trkpt lat="47.04607" lon="5.97532">
        <ele>456</ele>
        <time>2022-06-05T17:13:14Z</time>
      </trkpt>
      <trkpt lat="47.04622" lon="5.97555">
        <ele>455</ele>
        <time>2022-06-05T17:13:31Z</time>
      </trkpt>
      <trkpt lat="47.04636" lon="5.97614">
        <ele>455</ele>
        <time>2022-06-05T17:14:05Z</time>
      </trkpt>
      <trkpt lat="47.04668" lon="5.97716">
        <ele>453</ele>
        <time>2022-06-05T17:15:07Z</time>
      </trkpt>
      <trkpt lat="47.04691" lon="5.97773">
        <ele>450</ele>
        <time>2022-06-05T17:15:43Z</time>
      </trkpt>
      <trkpt lat="47.04698" lon="5.97816">
        <ele>450</ele>
        <time>2022-06-05T17:16:07Z</time>
      </trkpt>
      <trkpt lat="47.04733" lon="5.97923">
        <ele>450</ele>
        <time>2022-06-05T17:17:12Z</time>
      </trkpt>
      <trkpt lat="47.04746" lon="5.9797">
        <ele>450</ele>
        <time>2022-06-05T17:17:39Z</time>
      </trkpt>
      <trkpt lat="47.04761" lon="5.98054">
        <ele>451</ele>
        <time>2022-06-05T17:18:27Z</time>
      </trkpt>
      <trkpt lat="47.04772" lon="5.98079">
        <ele>452</ele>
        <time>2022-06-05T17:18:43Z</time>
      </trkpt>
      <trkpt lat="47.04788" lon="5.98102">
        <ele>452</ele>
        <time>2022-06-05T17:19:01Z</time>
      </trkpt>
      <trkpt lat="47.048" lon="5.98152">
        <ele>453</ele>
        <time>2022-06-05T17:19:30Z</time>
      </trkpt>
      <trkpt lat="47.048" lon="5.98178">
        <ele>452</ele>
        <time>2022-06-05T17:19:44Z</time>
      </trkpt>
      <trkpt lat="47.04806" lon="5.98184">
        <ele>452</ele>
        <time>2022-06-05T17:19:50Z</time>
      </trkpt>
      <trkpt lat="47.04826" lon="5.98142">
        <ele>452</ele>
        <time>2022-06-05T17:20:18Z</time>
      </trkpt>
      <trkpt lat="47.04852" lon="5.98149">
        <ele>455</ele>
        <time>2022-06-05T17:20:39Z</time>
      </trkpt>
      <trkpt lat="47.04879" lon="5.98142">
        <ele>459</ele>
        <time>2022-06-05T17:21:01Z</time>
      </trkpt>
      <trkpt lat="47.04889" lon="5.98146">
        <ele>461</ele>
        <time>2022-06-05T17:21:10Z</time>
      </trkpt>
      <trkpt lat="47.04902" lon="5.98158">
        <ele>463</ele>
        <time>2022-06-05T17:21:22Z</time>
      </trkpt>
      <trkpt lat="47.04932" lon="5.98215">
        <ele>463</ele>
        <time>2022-06-05T17:22:01Z</time>
      </trkpt>
      <trkpt lat="47.04947" lon="5.98229">
        <ele>465</ele>
        <time>2022-06-05T17:22:15Z</time>
      </trkpt>
      <trkpt lat="47.0498" lon="5.98233">
        <ele>473</ele>
        <time>2022-06-05T17:22:42Z</time>
      </trkpt>
      <trkpt lat="47.04993" lon="5.98229">
        <ele>476</ele>
        <time>2022-06-05T17:22:53Z</time>
      </trkpt>
      <trkpt lat="47.05041" lon="5.98174">
        <ele>472</ele>
        <time>2022-06-05T17:23:41Z</time>
      </trkpt>
      <trkpt lat="47.0507" lon="5.98168">
        <ele>467</ele>
        <time>2022-06-05T17:24:05Z</time>
      </trkpt>
      <trkpt lat="47.05084" lon="5.98177">
        <ele>466</ele>
        <time>2022-06-05T17:24:17Z</time>
      </trkpt>
      <trkpt lat="47.05156" lon="5.98266">
        <ele>464</ele>
        <time>2022-06-05T17:25:33Z</time>
      </trkpt>
      <trkpt lat="47.05296" lon="5.98422">
        <ele>462</ele>
        <time>2022-06-05T17:27:53Z</time>
      </trkpt>
      <trkpt lat="47.05354" lon="5.9847">
        <ele>459</ele>
        <time>2022-06-05T17:28:47Z</time>
      </trkpt>
      <trkpt lat="47.0541" lon="5.98477">
        <ele>450</ele>
        <time>2022-06-05T17:29:32Z</time>
      </trkpt>
      <trkpt lat="47.05451" lon="5.98488">
        <ele>443</ele>
        <time>2022-06-05T17:30:05Z</time>
      </trkpt>
      <trkpt lat="47.05405" lon="5.98417">
        <ele>438</ele>
        <time>2022-06-05T17:30:59Z</time>
      </trkpt>
      <trkpt lat="47.05404" lon="5.98408">
        <ele>436</ele>
        <time>2022-06-05T17:31:04Z</time>
      </trkpt>
      <trkpt lat="47.05417" lon="5.98401">
        <ele>432</ele>
        <time>2022-06-05T17:31:15Z</time>
      </trkpt>
      <trkpt lat="47.05487" lon="5.98391">
        <ele>423</ele>
        <time>2022-06-05T17:32:11Z</time>
      </trkpt>
      <trkpt lat="47.0552" lon="5.98393">
        <ele>420</ele>
        <time>2022-06-05T17:32:38Z</time>
      </trkpt>
      <trkpt lat="47.05546" lon="5.98402">
        <ele>418</ele>
        <time>2022-06-05T17:32:59Z</time>
      </trkpt>
      <trkpt lat="47.05564" lon="5.98419">
        <ele>418</ele>
        <time>2022-06-05T17:33:16Z</time>
      </trkpt>
      <trkpt lat="47.05582" lon="5.98431">
        <ele>415</ele>
        <time>2022-06-05T17:33:32Z</time>
      </trkpt>
      <trkpt lat="47.05579" lon="5.98459">
        <ele>415</ele>
        <time>2022-06-05T17:33:48Z</time>
      </trkpt>
      <trkpt lat="47.0558" lon="5.98529">
        <ele>411</ele>
        <time>2022-06-05T17:34:26Z</time>
      </trkpt>
      <trkpt lat="47.05572" lon="5.98621">
        <ele>409</ele>
        <time>2022-06-05T17:35:16Z</time>
      </trkpt>
      <trkpt lat="47.05555" lon="5.9874">
        <ele>403</ele>
        <time>2022-06-05T17:36:23Z</time>
      </trkpt>
      <trkpt lat="47.05557" lon="5.98765">
        <ele>402</ele>
        <time>2022-06-05T17:36:37Z</time>
      </trkpt>
      <trkpt lat="47.05566" lon="5.98811">
        <ele>399</ele>
        <time>2022-06-05T17:37:03Z</time>
      </trkpt>
      <trkpt lat="47.05566" lon="5.9883">
        <ele>399</ele>
        <time>2022-06-05T17:37:13Z</time>
      </trkpt>
      <trkpt lat="47.0556" lon="5.9885">
        <ele>397</ele>
        <time>2022-06-05T17:37:25Z</time>
      </trkpt>
      <trkpt lat="47.05548" lon="5.98866">
        <ele>397</ele>
        <time>2022-06-05T17:37:38Z</time>
      </trkpt>
      <trkpt lat="47.05495" lon="5.98893">
        <ele>397</ele>
        <time>2022-06-05T17:38:23Z</time>
      </trkpt>
      <trkpt lat="47.05488" lon="5.98906">
        <ele>397</ele>
        <time>2022-06-05T17:38:32Z</time>
      </trkpt>
      <trkpt lat="47.05487" lon="5.98918">
        <ele>396</ele>
        <time>2022-06-05T17:38:39Z</time>
      </trkpt>
      <trkpt lat="47.05491" lon="5.98931">
        <ele>397</ele>
        <time>2022-06-05T17:38:46Z</time>
      </trkpt>
      <trkpt lat="47.05513" lon="5.98962">
        <ele>396</ele>
        <time>2022-06-05T17:39:11Z</time>
      </trkpt>
      <trkpt lat="47.05521" lon="5.98981">
        <ele>396</ele>
        <time>2022-06-05T17:39:23Z</time>
      </trkpt>
      <trkpt lat="47.05524" lon="5.98997">
        <ele>395</ele>
        <time>2022-06-05T17:39:32Z</time>
      </trkpt>
      <trkpt lat="47.05523" lon="5.99048">
        <ele>397</ele>
        <time>2022-06-05T17:40:00Z</time>
      </trkpt>
      <trkpt lat="47.05528" lon="5.99067">
        <ele>398</ele>
        <time>2022-06-05T17:40:11Z</time>
      </trkpt>
      <trkpt lat="47.05552" lon="5.99126">
        <ele>399</ele>
        <time>2022-06-05T17:40:49Z</time>
      </trkpt>
      <trkpt lat="47.05555" lon="5.99169">
        <ele>401</ele>
        <time>2022-06-05T17:41:12Z</time>
      </trkpt>
      <trkpt lat="47.05581" lon="5.99215">
        <ele>402</ele>
        <time>2022-06-05T17:41:45Z</time>
      </trkpt>
      <trkpt lat="47.05587" lon="5.99235">
        <ele>402</ele>
        <time>2022-06-05T17:41:57Z</time>
      </trkpt>
      <trkpt lat="47.05597" lon="5.99234">
        <ele>401</ele>
        <time>2022-06-05T17:42:05Z</time>
      </trkpt>
      <trkpt lat="47.05611" lon="5.99242">
        <ele>401</ele>
        <time>2022-06-05T17:42:17Z</time>
      </trkpt>
      <trkpt lat="47.05626" lon="5.99265">
        <ele>401</ele>
        <time>2022-06-05T17:42:34Z</time>
      </trkpt>
      <trkpt lat="47.05642" lon="5.99305">
        <ele>402</ele>
        <time>2022-06-05T17:43:00Z</time>
      </trkpt>
      <trkpt lat="47.05665" lon="5.99292">
        <ele>401</ele>
        <time>2022-06-05T17:43:19Z</time>
      </trkpt>
      <trkpt lat="47.05705" lon="5.99243">
        <ele>397</ele>
        <time>2022-06-05T17:44:01Z</time>
      </trkpt>
      <trkpt lat="47.05814" lon="5.99121">
        <ele>387</ele>
        <time>2022-06-05T17:45:51Z</time>
      </trkpt>
      <trkpt lat="47.05857" lon="5.99078">
        <ele>381</ele>
        <time>2022-06-05T17:46:33Z</time>
      </trkpt>
      <trkpt lat="47.05872" lon="5.99055">
        <ele>376</ele>
        <time>2022-06-05T17:46:50Z</time>
      </trkpt>
      <trkpt lat="47.05884" lon="5.9897">
        <ele>368</ele>
        <time>2022-06-05T17:47:37Z</time>
      </trkpt>
      <trkpt lat="47.05882" lon="5.98941">
        <ele>365</ele>
        <time>2022-06-05T17:47:53Z</time>
      </trkpt>
      <trkpt lat="47.05893" lon="5.98931">
        <ele>362</ele>
        <time>2022-06-05T17:48:04Z</time>
      </trkpt>
      <trkpt lat="47.05904" lon="5.98928">
        <ele>360</ele>
        <time>2022-06-05T17:48:13Z</time>
      </trkpt>
      <trkpt lat="47.05934" lon="5.9895">
        <ele>352</ele>
        <time>2022-06-05T17:48:40Z</time>
      </trkpt>
      <trkpt lat="47.05957" lon="5.9898">
        <ele>344</ele>
        <time>2022-06-05T17:49:04Z</time>
      </trkpt>
      <trkpt lat="47.05987" lon="5.99049">
        <ele>340</ele>
        <time>2022-06-05T17:49:49Z</time>
      </trkpt>
      <trkpt lat="47.0602" lon="5.99144">
        <ele>343</ele>
        <time>2022-06-05T17:50:47Z</time>
      </trkpt>
      <trkpt lat="47.06034" lon="5.99167">
        <ele>342</ele>
        <time>2022-06-05T17:51:04Z</time>
      </trkpt>
      <trkpt lat="47.06054" lon="5.99188">
        <ele>337</ele>
        <time>2022-06-05T17:51:24Z</time>
      </trkpt>
      <trkpt lat="47.06076" lon="5.99206">
        <ele>332</ele>
        <time>2022-06-05T17:51:44Z</time>
      </trkpt>
      <trkpt lat="47.06107" lon="5.99225">
        <ele>325</ele>
        <time>2022-06-05T17:52:11Z</time>
      </trkpt>
      <trkpt lat="47.06123" lon="5.99228">
        <ele>320</ele>
        <time>2022-06-05T17:52:24Z</time>
      </trkpt>
      <trkpt lat="47.06136" lon="5.99227">
        <ele>316</ele>
        <time>2022-06-05T17:52:34Z</time>
      </trkpt>
      <trkpt lat="47.06155" lon="5.99245">
        <ele>312</ele>
        <time>2022-06-05T17:52:52Z</time>
      </trkpt>
      <trkpt lat="47.06195" lon="5.99254">
        <ele>307</ele>
        <time>2022-06-05T17:53:25Z</time>
      </trkpt>
      <trkpt lat="47.06222" lon="5.99266">
        <ele>308</ele>
        <time>2022-06-05T17:53:47Z</time>
      </trkpt>
      <trkpt lat="47.06262" lon="5.99287">
        <ele>309</ele>
        <time>2022-06-05T17:54:21Z</time>
      </trkpt>
      <trkpt lat="47.06297" lon="5.99313">
        <ele>312</ele>
        <time>2022-06-05T17:54:53Z</time>
      </trkpt>
      <trkpt lat="47.06332" lon="5.99329">
        <ele>311</ele>
        <time>2022-06-05T17:55:22Z</time>
      </trkpt>
      <trkpt lat="47.06358" lon="5.99346">
        <ele>318</ele>
        <time>2022-06-05T17:55:45Z</time>
      </trkpt>
      <trkpt lat="47.06377" lon="5.9935">
        <ele>321</ele>
        <time>2022-06-05T17:56:00Z</time>
      </trkpt>
      <trkpt lat="47.0643" lon="5.99333">
        <ele>318</ele>
        <time>2022-06-05T17:56:44Z</time>
      </trkpt>
      <trkpt lat="47.0645" lon="5.99324">
        <ele>322</ele>
        <time>2022-06-05T17:57:01Z</time>
      </trkpt>
      <trkpt lat="47.06462" lon="5.99315">
        <ele>324</ele>
        <time>2022-06-05T17:57:12Z</time>
      </trkpt>
      <trkpt lat="47.06472" lon="5.99305">
        <ele>323</ele>
        <time>2022-06-05T17:57:21Z</time>
      </trkpt>
      <trkpt lat="47.06565" lon="5.99166">
        <ele>309</ele>
        <time>2022-06-05T17:59:08Z</time>
      </trkpt>
      <trkpt lat="47.06583" lon="5.99149">
        <ele>309</ele>
        <time>2022-06-05T17:59:25Z</time>
      </trkpt>
      <trkpt lat="47.06636" lon="5.99112">
        <ele>308</ele>
        <time>2022-06-05T18:00:12Z</time>
      </trkpt>
      <trkpt lat="47.06689" lon="5.99086">
        <ele>303</ele>
        <time>2022-06-05T18:00:57Z</time>
      </trkpt>
      <trkpt lat="47.06758" lon="5.99102">
        <ele>309</ele>
        <time>2022-06-05T18:01:53Z</time>
      </trkpt>
      <trkpt lat="47.06832" lon="5.99136">
        <ele>317</ele>
        <time>2022-06-05T18:02:55Z</time>
      </trkpt>
      <trkpt lat="47.06916" lon="5.9917">
        <ele>320</ele>
        <time>2022-06-05T18:04:05Z</time>
      </trkpt>
      <trkpt lat="47.06981" lon="5.9917">
        <ele>319</ele>
        <time>2022-06-05T18:04:57Z</time>
      </trkpt>
      <trkpt lat="47.07045" lon="5.9918">
        <ele>321</ele>
        <time>2022-06-05T18:05:48Z</time>
      </trkpt>
      <trkpt lat="47.07066" lon="5.99181">
        <ele>321</ele>
        <time>2022-06-05T18:06:05Z</time>
      </trkpt>
      <trkpt lat="47.07072" lon="5.99168">
        <ele>319</ele>
        <time>2022-06-05T18:06:14Z</time>
      </trkpt>
      <trkpt lat="47.07098" lon="5.99144">
        <ele>316</ele>
        <time>2022-06-05T18:06:38Z</time>
      </trkpt>
      <trkpt lat="47.07108" lon="5.99126">
        <ele>314</ele>
        <time>2022-06-05T18:06:51Z</time>
      </trkpt>
      <trkpt lat="47.07132" lon="5.99031">
        <ele>307</ele>
        <time>2022-06-05T18:07:46Z</time>
      </trkpt>
      <trkpt lat="47.07156" lon="5.9899">
        <ele>304</ele>
        <time>2022-06-05T18:08:16Z</time>
      </trkpt>
      <trkpt lat="47.07204" lon="5.98946">
        <ele>300</ele>
        <time>2022-06-05T18:09:01Z</time>
      </trkpt>
      <trkpt lat="47.07216" lon="5.98945">
        <ele>300</ele>
        <time>2022-06-05T18:09:11Z</time>
      </trkpt>
      <trkpt lat="47.07228" lon="5.98949">
        <ele>300</ele>
        <time>2022-06-05T18:09:21Z</time>
      </trkpt>
      <trkpt lat="47.07237" lon="5.98959">
        <ele>301</ele>
        <time>2022-06-05T18:09:30Z</time>
      </trkpt>
      <trkpt lat="47.0726" lon="5.99019">
        <ele>304</ele>
        <time>2022-06-05T18:10:07Z</time>
      </trkpt>
      <trkpt lat="47.07269" lon="5.99061">
        <ele>306</ele>
        <time>2022-06-05T18:10:31Z</time>
      </trkpt>
      <trkpt lat="47.07274" lon="5.99106">
        <ele>306</ele>
        <time>2022-06-05T18:10:56Z</time>
      </trkpt>
      <trkpt lat="47.07273" lon="5.99134">
        <ele>306</ele>
        <time>2022-06-05T18:11:11Z</time>
      </trkpt>
      <trkpt lat="47.07268" lon="5.99164">
        <ele>306</ele>
        <time>2022-06-05T18:11:28Z</time>
      </trkpt>
      <trkpt lat="47.07259" lon="5.99188">
        <ele>305</ele>
        <time>2022-06-05T18:11:43Z</time>
      </trkpt>
      <trkpt lat="47.07243" lon="5.99216">
        <ele>303</ele>
        <time>2022-06-05T18:12:03Z</time>
      </trkpt>
      <trkpt lat="47.07203" lon="5.99273">
        <ele>306</ele>
        <time>2022-06-05T18:12:48Z</time>
      </trkpt>
      <trkpt lat="47.07148" lon="5.99331">
        <ele>304</ele>
        <time>2022-06-05T18:13:42Z</time>
      </trkpt>
      <trkpt lat="47.07136" lon="5.99339">
        <ele>306</ele>
        <time>2022-06-05T18:13:53Z</time>
      </trkpt>
      <trkpt lat="47.07116" lon="5.99348">
        <ele>309</ele>
        <time>2022-06-05T18:14:10Z</time>
      </trkpt>
      <trkpt lat="47.07078" lon="5.99358">
        <ele>313</ele>
        <time>2022-06-05T18:14:40Z</time>
      </trkpt>
      <trkpt lat="47.0703" lon="5.99376">
        <ele>314</ele>
        <time>2022-06-05T18:15:20Z</time>
      </trkpt>
      <trkpt lat="47.06958" lon="5.99394">
        <ele>318</ele>
        <time>2022-06-05T18:16:19Z</time>
      </trkpt>
      <trkpt lat="47.06928" lon="5.99404">
        <ele>319</ele>
        <time>2022-06-05T18:16:43Z</time>
      </trkpt>
      <trkpt lat="47.06886" lon="5.9943">
        <ele>322</ele>
        <time>2022-06-05T18:17:20Z</time>
      </trkpt>
      <trkpt lat="47.06842" lon="5.99468">
        <ele>319</ele>
        <time>2022-06-05T18:18:01Z</time>
      </trkpt>
      <trkpt lat="47.06813" lon="5.9951">
        <ele>319</ele>
        <time>2022-06-05T18:18:33Z</time>
      </trkpt>
      <trkpt lat="47.06787" lon="5.99561">
        <ele>325</ele>
        <time>2022-06-05T18:19:08Z</time>
      </trkpt>
      <trkpt lat="47.06762" lon="5.99633">
        <ele>327</ele>
        <time>2022-06-05T18:19:52Z</time>
      </trkpt>
      <trkpt lat="47.06747" lon="5.99708">
        <ele>324</ele>
        <time>2022-06-05T18:20:35Z</time>
      </trkpt>
      <trkpt lat="47.06744" lon="5.99761">
        <ele>322</ele>
        <time>2022-06-05T18:21:04Z</time>
      </trkpt>
      <trkpt lat="47.06745" lon="5.99822">
        <ele>317</ele>
        <time>2022-06-05T18:21:37Z</time>
      </trkpt>
      <trkpt lat="47.06771" lon="5.99934">
        <ele>317</ele>
        <time>2022-06-05T18:22:42Z</time>
      </trkpt>
      <trkpt lat="47.06791" lon="5.9999">
        <ele>321</ele>
        <time>2022-06-05T18:23:16Z</time>
      </trkpt>
      <trkpt lat="47.06858" lon="6.0013">
        <ele>321</ele>
        <time>2022-06-05T18:24:50Z</time>
      </trkpt>
      <trkpt lat="47.06893" lon="6.00194">
        <ele>317</ele>
        <time>2022-06-05T18:25:35Z</time>
      </trkpt>
      <trkpt lat="47.06939" lon="6.00269">
        <ele>318</ele>
        <time>2022-06-05T18:26:30Z</time>
      </trkpt>
      <trkpt lat="47.06975" lon="6.00321">
        <ele>316</ele>
        <time>2022-06-05T18:27:10Z</time>
      </trkpt>
      <trkpt lat="47.07" lon="6.00366">
        <ele>310</ele>
        <time>2022-06-05T18:27:42Z</time>
      </trkpt>
      <trkpt lat="47.07028" lon="6.00499">
        <ele>318</ele>
        <time>2022-06-05T18:28:58Z</time>
      </trkpt>
      <trkpt lat="47.07035" lon="6.00577">
        <ele>316</ele>
        <time>2022-06-05T18:29:41Z</time>
      </trkpt>
      <trkpt lat="47.07036" lon="6.0068">
        <ele>317</ele>
        <time>2022-06-05T18:30:37Z</time>
      </trkpt>
      <trkpt lat="47.07012" lon="6.00917">
        <ele>317</ele>
        <time>2022-06-05T18:32:48Z</time>
      </trkpt>
      <trkpt lat="47.06975" lon="6.01017">
        <ele>328</ele>
        <time>2022-06-05T18:33:50Z</time>
      </trkpt>
      <trkpt lat="47.0697" lon="6.01039">
        <ele>330</ele>
        <time>2022-06-05T18:34:03Z</time>
      </trkpt>
      <trkpt lat="47.06968" lon="6.01069">
        <ele>330</ele>
        <time>2022-06-05T18:34:19Z</time>
      </trkpt>
      <trkpt lat="47.06969" lon="6.0112">
        <ele>328</ele>
        <time>2022-06-05T18:34:47Z</time>
      </trkpt>
      <trkpt lat="47.06987" lon="6.01206">
        <ele>321</ele>
        <time>2022-06-05T18:35:36Z</time>
      </trkpt>
      <trkpt lat="47.07004" lon="6.0125">
        <ele>317</ele>
        <time>2022-06-05T18:36:04Z</time>
      </trkpt>
      <trkpt lat="47.07023" lon="6.01284">
        <ele>321</ele>
        <time>2022-06-05T18:36:28Z</time>
      </trkpt>
      <trkpt lat="47.07053" lon="6.01319">
        <ele>317</ele>
        <time>2022-06-05T18:36:58Z</time>
      </trkpt>
      <trkpt lat="47.07077" lon="6.0134">
        <ele>310</ele>
        <time>2022-06-05T18:37:21Z</time>
      </trkpt>
      <trkpt lat="47.0709" lon="6.01368">
        <ele>310</ele>
        <time>2022-06-05T18:37:39Z</time>
      </trkpt>
      <trkpt lat="47.07108" lon="6.01418">
        <ele>313</ele>
        <time>2022-06-05T18:38:10Z</time>
      </trkpt>
      <trkpt lat="47.07121" lon="6.01508">
        <ele>324</ele>
        <time>2022-06-05T18:39:00Z</time>
      </trkpt>
      <trkpt lat="47.07128" lon="6.01501">
        <ele>323</ele>
        <time>2022-06-05T18:39:07Z</time>
      </trkpt>
      <trkpt lat="47.07158" lon="6.01407">
        <ele>306</ele>
        <time>2022-06-05T18:40:04Z</time>
      </trkpt>
      <trkpt lat="47.07165" lon="6.01402">
        <ele>305</ele>
        <time>2022-06-05T18:40:10Z</time>
      </trkpt>
      <trkpt lat="47.07264" lon="6.01406">
        <ele>318</ele>
        <time>2022-06-05T18:41:30Z</time>
      </trkpt>
      <trkpt lat="47.07336" lon="6.0143">
        <ele>331</ele>
        <time>2022-06-05T18:42:29Z</time>
      </trkpt>
      <trkpt lat="47.07393" lon="6.01442">
        <ele>335</ele>
        <time>2022-06-05T18:43:15Z</time>
      </trkpt>
      <trkpt lat="47.07463" lon="6.01492">
        <ele>346</ele>
        <time>2022-06-05T18:44:17Z</time>
      </trkpt>
      <trkpt lat="47.07468" lon="6.01505">
        <ele>348</ele>
        <time>2022-06-05T18:44:25Z</time>
      </trkpt>
      <trkpt lat="47.07467" lon="6.01516">
        <ele>349</ele>
        <time>2022-06-05T18:44:31Z</time>
      </trkpt>
      <trkpt lat="47.07453" lon="6.01545">
        <ele>353</ele>
        <time>2022-06-05T18:44:51Z</time>
      </trkpt>
      <trkpt lat="47.07432" lon="6.01638">
        <ele>362</ele>
        <time>2022-06-05T18:45:44Z</time>
      </trkpt>
      <trkpt lat="47.07432" lon="6.01675">
        <ele>365</ele>
        <time>2022-06-05T18:46:05Z</time>
      </trkpt>
      <trkpt lat="47.07388" lon="6.01737">
        <ele>373</ele>
        <time>2022-06-05T18:46:53Z</time>
      </trkpt>
      <trkpt lat="47.07384" lon="6.0174">
        <ele>374</ele>
        <time>2022-06-05T18:46:57Z</time>
      </trkpt>
      <trkpt lat="47.07345" lon="6.01744">
        <ele>378</ele>
        <time>2022-06-05T18:47:28Z</time>
      </trkpt>
      <trkpt lat="47.07314" lon="6.01771">
        <ele>387</ele>
        <time>2022-06-05T18:47:57Z</time>
      </trkpt>
      <trkpt lat="47.07266" lon="6.01833">
        <ele>406</ele>
        <time>2022-06-05T18:48:49Z</time>
      </trkpt>
      <trkpt lat="47.07218" lon="6.01869">
        <ele>412</ele>
        <time>2022-06-05T18:49:32Z</time>
      </trkpt>
      <trkpt lat="47.07162" lon="6.01906">
        <ele>417</ele>
        <time>2022-06-05T18:50:21Z</time>
      </trkpt>
      <trkpt lat="47.07093" lon="6.01973">
        <ele>416</ele>
        <time>2022-06-05T18:51:27Z</time>
      </trkpt>
      <trkpt lat="47.07079" lon="6.01978">
        <ele>413</ele>
        <time>2022-06-05T18:51:39Z</time>
      </trkpt>
      <trkpt lat="47.0707" lon="6.01987">
        <ele>411</ele>
        <time>2022-06-05T18:51:48Z</time>
      </trkpt>
      <trkpt lat="47.07068" lon="6.01996">
        <ele>413</ele>
        <time>2022-06-05T18:51:53Z</time>
      </trkpt>
      <trkpt lat="47.07068" lon="6.02012">
        <ele>414</ele>
        <time>2022-06-05T18:52:01Z</time>
      </trkpt>
      <trkpt lat="47.07081" lon="6.02048">
        <ele>418</ele>
        <time>2022-06-05T18:52:24Z</time>
      </trkpt>
      <trkpt lat="47.07213" lon="6.02352">
        <ele>409</ele>
        <time>2022-06-05T18:55:40Z</time>
      </trkpt>
      <trkpt lat="47.07231" lon="6.02385">
        <ele>411</ele>
        <time>2022-06-05T18:56:04Z</time>
      </trkpt>
      <trkpt lat="47.0725" lon="6.02396">
        <ele>415</ele>
        <time>2022-06-05T18:56:20Z</time>
      </trkpt>
      <trkpt lat="47.07258" lon="6.02404">
        <ele>416</ele>
        <time>2022-06-05T18:56:28Z</time>
      </trkpt>
      <trkpt lat="47.07259" lon="6.02421">
        <ele>416</ele>
        <time>2022-06-05T18:56:37Z</time>
      </trkpt>
      <trkpt lat="47.07253" lon="6.02441">
        <ele>414</ele>
        <time>2022-06-05T18:56:49Z</time>
      </trkpt>
      <trkpt lat="47.07248" lon="6.02474">
        <ele>413</ele>
        <time>2022-06-05T18:57:07Z</time>
      </trkpt>
      <trkpt lat="47.07226" lon="6.02544">
        <ele>411</ele>
        <time>2022-06-05T18:57:49Z</time>
      </trkpt>
      <trkpt lat="47.0722" lon="6.02601">
        <ele>412</ele>
        <time>2022-06-05T18:58:21Z</time>
      </trkpt>
      <trkpt lat="47.07214" lon="6.02626">
        <ele>411</ele>
        <time>2022-06-05T18:58:35Z</time>
      </trkpt>
      <trkpt lat="47.07201" lon="6.02645">
        <ele>409</ele>
        <time>2022-06-05T18:58:50Z</time>
      </trkpt>
      <trkpt lat="47.07201" lon="6.02661">
        <ele>409</ele>
        <time>2022-06-05T18:58:59Z</time>
      </trkpt>
      <trkpt lat="47.07209" lon="6.02687">
        <ele>412</ele>
        <time>2022-06-05T18:59:14Z</time>
      </trkpt>
      <trkpt lat="47.07248" lon="6.02777">
        <ele>416</ele>
        <time>2022-06-05T19:00:13Z</time>
      </trkpt>
      <trkpt lat="47.07301" lon="6.02846">
        <ele>425</ele>
        <time>2022-06-05T19:01:09Z</time>
      </trkpt>
      <trkpt lat="47.07322" lon="6.0289">
        <ele>424</ele>
        <time>2022-06-05T19:01:39Z</time>
      </trkpt>
      <trkpt lat="47.07324" lon="6.02913">
        <ele>421</ele>
        <time>2022-06-05T19:01:51Z</time>
      </trkpt>
      <trkpt lat="47.0732" lon="6.02929">
        <ele>419</ele>
        <time>2022-06-05T19:02:01Z</time>
      </trkpt>
      <trkpt lat="47.07304" lon="6.02947">
        <ele>418</ele>
        <time>2022-06-05T19:02:17Z</time>
      </trkpt>
      <trkpt lat="47.07276" lon="6.02958">
        <ele>418</ele>
        <time>2022-06-05T19:02:40Z</time>
      </trkpt>
      <trkpt lat="47.07219" lon="6.0297">
        <ele>420</ele>
        <time>2022-06-05T19:03:26Z</time>
      </trkpt>
      <trkpt lat="47.07174" lon="6.02973">
        <ele>422</ele>
        <time>2022-06-05T19:04:02Z</time>
      </trkpt>
      <trkpt lat="47.07166" lon="6.02976">
        <ele>422</ele>
        <time>2022-06-05T19:04:09Z</time>
      </trkpt>
      <trkpt lat="47.07161" lon="6.02982">
        <ele>423</ele>
        <time>2022-06-05T19:04:14Z</time>
      </trkpt>
      <trkpt lat="47.07162" lon="6.02997">
        <ele>424</ele>
        <time>2022-06-05T19:04:22Z</time>
      </trkpt>
      <trkpt lat="47.07167" lon="6.03005">
        <ele>426</ele>
        <time>2022-06-05T19:04:28Z</time>
      </trkpt>
      <trkpt lat="47.07269" lon="6.03104">
        <ele>437</ele>
        <time>2022-06-05T19:06:06Z</time>
      </trkpt>
      <trkpt lat="47.07278" lon="6.03116">
        <ele>439</ele>
        <time>2022-06-05T19:06:16Z</time>
      </trkpt>
      <trkpt lat="47.07278" lon="6.03123">
        <ele>441</ele>
        <time>2022-06-05T19:06:20Z</time>
      </trkpt>
      <trkpt lat="47.07276" lon="6.03128">
        <ele>443</ele>
        <time>2022-06-05T19:06:23Z</time>
      </trkpt>
      <trkpt lat="47.07269" lon="6.03132">
        <ele>444</ele>
        <time>2022-06-05T19:06:29Z</time>
      </trkpt>
      <trkpt lat="47.07233" lon="6.0312">
        <ele>443</ele>
        <time>2022-06-05T19:06:59Z</time>
      </trkpt>
      <trkpt lat="47.07211" lon="6.03122">
        <ele>444</ele>
        <time>2022-06-05T19:07:16Z</time>
      </trkpt>
      <trkpt lat="47.07182" lon="6.03133">
        <ele>447</ele>
        <time>2022-06-05T19:07:40Z</time>
      </trkpt>
      <trkpt lat="47.07171" lon="6.03143">
        <ele>449</ele>
        <time>2022-06-05T19:07:51Z</time>
      </trkpt>
      <trkpt lat="47.07158" lon="6.03163">
        <ele>451</ele>
        <time>2022-06-05T19:08:06Z</time>
      </trkpt>
      <trkpt lat="47.07152" lon="6.03179">
        <ele>453</ele>
        <time>2022-06-05T19:08:16Z</time>
      </trkpt>
      <trkpt lat="47.07141" lon="6.03221">
        <ele>459</ele>
        <time>2022-06-05T19:08:40Z</time>
      </trkpt>
      <trkpt lat="47.07094" lon="6.03366">
        <ele>467</ele>
        <time>2022-06-05T19:10:08Z</time>
      </trkpt>
      <trkpt lat="47.07082" lon="6.03428">
        <ele>469</ele>
        <time>2022-06-05T19:10:43Z</time>
      </trkpt>
      <trkpt lat="47.0708" lon="6.03518">
        <ele>470</ele>
        <time>2022-06-05T19:11:32Z</time>
      </trkpt>
      <trkpt lat="47.07111" lon="6.03612">
        <ele>476</ele>
        <time>2022-06-05T19:12:29Z</time>
      </trkpt>
      <trkpt lat="47.07112" lon="6.0363">
        <ele>477</ele>
        <time>2022-06-05T19:12:39Z</time>
      </trkpt>
      <trkpt lat="47.07107" lon="6.03662">
        <ele>478</ele>
        <time>2022-06-05T19:12:57Z</time>
      </trkpt>
      <trkpt lat="47.07099" lon="6.03675">
        <ele>478</ele>
        <time>2022-06-05T19:13:07Z</time>
      </trkpt>
      <trkpt lat="47.07053" lon="6.03714">
        <ele>482</ele>
        <time>2022-06-05T19:13:49Z</time>
      </trkpt>
      <trkpt lat="47.07045" lon="6.03724">
        <ele>483</ele>
        <time>2022-06-05T19:13:58Z</time>
      </trkpt>
      <trkpt lat="47.07045" lon="6.03733">
        <ele>484</ele>
        <time>2022-06-05T19:14:03Z</time>
      </trkpt>
      <trkpt lat="47.07029" lon="6.03745">
        <ele>486</ele>
        <time>2022-06-05T19:14:17Z</time>
      </trkpt>
      <trkpt lat="47.06994" lon="6.03781">
        <ele>491</ele>
        <time>2022-06-05T19:14:51Z</time>
      </trkpt>
      <trkpt lat="47.06943" lon="6.03862">
        <ele>494</ele>
        <time>2022-06-05T19:15:51Z</time>
      </trkpt>
      <trkpt lat="47.06888" lon="6.03907">
        <ele>496</ele>
        <time>2022-06-05T19:16:42Z</time>
      </trkpt>
      <trkpt lat="47.06859" lon="6.03926">
        <ele>497</ele>
        <time>2022-06-05T19:17:07Z</time>
      </trkpt>
      <trkpt lat="47.06889" lon="6.04035">
        <ele>496</ele>
        <time>2022-06-05T19:18:12Z</time>
      </trkpt>
      <trkpt lat="47.06895" lon="6.04089">
        <ele>497</ele>
        <time>2022-06-05T19:18:41Z</time>
      </trkpt>
      <trkpt lat="47.06893" lon="6.04112">
        <ele>498</ele>
        <time>2022-06-05T19:18:54Z</time>
      </trkpt>
      <trkpt lat="47.06896" lon="6.0413">
        <ele>499</ele>
        <time>2022-06-05T19:19:04Z</time>
      </trkpt>
      <trkpt lat="47.06899" lon="6.04137">
        <ele>499</ele>
        <time>2022-06-05T19:19:09Z</time>
      </trkpt>
      <trkpt lat="47.06914" lon="6.04145">
        <ele>500</ele>
        <time>2022-06-05T19:19:22Z</time>
      </trkpt>
      <trkpt lat="47.06991" lon="6.04159">
        <ele>499</ele>
        <time>2022-06-05T19:20:24Z</time>
      </trkpt>
      <trkpt lat="47.07043" lon="6.0418">
        <ele>497</ele>
        <time>2022-06-05T19:21:07Z</time>
      </trkpt>
      <trkpt lat="47.07182" lon="6.04269">
        <ele>489</ele>
        <time>2022-06-05T19:23:08Z</time>
      </trkpt>
      <trkpt lat="47.07198" lon="6.04291">
        <ele>488</ele>
        <time>2022-06-05T19:23:26Z</time>
      </trkpt>
      <trkpt lat="47.0723" lon="6.0431">
        <ele>485</ele>
        <time>2022-06-05T19:23:54Z</time>
      </trkpt>
      <trkpt lat="47.07244" lon="6.04327">
        <ele>484</ele>
        <time>2022-06-05T19:24:08Z</time>
      </trkpt>
      <trkpt lat="47.07261" lon="6.04375">
        <ele>481</ele>
        <time>2022-06-05T19:24:38Z</time>
      </trkpt>
      <trkpt lat="47.07269" lon="6.04406">
        <ele>479</ele>
        <time>2022-06-05T19:24:56Z</time>
      </trkpt>
      <trkpt lat="47.07277" lon="6.04411">
        <ele>476</ele>
        <time>2022-06-05T19:25:03Z</time>
      </trkpt>
      <trkpt lat="47.073" lon="6.04395">
        <ele>468</ele>
        <time>2022-06-05T19:25:23Z</time>
      </trkpt>
      <trkpt lat="47.07311" lon="6.04374">
        <ele>466</ele>
        <time>2022-06-05T19:25:38Z</time>
      </trkpt>
      <trkpt lat="47.07322" lon="6.04339">
        <ele>465</ele>
        <time>2022-06-05T19:25:59Z</time>
      </trkpt>
      <trkpt lat="47.07334" lon="6.04314">
        <ele>467</ele>
        <time>2022-06-05T19:26:15Z</time>
      </trkpt>
      <trkpt lat="47.07344" lon="6.04312">
        <ele>466</ele>
        <time>2022-06-05T19:26:24Z</time>
      </trkpt>
      <trkpt lat="47.07367" lon="6.04317">
        <ele>461</ele>
        <time>2022-06-05T19:26:42Z</time>
      </trkpt>
      <trkpt lat="47.07414" lon="6.04319">
        <ele>453</ele>
        <time>2022-06-05T19:27:20Z</time>
      </trkpt>
      <trkpt lat="47.07446" lon="6.04317">
        <ele>449</ele>
        <time>2022-06-05T19:27:46Z</time>
      </trkpt>
      <trkpt lat="47.07475" lon="6.04343">
        <ele>437</ele>
        <time>2022-06-05T19:28:13Z</time>
      </trkpt>
      <trkpt lat="47.07515" lon="6.04367">
        <ele>427</ele>
        <time>2022-06-05T19:28:47Z</time>
      </trkpt>
      <trkpt lat="47.07524" lon="6.04382">
        <ele>424</ele>
        <time>2022-06-05T19:28:58Z</time>
      </trkpt>
      <trkpt lat="47.07539" lon="6.04386">
        <ele>421</ele>
        <time>2022-06-05T19:29:11Z</time>
      </trkpt>
      <trkpt lat="47.07553" lon="6.04382">
        <ele>421</ele>
        <time>2022-06-05T19:29:22Z</time>
      </trkpt>
      <trkpt lat="47.07612" lon="6.04349">
        <ele>425</ele>
        <time>2022-06-05T19:30:13Z</time>
      </trkpt>
      <trkpt lat="47.0764" lon="6.04358">
        <ele>425</ele>
        <time>2022-06-05T19:30:36Z</time>
      </trkpt>
      <trkpt lat="47.07661" lon="6.04376">
        <ele>423</ele>
        <time>2022-06-05T19:30:55Z</time>
      </trkpt>
      <trkpt lat="47.07676" lon="6.04437">
        <ele>414</ele>
        <time>2022-06-05T19:31:30Z</time>
      </trkpt>
      <trkpt lat="47.07695" lon="6.04497">
        <ele>406</ele>
        <time>2022-06-05T19:32:07Z</time>
      </trkpt>
      <trkpt lat="47.07707" lon="6.04524">
        <ele>404</ele>
        <time>2022-06-05T19:32:24Z</time>
      </trkpt>
      <trkpt lat="47.07728" lon="6.04544">
        <ele>403</ele>
        <time>2022-06-05T19:32:44Z</time>
      </trkpt>
      <trkpt lat="47.07794" lon="6.04597">
        <ele>399</ele>
        <time>2022-06-05T19:33:44Z</time>
      </trkpt>
      <trkpt lat="47.07897" lon="6.04702">
        <ele>392</ele>
        <time>2022-06-05T19:35:25Z</time>
      </trkpt>
      <trkpt lat="47.07953" lon="6.04782">
        <ele>386</ele>
        <time>2022-06-05T19:36:28Z</time>
      </trkpt>
      <trkpt lat="47.07987" lon="6.04816">
        <ele>384</ele>
        <time>2022-06-05T19:37:01Z</time>
      </trkpt>
      <trkpt lat="47.08021" lon="6.04846">
        <ele>381</ele>
        <time>2022-06-05T19:37:32Z</time>
      </trkpt>
      <trkpt lat="47.08123" lon="6.0492">
        <ele>374</ele>
        <time>2022-06-05T19:39:04Z</time>
      </trkpt>
      <trkpt lat="47.08164" lon="6.04962">
        <ele>371</ele>
        <time>2022-06-05T19:39:44Z</time>
      </trkpt>
      <trkpt lat="47.08223" lon="6.05042">
        <ele>364</ele>
        <time>2022-06-05T19:40:48Z</time>
      </trkpt>
      <trkpt lat="47.0835" lon="6.05232">
        <ele>353</ele>
        <time>2022-06-05T19:43:13Z</time>
      </trkpt>
      <trkpt lat="47.08368" lon="6.05264">
        <ele>351</ele>
        <time>2022-06-05T19:43:36Z</time>
      </trkpt>
      <trkpt lat="47.08429" lon="6.05356">
        <ele>346</ele>
        <time>2022-06-05T19:44:46Z</time>
      </trkpt>
      <trkpt lat="47.0851" lon="6.05456">
        <ele>338</ele>
        <time>2022-06-05T19:46:11Z</time>
      </trkpt>
      <trkpt lat="47.08604" lon="6.05555">
        <ele>330</ele>
        <time>2022-06-05T19:47:44Z</time>
      </trkpt>
      <trkpt lat="47.08629" lon="6.05569">
        <ele>328</ele>
        <time>2022-06-05T19:48:05Z</time>
      </trkpt>
      <trkpt lat="47.08634" lon="6.0557">
        <ele>328</ele>
        <time>2022-06-05T19:48:09Z</time>
      </trkpt>
      <trkpt lat="47.08641" lon="6.05567">
        <ele>328</ele>
        <time>2022-06-05T19:48:15Z</time>
      </trkpt>
      <trkpt lat="47.08679" lon="6.0557">
        <ele>325</ele>
        <time>2022-06-05T19:48:45Z</time>
      </trkpt>
      <trkpt lat="47.08713" lon="6.05574">
        <ele>320</ele>
        <time>2022-06-05T19:49:13Z</time>
      </trkpt>
      <trkpt lat="47.0872" lon="6.05579">
        <ele>318</ele>
        <time>2022-06-05T19:49:19Z</time>
      </trkpt>
      <trkpt lat="47.08727" lon="6.05591">
        <ele>316</ele>
        <time>2022-06-05T19:49:28Z</time>
      </trkpt>
      <trkpt lat="47.08717" lon="6.05636">
        <ele>315</ele>
        <time>2022-06-05T19:49:53Z</time>
      </trkpt>
      <trkpt lat="47.08718" lon="6.05655">
        <ele>315</ele>
        <time>2022-06-05T19:50:04Z</time>
      </trkpt>
      <trkpt lat="47.08714" lon="6.05681">
        <ele>315</ele>
        <time>2022-06-05T19:50:18Z</time>
      </trkpt>
      <trkpt lat="47.08714" lon="6.05712">
        <ele>316</ele>
        <time>2022-06-05T19:50:35Z</time>
      </trkpt>
      <trkpt lat="47.08723" lon="6.05771">
        <ele>318</ele>
        <time>2022-06-05T19:51:08Z</time>
      </trkpt>
      <trkpt lat="47.08727" lon="6.05913">
        <ele>320</ele>
        <time>2022-06-05T19:52:26Z</time>
      </trkpt>
      <trkpt lat="47.08764" lon="6.06034">
        <ele>321</ele>
        <time>2022-06-05T19:53:38Z</time>
      </trkpt>
      <trkpt lat="47.08813" lon="6.06144">
        <ele>320</ele>
        <time>2022-06-05T19:54:50Z</time>
      </trkpt>
      <trkpt lat="47.08825" lon="6.06195">
        <ele>319</ele>
        <time>2022-06-05T19:55:19Z</time>
      </trkpt>
      <trkpt lat="47.08817" lon="6.06272">
        <ele>318</ele>
        <time>2022-06-05T19:56:02Z</time>
      </trkpt>
      <trkpt lat="47.08803" lon="6.06316">
        <ele>318</ele>
        <time>2022-06-05T19:56:28Z</time>
      </trkpt>
      <trkpt lat="47.08798" lon="6.06363">
        <ele>319</ele>
        <time>2022-06-05T19:56:54Z</time>
      </trkpt>
      <trkpt lat="47.08814" lon="6.06716">
        <ele>326</ele>
        <time>2022-06-05T20:00:07Z</time>
      </trkpt>
      <trkpt lat="47.08823" lon="6.06786">
        <ele>330</ele>
        <time>2022-06-05T20:00:46Z</time>
      </trkpt>
      <trkpt lat="47.08833" lon="6.06834">
        <ele>335</ele>
        <time>2022-06-05T20:01:14Z</time>
      </trkpt>
      <trkpt lat="47.08846" lon="6.06876">
        <ele>338</ele>
        <time>2022-06-05T20:01:39Z</time>
      </trkpt>
      <trkpt lat="47.0889" lon="6.06954">
        <ele>335</ele>
        <time>2022-06-05T20:02:34Z</time>
      </trkpt>
      <trkpt lat="47.0892" lon="6.06989">
        <ele>332</ele>
        <time>2022-06-05T20:03:05Z</time>
      </trkpt>
      <trkpt lat="47.08948" lon="6.07002">
        <ele>329</ele>
        <time>2022-06-05T20:03:28Z</time>
      </trkpt>
      <trkpt lat="47.08975" lon="6.07003">
        <ele>325</ele>
        <time>2022-06-05T20:03:50Z</time>
      </trkpt>
      <trkpt lat="47.09033" lon="6.06969">
        <ele>317</ele>
        <time>2022-06-05T20:04:40Z</time>
      </trkpt>
      <trkpt lat="47.09132" lon="6.06901">
        <ele>316</ele>
        <time>2022-06-05T20:06:08Z</time>
      </trkpt>
      <trkpt lat="47.09149" lon="6.06906">
        <ele>315</ele>
        <time>2022-06-05T20:06:22Z</time>
      </trkpt>
      <trkpt lat="47.09243" lon="6.07041">
        <ele>319</ele>
        <time>2022-06-05T20:08:07Z</time>
      </trkpt>
      <trkpt lat="47.09252" lon="6.07061">
        <ele>320</ele>
        <time>2022-06-05T20:08:20Z</time>
      </trkpt>
      <trkpt lat="47.09261" lon="6.07106">
        <ele>322</ele>
        <time>2022-06-05T20:08:46Z</time>
      </trkpt>
      <trkpt lat="47.09255" lon="6.07139">
        <ele>324</ele>
        <time>2022-06-05T20:09:04Z</time>
      </trkpt>
      <trkpt lat="47.09219" lon="6.07231">
        <ele>330</ele>
        <time>2022-06-05T20:10:02Z</time>
      </trkpt>
      <trkpt lat="47.09206" lon="6.07323">
        <ele>334</ele>
        <time>2022-06-05T20:10:53Z</time>
      </trkpt>
      <trkpt lat="47.09206" lon="6.07369">
        <ele>335</ele>
        <time>2022-06-05T20:11:19Z</time>
      </trkpt>
      <trkpt lat="47.09226" lon="6.07493">
        <ele>342</ele>
        <time>2022-06-05T20:12:28Z</time>
      </trkpt>
      <trkpt lat="47.09226" lon="6.07532">
        <ele>343</ele>
        <time>2022-06-05T20:12:49Z</time>
      </trkpt>
      <trkpt lat="47.09231" lon="6.0755">
        <ele>344</ele>
        <time>2022-06-05T20:13:00Z</time>
      </trkpt>
      <trkpt lat="47.09238" lon="6.07553">
        <ele>345</ele>
        <time>2022-06-05T20:13:06Z</time>
      </trkpt>
      <trkpt lat="47.09246" lon="6.07547">
        <ele>346</ele>
        <time>2022-06-05T20:13:13Z</time>
      </trkpt>
      <trkpt lat="47.09252" lon="6.07537">
        <ele>347</ele>
        <time>2022-06-05T20:13:20Z</time>
      </trkpt>
      <trkpt lat="47.09268" lon="6.0749">
        <ele>348</ele>
        <time>2022-06-05T20:13:49Z</time>
      </trkpt>
      <trkpt lat="47.09303" lon="6.07426">
        <ele>350</ele>
        <time>2022-06-05T20:14:34Z</time>
      </trkpt>
      <trkpt lat="47.09313" lon="6.07413">
        <ele>350</ele>
        <time>2022-06-05T20:14:44Z</time>
      </trkpt>
      <trkpt lat="47.09325" lon="6.07412">
        <ele>351</ele>
        <time>2022-06-05T20:14:54Z</time>
      </trkpt>
      <trkpt lat="47.09331" lon="6.07419">
        <ele>352</ele>
        <time>2022-06-05T20:15:00Z</time>
      </trkpt>
      <trkpt lat="47.09334" lon="6.07429">
        <ele>353</ele>
        <time>2022-06-05T20:15:06Z</time>
      </trkpt>
      <trkpt lat="47.09337" lon="6.07485">
        <ele>357</ele>
        <time>2022-06-05T20:15:37Z</time>
      </trkpt>
      <trkpt lat="47.09347" lon="6.07502">
        <ele>358</ele>
        <time>2022-06-05T20:15:49Z</time>
      </trkpt>
      <trkpt lat="47.09539" lon="6.07768">
        <ele>372</ele>
        <time>2022-06-05T20:19:21Z</time>
      </trkpt>
      <trkpt lat="47.09555" lon="6.078">
        <ele>374</ele>
        <time>2022-06-05T20:19:42Z</time>
      </trkpt>
      <trkpt lat="47.09581" lon="6.07864">
        <ele>381</ele>
        <time>2022-06-05T20:20:23Z</time>
      </trkpt>
      <trkpt lat="47.09665" lon="6.07922">
        <ele>382</ele>
        <time>2022-06-05T20:21:37Z</time>
      </trkpt>
      <trkpt lat="47.09657" lon="6.07962">
        <ele>389</ele>
        <time>2022-06-05T20:22:00Z</time>
      </trkpt>
      <trkpt lat="47.09667" lon="6.08022">
        <ele>397</ele>
        <time>2022-06-05T20:22:34Z</time>
      </trkpt>
      <trkpt lat="47.09666" lon="6.08099">
        <ele>410</ele>
        <time>2022-06-05T20:23:16Z</time>
      </trkpt>
      <trkpt lat="47.09662" lon="6.08124">
        <ele>416</ele>
        <time>2022-06-05T20:23:30Z</time>
      </trkpt>
      <trkpt lat="47.09644" lon="6.08165">
        <ele>429</ele>
        <time>2022-06-05T20:23:57Z</time>
      </trkpt>
      <trkpt lat="47.09624" lon="6.08166">
        <ele>435</ele>
        <time>2022-06-05T20:24:13Z</time>
      </trkpt>
      <trkpt lat="47.09602" lon="6.08158">
        <ele>440</ele>
        <time>2022-06-05T20:24:31Z</time>
      </trkpt>
      <trkpt lat="47.09573" lon="6.08126">
        <ele>437</ele>
        <time>2022-06-05T20:25:00Z</time>
      </trkpt>
      <trkpt lat="47.09556" lon="6.08102">
        <ele>430</ele>
        <time>2022-06-05T20:25:19Z</time>
      </trkpt>
      <trkpt lat="47.09551" lon="6.081">
        <ele>429</ele>
        <time>2022-06-05T20:25:23Z</time>
      </trkpt>
      <trkpt lat="47.09545" lon="6.08103">
        <ele>429</ele>
        <time>2022-06-05T20:25:28Z</time>
      </trkpt>
      <trkpt lat="47.0954" lon="6.08112">
        <ele>431</ele>
        <time>2022-06-05T20:25:34Z</time>
      </trkpt>
      <trkpt lat="47.09545" lon="6.08133">
        <ele>436</ele>
        <time>2022-06-05T20:25:46Z</time>
      </trkpt>
      <trkpt lat="47.09561" lon="6.08154">
        <ele>443</ele>
        <time>2022-06-05T20:26:04Z</time>
      </trkpt>
      <trkpt lat="47.09569" lon="6.08188">
        <ele>450</ele>
        <time>2022-06-05T20:26:23Z</time>
      </trkpt>
      <trkpt lat="47.09576" lon="6.08199">
        <ele>453</ele>
        <time>2022-06-05T20:26:31Z</time>
      </trkpt>
      <trkpt lat="47.09578" lon="6.0821">
        <ele>455</ele>
        <time>2022-06-05T20:26:38Z</time>
      </trkpt>
      <trkpt lat="47.09573" lon="6.0824">
        <ele>460</ele>
        <time>2022-06-05T20:26:54Z</time>
      </trkpt>
      <trkpt lat="47.09575" lon="6.08254">
        <ele>462</ele>
        <time>2022-06-05T20:27:02Z</time>
      </trkpt>
      <trkpt lat="47.09571" lon="6.08285">
        <ele>466</ele>
        <time>2022-06-05T20:27:20Z</time>
      </trkpt>
      <trkpt lat="47.0956" lon="6.08269">
        <ele>462</ele>
        <time>2022-06-05T20:27:32Z</time>
      </trkpt>
      <trkpt lat="47.09558" lon="6.08261">
        <ele>461</ele>
        <time>2022-06-05T20:27:37Z</time>
      </trkpt>
      <trkpt lat="47.09553" lon="6.08272">
        <ele>461</ele>
        <time>2022-06-05T20:27:44Z</time>
      </trkpt>
      <trkpt lat="47.09563" lon="6.08431">
        <ele>482</ele>
        <time>2022-06-05T20:29:11Z</time>
      </trkpt>
      <trkpt lat="47.0956" lon="6.08476">
        <ele>483</ele>
        <time>2022-06-05T20:29:36Z</time>
      </trkpt>
      <trkpt lat="47.09571" lon="6.0858">
        <ele>497</ele>
        <time>2022-06-05T20:30:33Z</time>
      </trkpt>
      <trkpt lat="47.09577" lon="6.08866">
        <ele>499</ele>
        <time>2022-06-05T20:33:09Z</time>
      </trkpt>
      <trkpt lat="47.09573" lon="6.08909">
        <ele>498</ele>
        <time>2022-06-05T20:33:33Z</time>
      </trkpt>
      <trkpt lat="47.0953" lon="6.09161">
        <ele>500</ele>
        <time>2022-06-05T20:35:55Z</time>
      </trkpt>
      <trkpt lat="47.09449" lon="6.09265">
        <ele>495</ele>
        <time>2022-06-05T20:37:21Z</time>
      </trkpt>
      <trkpt lat="47.09409" lon="6.09333">
        <ele>498</ele>
        <time>2022-06-05T20:38:10Z</time>
      </trkpt>
      <trkpt lat="47.094" lon="6.09344">
        <ele>497</ele>
        <time>2022-06-05T20:38:19Z</time>
      </trkpt>
      <trkpt lat="47.09388" lon="6.09375">
        <ele>499</ele>
        <time>2022-06-05T20:38:39Z</time>
      </trkpt>
      <trkpt lat="47.09374" lon="6.09389">
        <ele>500</ele>
        <time>2022-06-05T20:38:52Z</time>
      </trkpt>
      <trkpt lat="47.09369" lon="6.09414">
        <ele>504</ele>
        <time>2022-06-05T20:39:06Z</time>
      </trkpt>
      <trkpt lat="47.09371" lon="6.09457">
        <ele>507</ele>
        <time>2022-06-05T20:39:30Z</time>
      </trkpt>
      <trkpt lat="47.09376" lon="6.0948">
        <ele>508</ele>
        <time>2022-06-05T20:39:43Z</time>
      </trkpt>
      <trkpt lat="47.0939" lon="6.09498">
        <ele>509</ele>
        <time>2022-06-05T20:39:58Z</time>
      </trkpt>
      <trkpt lat="47.09418" lon="6.09516">
        <ele>510</ele>
        <time>2022-06-05T20:40:23Z</time>
      </trkpt>
      <trkpt lat="47.09465" lon="6.09565">
        <ele>512</ele>
        <time>2022-06-05T20:41:09Z</time>
      </trkpt>
      <trkpt lat="47.09526" lon="6.09618">
        <ele>512</ele>
        <time>2022-06-05T20:42:06Z</time>
      </trkpt>
      <trkpt lat="47.09587" lon="6.09661">
        <ele>510</ele>
        <time>2022-06-05T20:43:00Z</time>
      </trkpt>
      <trkpt lat="47.09618" lon="6.09693">
        <ele>510</ele>
        <time>2022-06-05T20:43:30Z</time>
      </trkpt>
      <trkpt lat="47.0964" lon="6.09736">
        <ele>511</ele>
        <time>2022-06-05T20:44:00Z</time>
      </trkpt>
      <trkpt lat="47.09647" lon="6.09762">
        <ele>511</ele>
        <time>2022-06-05T20:44:15Z</time>
      </trkpt>
      <trkpt lat="47.09648" lon="6.09823">
        <ele>514</ele>
        <time>2022-06-05T20:44:48Z</time>
      </trkpt>
      <trkpt lat="47.09638" lon="6.09874">
        <ele>515</ele>
        <time>2022-06-05T20:45:17Z</time>
      </trkpt>
      <trkpt lat="47.09591" lon="6.0998">
        <ele>517</ele>
        <time>2022-06-05T20:46:26Z</time>
      </trkpt>
      <trkpt lat="47.0961" lon="6.1002">
        <ele>518</ele>
        <time>2022-06-05T20:46:53Z</time>
      </trkpt>
      <trkpt lat="47.09625" lon="6.10082">
        <ele>520</ele>
        <time>2022-06-05T20:47:29Z</time>
      </trkpt>
      <trkpt lat="47.09676" lon="6.10156">
        <ele>520</ele>
        <time>2022-06-05T20:48:26Z</time>
      </trkpt>
      <trkpt lat="47.09686" lon="6.10208">
        <ele>521</ele>
        <time>2022-06-05T20:48:56Z</time>
      </trkpt>
      <trkpt lat="47.09665" lon="6.10251">
        <ele>522</ele>
        <time>2022-06-05T20:49:24Z</time>
      </trkpt>
      <trkpt lat="47.09606" lon="6.10344">
        <ele>525</ele>
        <time>2022-06-05T20:50:34Z</time>
      </trkpt>
      <trkpt lat="47.09576" lon="6.10443">
        <ele>525</ele>
        <time>2022-06-05T20:51:33Z</time>
      </trkpt>
      <trkpt lat="47.09567" lon="6.10487">
        <ele>526</ele>
        <time>2022-06-05T20:51:58Z</time>
      </trkpt>
      <trkpt lat="47.09571" lon="6.10512">
        <ele>525</ele>
        <time>2022-06-05T20:52:12Z</time>
      </trkpt>
      <trkpt lat="47.09577" lon="6.10515">
        <ele>524</ele>
        <time>2022-06-05T20:52:17Z</time>
      </trkpt>
      <trkpt lat="47.0968" lon="6.10484">
        <ele>525</ele>
        <time>2022-06-05T20:53:41Z</time>
      </trkpt>
      <trkpt lat="47.09866" lon="6.10382">
        <ele>524</ele>
        <time>2022-06-05T20:56:20Z</time>
      </trkpt>
      <trkpt lat="47.10013" lon="6.10425">
        <ele>521</ele>
        <time>2022-06-05T20:58:21Z</time>
      </trkpt>
      <trkpt lat="47.10175" lon="6.10487">
        <ele>501</ele>
        <time>2022-06-05T21:00:35Z</time>
      </trkpt>
      <trkpt lat="47.10192" lon="6.10558">
        <ele>492</ele>
        <time>2022-06-05T21:01:16Z</time>
      </trkpt>
      <trkpt lat="47.10229" lon="6.10645">
        <ele>489</ele>
        <time>2022-06-05T21:02:12Z</time>
      </trkpt>
      <trkpt lat="47.10273" lon="6.10692">
        <ele>493</ele>
        <time>2022-06-05T21:02:55Z</time>
      </trkpt>
      <trkpt lat="47.10318" lon="6.1072">
        <ele>496</ele>
        <time>2022-06-05T21:03:35Z</time>
      </trkpt>
      <trkpt lat="47.10432" lon="6.10717">
        <ele>494</ele>
        <time>2022-06-05T21:05:06Z</time>
      </trkpt>
      <trkpt lat="47.10461" lon="6.10753">
        <ele>503</ele>
        <time>2022-06-05T21:05:36Z</time>
      </trkpt>
      <trkpt lat="47.10535" lon="6.1072">
        <ele>484</ele>
        <time>2022-06-05T21:06:38Z</time>
      </trkpt>
      <trkpt lat="47.10558" lon="6.10752">
        <ele>490</ele>
        <time>2022-06-05T21:07:04Z</time>
      </trkpt>
      <trkpt lat="47.10598" lon="6.1086">
        <ele>497</ele>
        <time>2022-06-05T21:08:11Z</time>
      </trkpt>
      <trkpt lat="47.10585" lon="6.10937">
        <ele>509</ele>
        <time>2022-06-05T21:08:54Z</time>
      </trkpt>
      <trkpt lat="47.10507" lon="6.10967">
        <ele>507</ele>
        <time>2022-06-05T21:09:59Z</time>
      </trkpt>
      <trkpt lat="47.10497" lon="6.10986">
        <ele>505</ele>
        <time>2022-06-05T21:10:12Z</time>
      </trkpt>
      <trkpt lat="47.10511" lon="6.10998">
        <ele>505</ele>
        <time>2022-06-05T21:10:25Z</time>
      </trkpt>
      <trkpt lat="47.10521" lon="6.11026">
        <ele>503</ele>
        <time>2022-06-05T21:10:42Z</time>
      </trkpt>
      <trkpt lat="47.10519" lon="6.11063">
        <ele>499</ele>
        <time>2022-06-05T21:11:02Z</time>
      </trkpt>
      <trkpt lat="47.10451" lon="6.11279">
        <ele>486</ele>
        <time>2022-06-05T21:13:12Z</time>
      </trkpt>
      <trkpt lat="47.10445" lon="6.11292">
        <ele>485</ele>
        <time>2022-06-05T21:13:21Z</time>
      </trkpt>
      <trkpt lat="47.10434" lon="6.11302">
        <ele>485</ele>
        <time>2022-06-05T21:13:31Z</time>
      </trkpt>
      <trkpt lat="47.10408" lon="6.1131">
        <ele>486</ele>
        <time>2022-06-05T21:13:52Z</time>
      </trkpt>
      <trkpt lat="47.10281" lon="6.11372">
        <ele>483</ele>
        <time>2022-06-05T21:15:40Z</time>
      </trkpt>
      <trkpt lat="47.10255" lon="6.11395">
        <ele>484</ele>
        <time>2022-06-05T21:16:04Z</time>
      </trkpt>
      <trkpt lat="47.10267" lon="6.11416">
        <ele>482</ele>
        <time>2022-06-05T21:16:19Z</time>
      </trkpt>
      <trkpt lat="47.10346" lon="6.11641">
        <ele>491</ele>
        <time>2022-06-05T21:18:37Z</time>
      </trkpt>
      <trkpt lat="47.10361" lon="6.11711">
        <ele>490</ele>
        <time>2022-06-05T21:19:17Z</time>
      </trkpt>
      <trkpt lat="47.10363" lon="6.11874">
        <ele>478</ele>
        <time>2022-06-05T21:20:46Z</time>
      </trkpt>
      <trkpt lat="47.10362" lon="6.11857">
        <ele>483</ele>
        <time>2022-06-05T21:20:55Z</time>
      </trkpt>
      <trkpt lat="47.10349" lon="6.11856">
        <ele>491</ele>
        <time>2022-06-05T21:21:06Z</time>
      </trkpt>
      <trkpt lat="47.10328" lon="6.11845">
        <ele>503</ele>
        <time>2022-06-05T21:21:24Z</time>
      </trkpt>
      <trkpt lat="47.10291" lon="6.11793">
        <ele>509</ele>
        <time>2022-06-05T21:22:05Z</time>
      </trkpt>
      <trkpt lat="47.10275" lon="6.11762">
        <ele>510</ele>
        <time>2022-06-05T21:22:26Z</time>
      </trkpt>
      <trkpt lat="47.10238" lon="6.11793">
        <ele>512</ele>
        <time>2022-06-05T21:23:00Z</time>
      </trkpt>
      <trkpt lat="47.10187" lon="6.11809">
        <ele>512</ele>
        <time>2022-06-05T21:23:42Z</time>
      </trkpt>
      <trkpt lat="47.10114" lon="6.11837">
        <ele>513</ele>
        <time>2022-06-05T21:24:42Z</time>
      </trkpt>
      <trkpt lat="47.10089" lon="6.11842">
        <ele>513</ele>
        <time>2022-06-05T21:25:03Z</time>
      </trkpt>
      <trkpt lat="47.10067" lon="6.11839">
        <ele>512</ele>
        <time>2022-06-05T21:25:20Z</time>
      </trkpt>
      <trkpt lat="47.10047" lon="6.1185">
        <ele>512</ele>
        <time>2022-06-05T21:25:37Z</time>
      </trkpt>
      <trkpt lat="47.10029" lon="6.11851">
        <ele>511</ele>
        <time>2022-06-05T21:25:52Z</time>
      </trkpt>
      <trkpt lat="47.09996" lon="6.11875">
        <ele>511</ele>
        <time>2022-06-05T21:26:21Z</time>
      </trkpt>
      <trkpt lat="47.09979" lon="6.11896">
        <ele>511</ele>
        <time>2022-06-05T21:26:39Z</time>
      </trkpt>
      <trkpt lat="47.09968" lon="6.11905">
        <ele>512</ele>
        <time>2022-06-05T21:26:49Z</time>
      </trkpt>
      <trkpt lat="47.09951" lon="6.11914">
        <ele>513</ele>
        <time>2022-06-05T21:27:04Z</time>
      </trkpt>
      <trkpt lat="47.09899" lon="6.1195">
        <ele>513</ele>
        <time>2022-06-05T21:27:50Z</time>
      </trkpt>
      <trkpt lat="47.0988" lon="6.11952">
        <ele>513</ele>
        <time>2022-06-05T21:28:05Z</time>
      </trkpt>
      <trkpt lat="47.09874" lon="6.11955">
        <ele>513</ele>
        <time>2022-06-05T21:28:10Z</time>
      </trkpt>
      <trkpt lat="47.09847" lon="6.11983">
        <ele>513</ele>
        <time>2022-06-05T21:28:37Z</time>
      </trkpt>
      <trkpt lat="47.09807" lon="6.12007">
        <ele>512</ele>
        <time>2022-06-05T21:29:11Z</time>
      </trkpt>
      <trkpt lat="47.09796" lon="6.12018">
        <ele>512</ele>
        <time>2022-06-05T21:29:22Z</time>
      </trkpt>
      <trkpt lat="47.09746" lon="6.12087">
        <ele>512</ele>
        <time>2022-06-05T21:30:17Z</time>
      </trkpt>
      <trkpt lat="47.09731" lon="6.12099">
        <ele>512</ele>
        <time>2022-06-05T21:30:31Z</time>
      </trkpt>
      <trkpt lat="47.0969" lon="6.12122">
        <ele>513</ele>
        <time>2022-06-05T21:31:06Z</time>
      </trkpt>
      <trkpt lat="47.09667" lon="6.1213">
        <ele>513</ele>
        <time>2022-06-05T21:31:25Z</time>
      </trkpt>
      <trkpt lat="47.09619" lon="6.12136">
        <ele>515</ele>
        <time>2022-06-05T21:32:03Z</time>
      </trkpt>
      <trkpt lat="47.09585" lon="6.12145">
        <ele>516</ele>
        <time>2022-06-05T21:32:31Z</time>
      </trkpt>
      <trkpt lat="47.09555" lon="6.12146">
        <ele>517</ele>
        <time>2022-06-05T21:32:55Z</time>
      </trkpt>
      <trkpt lat="47.09548" lon="6.12149">
        <ele>517</ele>
        <time>2022-06-05T21:33:01Z</time>
      </trkpt>
      <trkpt lat="47.09534" lon="6.12168">
        <ele>517</ele>
        <time>2022-06-05T21:33:16Z</time>
      </trkpt>
      <trkpt lat="47.09513" lon="6.12185">
        <ele>516</ele>
        <time>2022-06-05T21:33:35Z</time>
      </trkpt>
      <trkpt lat="47.09507" lon="6.12193">
        <ele>516</ele>
        <time>2022-06-05T21:33:42Z</time>
      </trkpt>
      <trkpt lat="47.09477" lon="6.12259">
        <ele>517</ele>
        <time>2022-06-05T21:34:25Z</time>
      </trkpt>
      <trkpt lat="47.09475" lon="6.12273">
        <ele>515</ele>
        <time>2022-06-05T21:34:33Z</time>
      </trkpt>
      <trkpt lat="47.09485" lon="6.12308">
        <ele>510</ele>
        <time>2022-06-05T21:34:54Z</time>
      </trkpt>
      <trkpt lat="47.09484" lon="6.12399">
        <ele>497</ele>
        <time>2022-06-05T21:35:43Z</time>
      </trkpt>
      <trkpt lat="47.09477" lon="6.12432">
        <ele>494</ele>
        <time>2022-06-05T21:36:02Z</time>
      </trkpt>
      <trkpt lat="47.09453" lon="6.12482">
        <ele>494</ele>
        <time>2022-06-05T21:36:36Z</time>
      </trkpt>
      <trkpt lat="47.09452" lon="6.12502">
        <ele>492</ele>
        <time>2022-06-05T21:36:47Z</time>
      </trkpt>
      <trkpt lat="47.09467" lon="6.12543">
        <ele>489</ele>
        <time>2022-06-05T21:37:12Z</time>
      </trkpt>
      <trkpt lat="47.09556" lon="6.12736">
        <ele>469</ele>
        <time>2022-06-05T21:39:19Z</time>
      </trkpt>
      <trkpt lat="47.09645" lon="6.12983">
        <ele>447</ele>
        <time>2022-06-05T21:41:52Z</time>
      </trkpt>
      <trkpt lat="47.09649" lon="6.1301">
        <ele>445</ele>
        <time>2022-06-05T21:42:07Z</time>
      </trkpt>
      <trkpt lat="47.09648" lon="6.13057">
        <ele>443</ele>
        <time>2022-06-05T21:42:32Z</time>
      </trkpt>
      <trkpt lat="47.09651" lon="6.13072">
        <ele>440</ele>
        <time>2022-06-05T21:42:41Z</time>
      </trkpt>
      <trkpt lat="47.09659" lon="6.13075">
        <ele>434</ele>
        <time>2022-06-05T21:42:47Z</time>
      </trkpt>
      <trkpt lat="47.09666" lon="6.13063">
        <ele>431</ele>
        <time>2022-06-05T21:42:56Z</time>
      </trkpt>
      <trkpt lat="47.09669" lon="6.13043">
        <ele>431</ele>
        <time>2022-06-05T21:43:07Z</time>
      </trkpt>
      <trkpt lat="47.09673" lon="6.12959">
        <ele>431</ele>
        <time>2022-06-05T21:43:53Z</time>
      </trkpt>
      <trkpt lat="47.09666" lon="6.12874">
        <ele>429</ele>
        <time>2022-06-05T21:44:40Z</time>
      </trkpt>
      <trkpt lat="47.09665" lon="6.12806">
        <ele>423</ele>
        <time>2022-06-05T21:45:17Z</time>
      </trkpt>
      <trkpt lat="47.09667" lon="6.12792">
        <ele>420</ele>
        <time>2022-06-05T21:45:25Z</time>
      </trkpt>
      <trkpt lat="47.09672" lon="6.12791">
        <ele>418</ele>
        <time>2022-06-05T21:45:29Z</time>
      </trkpt>
      <trkpt lat="47.0968" lon="6.12801">
        <ele>416</ele>
        <time>2022-06-05T21:45:37Z</time>
      </trkpt>
      <trkpt lat="47.09717" lon="6.12897">
        <ele>410</ele>
        <time>2022-06-05T21:46:38Z</time>
      </trkpt>
      <trkpt lat="47.09751" lon="6.13024">
        <ele>396</ele>
        <time>2022-06-05T21:47:52Z</time>
      </trkpt>
      <trkpt lat="47.0976" lon="6.13162">
        <ele>388</ele>
        <time>2022-06-05T21:49:08Z</time>
      </trkpt>
      <trkpt lat="47.09765" lon="6.13168">
        <ele>387</ele>
        <time>2022-06-05T21:49:13Z</time>
      </trkpt>
      <trkpt lat="47.09773" lon="6.13168">
        <ele>384</ele>
        <time>2022-06-05T21:49:19Z</time>
      </trkpt>
      <trkpt lat="47.09784" lon="6.13153">
        <ele>382</ele>
        <time>2022-06-05T21:49:31Z</time>
      </trkpt>
      <trkpt lat="47.09795" lon="6.13132">
        <ele>379</ele>
        <time>2022-06-05T21:49:46Z</time>
      </trkpt>
      <trkpt lat="47.09814" lon="6.13077">
        <ele>375</ele>
        <time>2022-06-05T21:50:19Z</time>
      </trkpt>
      <trkpt lat="47.09826" lon="6.13061">
        <ele>371</ele>
        <time>2022-06-05T21:50:32Z</time>
      </trkpt>
      <trkpt lat="47.09948" lon="6.13142">
        <ele>359</ele>
        <time>2022-06-05T21:52:20Z</time>
      </trkpt>
      <trkpt lat="47.09987" lon="6.13175">
        <ele>356</ele>
        <time>2022-06-05T21:52:56Z</time>
      </trkpt>
      <trkpt lat="47.10022" lon="6.13209">
        <ele>352</ele>
        <time>2022-06-05T21:53:29Z</time>
      </trkpt>
      <trkpt lat="47.1009" lon="6.13233">
        <ele>346</ele>
        <time>2022-06-05T21:54:25Z</time>
      </trkpt>
      <trkpt lat="47.10121" lon="6.13235">
        <ele>343</ele>
        <time>2022-06-05T21:54:50Z</time>
      </trkpt>
      <trkpt lat="47.10152" lon="6.13242">
        <ele>340</ele>
        <time>2022-06-05T21:55:15Z</time>
      </trkpt>
      <trkpt lat="47.10172" lon="6.13321">
        <ele>340</ele>
        <time>2022-06-05T21:56:01Z</time>
      </trkpt>
      <trkpt lat="47.10173" lon="6.13335">
        <ele>340</ele>
        <time>2022-06-05T21:56:09Z</time>
      </trkpt>
      <trkpt lat="47.10183" lon="6.13339">
        <ele>339</ele>
        <time>2022-06-05T21:56:17Z</time>
      </trkpt>
      <trkpt lat="47.10185" lon="6.13353">
        <ele>339</ele>
        <time>2022-06-05T21:56:25Z</time>
      </trkpt>
      <trkpt lat="47.10246" lon="6.13421">
        <ele>334</ele>
        <time>2022-06-05T21:57:27Z</time>
      </trkpt>
      <trkpt lat="47.10275" lon="6.13461">
        <ele>334</ele>
        <time>2022-06-05T21:57:58Z</time>
      </trkpt>
      <trkpt lat="47.10362" lon="6.13594">
        <ele>333</ele>
        <time>2022-06-05T21:59:39Z</time>
      </trkpt>
      <trkpt lat="47.10414" lon="6.13667">
        <ele>331</ele>
        <time>2022-06-05T22:00:37Z</time>
      </trkpt>
      <trkpt lat="47.10439" lon="6.13727">
        <ele>331</ele>
        <time>2022-06-05T22:01:15Z</time>
      </trkpt>
      <trkpt lat="47.1044" lon="6.13737">
        <ele>330</ele>
        <time>2022-06-05T22:01:21Z</time>
      </trkpt>
      <trkpt lat="47.10431" lon="6.13769">
        <ele>331</ele>
        <time>2022-06-05T22:01:40Z</time>
      </trkpt>
      <trkpt lat="47.10446" lon="6.13831">
        <ele>332</ele>
        <time>2022-06-05T22:02:15Z</time>
      </trkpt>
      <trkpt lat="47.1044" lon="6.13893">
        <ele>335</ele>
        <time>2022-06-05T22:02:50Z</time>
      </trkpt>
      <trkpt lat="47.10444" lon="6.13964">
        <ele>336</ele>
        <time>2022-06-05T22:03:28Z</time>
      </trkpt>
      <trkpt lat="47.1045" lon="6.14001">
        <ele>336</ele>
        <time>2022-06-05T22:03:49Z</time>
      </trkpt>
      <trkpt lat="47.10485" lon="6.14131">
        <ele>334</ele>
        <time>2022-06-05T22:05:05Z</time>
      </trkpt>
      <trkpt lat="47.10491" lon="6.14136">
        <ele>333</ele>
        <time>2022-06-05T22:05:11Z</time>
      </trkpt>
      <trkpt lat="47.10508" lon="6.14241">
        <ele>336</ele>
        <time>2022-06-05T22:06:10Z</time>
      </trkpt>
      <trkpt lat="47.10508" lon="6.14297">
        <ele>337</ele>
        <time>2022-06-05T22:06:40Z</time>
      </trkpt>
      <trkpt lat="47.10511" lon="6.14318">
        <ele>337</ele>
        <time>2022-06-05T22:06:52Z</time>
      </trkpt>
      <trkpt lat="47.10521" lon="6.14348">
        <ele>337</ele>
        <time>2022-06-05T22:07:10Z</time>
      </trkpt>
      <trkpt lat="47.10523" lon="6.14363">
        <ele>337</ele>
        <time>2022-06-05T22:07:19Z</time>
      </trkpt>
      <trkpt lat="47.10528" lon="6.14434">
        <ele>340</ele>
        <time>2022-06-05T22:07:58Z</time>
      </trkpt>
      <trkpt lat="47.10524" lon="6.14441">
        <ele>340</ele>
        <time>2022-06-05T22:08:03Z</time>
      </trkpt>
      <trkpt lat="47.10512" lon="6.14526">
        <ele>340</ele>
        <time>2022-06-05T22:08:50Z</time>
      </trkpt>
      <trkpt lat="47.1052" lon="6.14544">
        <ele>338</ele>
        <time>2022-06-05T22:09:02Z</time>
      </trkpt>
      <trkpt lat="47.10564" lon="6.14584">
        <ele>332</ele>
        <time>2022-06-05T22:09:43Z</time>
      </trkpt>
      <trkpt lat="47.10568" lon="6.14592">
        <ele>331</ele>
        <time>2022-06-05T22:09:49Z</time>
      </trkpt>
      <trkpt lat="47.10565" lon="6.14619">
        <ele>331</ele>
        <time>2022-06-05T22:10:04Z</time>
      </trkpt>
      <trkpt lat="47.10555" lon="6.14653">
        <ele>331</ele>
        <time>2022-06-05T22:10:24Z</time>
      </trkpt>
      <trkpt lat="47.10547" lon="6.14676">
        <ele>331</ele>
        <time>2022-06-05T22:10:38Z</time>
      </trkpt>
      <trkpt lat="47.10537" lon="6.14695">
        <ele>331</ele>
        <time>2022-06-05T22:10:51Z</time>
      </trkpt>
      <trkpt lat="47.10514" lon="6.1467">
        <ele>332</ele>
        <time>2022-06-05T22:11:14Z</time>
      </trkpt>
      <trkpt lat="47.10498" lon="6.14661">
        <ele>334</ele>
        <time>2022-06-05T22:11:28Z</time>
      </trkpt>
    </trkseg>
  </trk>
</gpx>